[[{"header":{"parameterUnit":"m.s-1","parameterCategory":1,"la1":30.6,"la2":29.2853,"lo1":-89.7004,"lo2":-87.6739,"dy":0.0162,"dx":0.0183,"nx":112,"ny":82,"refTime":"2023-10-03T06:00:00:Z","depth":0,"parameterNumber":2,"parameterNumberName":"U-component_of_WINDS"},"data":[0.0,0.0,0.0,0.0,0.0,0.0,0.0,0.0,0.0,0.0,0.0,0.0,0.0,0.0,0.0,0.0,0.0,0.0,0.0,0.0,0.0,0.0,0.0,0.0,0.0,0.0,0.0,0.0,0.0,0.0,0.0,0.0,0.0,0.0,0.0,0.0,0.0,0.0,0.0,0.0,0.0,0.0,0.0,0.0,0.0,0.0,0.0,0.0,0.0,0.0,0.0,0.0,0.0,0.0,0.0,0.0,0.0,0.0,0.0,0.0,0.0,0.0,0.0,0.0,0.0,0.0,0.0,0.0,0.0,0.0,0.0,0.0,0.0,0.0,0.0,0.0,0.0,0.0,0.0,0.0,0.0,0.0,0.0,0.0,0.0,0.0,0.0,0.0,0.0,0.0,6.6914,6.6914,6.6914,6.6601,6.5859,6.5664,6.5273,6.4531,0.0,0.0,0.0,0.0,0.0,0.0,0.0,0.0,0.0,0.0,0.0,0.0,0.0,0.0,0.0,0.0,0.0,0.0,0.0,0.0,0.0,0.0,0.0,0.0,0.0,0.0,0.0,0.0,0.0,0.0,0.0,0.0,0.0,0.0,0.0,0.0,0.0,0.0,0.0,0.0,0.0,0.0,0.0,0.0,0.0,0.0,0.0,0.0,0.0,0.0,0.0,0.0,0.0,0.0,0.0,0.0,0.0,0.0,0.0,0.0,0.0,0.0,0.0,0.0,0.0,0.0,0.0,0.0,0.0,0.0,0.0,0.0,0.0,0.0,0.0,0.0,0.0,0.0,0.0,0.0,0.0,0.0,0.0,0.0,0.0,0.0,0.0,0.0,0.0,0.0,0.0,0.0,0.0,0.0,0.0,0.0,0.0,0.0,0.0,0.0,0.0,0.0,0.0,0.0,6.6914,6.6914,6.6914,6.6836,6.6719,6.6015,6.5547,6.539,0.0,0.0,0.0,0.0,0.0,0.0,0.0,0.0,0.0,0.0,0.0,0.0,0.0,0.0,0.0,0.0,0.0,0.0,0.0,0.0,0.0,0.0,0.0,0.0,0.0,0.0,0.0,0.0,0.0,0.0,0.0,0.0,0.0,0.0,0.0,0.0,0.0,0.0,0.0,0.0,0.0,0.0,0.0,0.0,0.0,0.0,0.0,0.0,0.0,0.0,0.0,0.0,0.0,0.0,0.0,0.0,0.0,0.0,0.0,0.0,0.0,0.0,0.0,0.0,0.0,0.0,0.0,0.0,0.0,0.0,0.0,0.0,0.0,0.0,0.0,0.0,0.0,0.0,0.0,0.0,0.0,0.0,0.0,0.0,0.0,0.0,0.0,0.0,0.0,0.0,0.0,0.0,0.0,0.0,0.0,0.0,0.0,0.0,0.0,0.0,0.0,0.0,0.0,6.6914,6.6914,6.6914,6.6914,6.6914,6.6914,6.6523,6.6289,6.6289,6.5117,0.0,0.0,0.0,0.0,0.0,0.0,0.0,0.0,0.0,0.0,0.0,0.0,0.0,0.0,0.0,0.0,0.0,0.0,0.0,0.0,0.0,0.0,0.0,0.0,0.0,0.0,0.0,0.0,0.0,0.0,0.0,0.0,0.0,0.0,0.0,0.0,0.0,0.0,0.0,0.0,0.0,0.0,0.0,0.0,0.0,0.0,0.0,0.0,0.0,0.0,0.0,0.0,0.0,0.0,0.0,0.0,0.0,0.0,0.0,0.0,0.0,0.0,0.0,0.0,0.0,0.0,0.0,0.0,0.0,0.0,0.0,0.0,0.0,0.0,0.0,0.0,0.0,0.0,0.0,0.0,0.0,0.0,0.0,0.0,0.0,0.0,0.0,0.0,0.0,0.0,0.0,0.0,0.0,0.0,0.0,0.0,0.0,0.0,0.0,0.0,0.0,0.0,6.6914,6.6914,6.6914,6.6914,6.6914,6.6914,6.6914,6.6914,6.6914,6.6094,0.0,0.0,0.0,0.0,0.0,0.0,0.0,0.0,0.0,0.0,0.0,0.0,0.0,0.0,0.0,0.0,0.0,0.0,0.0,0.0,0.0,0.0,0.0,0.0,0.0,0.0,0.0,0.0,0.0,0.0,0.0,0.0,0.0,0.0,0.0,0.0,0.0,0.0,0.0,0.0,0.0,0.0,0.0,0.0,0.0,0.0,0.0,0.0,0.0,0.0,0.0,0.0,0.0,0.0,0.0,0.0,0.0,0.0,0.0,0.0,0.0,0.0,0.0,0.0,0.0,0.0,0.0,0.0,0.0,0.0,0.0,0.0,0.0,0.0,0.0,0.0,0.0,0.0,0.0,0.0,0.0,0.0,0.0,0.0,0.0,0.0,0.0,0.0,0.0,0.0,0.0,0.0,0.0,0.0,0.0,0.0,0.0,0.0,0.0,0.0,0.0,0.0,6.6914,6.6914,6.6914,6.6914,6.6914,6.6914,6.6914,6.6914,6.6914,6.6094,0.0,0.0,0.0,0.0,0.0,0.0,0.0,0.0,0.0,0.0,0.0,0.0,0.0,0.0,0.0,0.0,0.0,0.0,0.0,0.0,0.0,0.0,0.0,0.0,0.0,0.0,0.0,0.0,0.0,0.0,0.0,0.0,0.0,0.0,0.0,0.0,0.0,0.0,0.0,0.0,0.0,0.0,0.0,0.0,0.0,0.0,0.0,0.0,0.0,0.0,0.0,0.0,0.0,0.0,0.0,0.0,0.0,0.0,0.0,0.0,0.0,0.0,0.0,0.0,0.0,0.0,0.0,0.0,0.0,0.0,0.0,0.0,0.0,0.0,0.0,0.0,0.0,0.0,0.0,0.0,0.0,0.0,0.0,0.0,0.0,0.0,0.0,0.0,0.0,0.0,0.0,0.0,0.0,0.0,0.0,0.0,0.0,0.0,0.0,0.0,0.0,0.0,6.6914,6.6914,6.6914,6.6914,6.6914,6.6914,6.6914,6.6914,6.6914,0.0,0.0,0.0,0.0,0.0,0.0,0.0,0.0,0.0,0.0,0.0,0.0,0.0,0.0,0.0,0.0,0.0,0.0,0.0,0.0,0.0,0.0,0.0,0.0,0.0,0.0,0.0,0.0,0.0,0.0,0.0,0.0,0.0,0.0,0.0,0.0,0.0,0.0,0.0,0.0,0.0,0.0,0.0,0.0,0.0,0.0,0.0,0.0,0.0,0.0,0.0,0.0,0.0,0.0,0.0,0.0,0.0,0.0,0.0,0.0,0.0,0.0,0.0,0.0,0.0,0.0,0.0,0.0,0.0,0.0,0.0,0.0,0.0,0.0,0.0,0.0,0.0,0.0,0.0,0.0,0.0,0.0,0.0,0.0,0.0,0.0,0.0,0.0,0.0,0.0,0.0,0.0,0.0,0.0,0.0,0.0,0.0,0.0,0.0,0.0,0.0,0.0,6.6914,6.6914,6.6914,6.6914,6.6914,6.6914,6.6914,6.6914,6.6914,6.6914,0.0,0.0,0.0,0.0,0.0,0.0,0.0,0.0,0.0,0.0,0.0,0.0,0.0,0.0,0.0,0.0,0.0,0.0,0.0,0.0,0.0,0.0,0.0,0.0,0.0,0.0,0.0,0.0,0.0,0.0,0.0,0.0,0.0,0.0,0.0,0.0,0.0,0.0,0.0,0.0,0.0,0.0,0.0,0.0,0.0,0.0,0.0,0.0,0.0,0.0,0.0,0.0,0.0,0.0,0.0,0.0,0.0,0.0,0.0,0.0,0.0,0.0,0.0,0.0,0.0,0.0,0.0,0.0,0.0,0.0,0.0,0.0,0.0,0.0,0.0,0.0,0.0,0.0,0.0,0.0,0.0,0.0,0.0,0.0,0.0,0.0,0.0,0.0,0.0,0.0,0.0,0.0,0.0,0.0,0.0,0.0,0.0,0.0,0.0,0.0,0.0,0.0,6.6914,6.6914,6.6914,6.6914,6.6914,6.6914,6.6914,6.6914,6.6914,0.0,0.0,0.0,0.0,0.0,0.0,0.0,0.0,0.0,0.0,0.0,0.0,0.0,0.0,0.0,0.0,0.0,0.0,0.0,0.0,0.0,0.0,0.0,0.0,0.0,0.0,0.0,0.0,0.0,0.0,0.0,0.0,0.0,0.0,0.0,0.0,0.0,0.0,0.0,0.0,0.0,0.0,0.0,0.0,0.0,0.0,0.0,0.0,0.0,0.0,0.0,0.0,0.0,0.0,0.0,0.0,0.0,0.0,0.0,0.0,0.0,0.0,0.0,0.0,0.0,0.0,0.0,0.0,0.0,0.0,0.0,0.0,0.0,0.0,0.0,0.0,0.0,0.0,0.0,0.0,0.0,0.0,0.0,0.0,0.0,0.0,0.0,0.0,0.0,0.0,0.0,0.0,0.0,0.0,0.0,0.0,0.0,0.0,0.0,0.0,0.0,0.0,0.0,6.6914,6.6914,6.6914,6.6914,6.6914,6.6914,6.6914,6.6914,6.6914,6.6914,0.0,0.0,0.0,0.0,0.0,0.0,0.0,0.0,0.0,0.0,0.0,0.0,0.0,0.0,0.0,0.0,0.0,0.0,0.0,0.0,0.0,0.0,0.0,0.0,0.0,0.0,0.0,0.0,0.0,0.0,0.0,0.0,0.0,0.0,0.0,0.0,0.0,0.0,0.0,0.0,0.0,0.0,0.0,0.0,0.0,0.0,0.0,0.0,0.0,0.0,0.0,0.0,0.0,0.0,0.0,0.0,0.0,0.0,0.0,0.0,0.0,0.0,0.0,0.0,0.0,0.0,0.0,0.0,0.0,0.0,0.0,0.0,0.0,0.0,0.0,0.0,0.0,0.0,0.0,0.0,0.0,0.0,0.0,0.0,0.0,0.0,0.0,0.0,0.0,0.0,0.0,0.0,0.0,0.0,0.0,0.0,0.0,0.0,0.0,0.0,0.0,0.0,6.6914,6.6914,6.6914,6.6914,6.6914,6.6914,6.6914,6.6914,6.6914,6.6914,0.0,0.0,0.0,0.0,0.0,0.0,0.0,0.0,0.0,0.0,0.0,0.0,0.0,0.0,0.0,0.0,0.0,0.0,0.0,0.0,0.0,0.0,0.0,0.0,0.0,0.0,0.0,0.0,0.0,0.0,0.0,0.0,0.0,0.0,0.0,0.0,0.0,0.0,0.0,0.0,0.0,0.0,0.0,0.0,0.0,0.0,0.0,0.0,0.0,0.0,0.0,0.0,0.0,0.0,0.0,0.0,0.0,0.0,0.0,0.0,0.0,0.0,0.0,0.0,0.0,0.0,0.0,0.0,0.0,0.0,0.0,0.0,0.0,0.0,0.0,0.0,0.0,0.0,0.0,0.0,0.0,0.0,0.0,0.0,0.0,0.0,0.0,0.0,0.0,0.0,0.0,0.0,0.0,0.0,0.0,0.0,0.0,0.0,0.0,0.0,0.0,0.0,6.6914,6.6914,6.6914,6.6914,6.6914,6.6914,6.6914,6.6914,6.6914,6.6914,0.0,0.0,0.0,0.0,0.0,0.0,0.0,0.0,0.0,0.0,0.0,0.0,0.0,0.0,0.0,0.0,0.0,0.0,0.0,0.0,0.0,0.0,0.0,0.0,0.0,0.0,0.0,0.0,0.0,0.0,0.0,0.0,0.0,0.0,0.0,0.0,0.0,0.0,0.0,0.0,0.0,0.0,0.0,0.0,0.0,0.0,0.0,0.0,0.0,0.0,0.0,0.0,0.0,0.0,0.0,0.0,0.0,0.0,0.0,0.0,6.6639,0.0,0.0,0.0,0.0,0.0,0.0,0.0,0.0,0.0,0.0,0.0,0.0,0.0,0.0,0.0,0.0,0.0,0.0,0.0,0.0,0.0,0.0,0.0,0.0,0.0,0.0,0.0,0.0,0.0,0.0,0.0,0.0,0.0,0.0,0.0,0.0,0.0,0.0,0.0,0.0,0.0,6.6914,6.6914,6.6914,6.6914,6.6914,6.6914,6.6914,6.6914,6.6914,6.6914,6.6914,0.0,0.0,0.0,0.0,0.0,0.0,0.0,0.0,0.0,0.0,0.0,0.0,0.0,0.0,0.0,0.0,0.0,0.0,0.0,0.0,0.0,0.0,0.0,0.0,0.0,0.0,0.0,0.0,0.0,0.0,0.0,0.0,0.0,0.0,0.0,0.0,0.0,0.0,0.0,0.0,0.0,0.0,0.0,0.0,0.0,0.0,0.0,0.0,0.0,0.0,0.0,0.0,0.0,0.0,0.0,0.0,0.0,0.0,0.0,0.0,6.6614,0.0,0.0,0.0,0.0,0.0,0.0,0.0,0.0,0.0,0.0,0.0,0.0,0.0,0.0,0.0,0.0,0.0,0.0,0.0,0.0,0.0,0.0,0.0,0.0,0.0,0.0,0.0,0.0,0.0,0.0,0.0,0.0,0.0,0.0,0.0,0.0,0.0,0.0,0.0,0.0,6.6914,6.6914,6.6914,6.6914,6.6914,6.6914,6.6914,6.6914,6.6914,6.6914,6.6914,0.0,0.0,0.0,0.0,0.0,0.0,0.0,0.0,0.0,0.0,0.0,0.0,0.0,0.0,0.0,0.0,0.0,0.0,0.0,0.0,0.0,0.0,0.0,0.0,0.0,0.0,0.0,0.0,0.0,0.0,0.0,0.0,0.0,0.0,0.0,0.0,0.0,0.0,0.0,0.0,0.0,0.0,0.0,0.0,0.0,0.0,0.0,0.0,0.0,0.0,0.0,0.0,0.0,6.6336,6.6298,6.6298,6.6298,6.6298,6.632,6.631,6.6258,6.618,6.6453,0.0,0.0,0.0,0.0,0.0,0.0,0.0,0.0,0.0,0.0,0.0,0.0,0.0,0.0,0.0,0.0,0.0,0.0,0.0,0.0,0.0,0.0,0.0,0.0,6.6797,6.6797,6.6797,0.0,0.0,0.0,0.0,0.0,0.0,0.0,0.0,0.0,0.0,0.0,6.6914,6.6914,6.6914,6.6914,6.6914,6.6914,6.6914,6.6914,6.6914,6.6914,6.6914,6.6836,0.0,0.0,0.0,0.0,0.0,0.0,0.0,0.0,0.0,0.0,0.0,0.0,0.0,0.0,0.0,0.0,0.0,0.0,0.0,0.0,0.0,0.0,0.0,0.0,0.0,0.0,0.0,0.0,0.0,0.0,0.0,0.0,6.6165,6.6172,0.0,0.0,0.0,0.0,0.0,0.0,0.0,0.0,0.0,0.0,0.0,0.0,0.0,6.6389,6.6389,6.623,6.615,6.6139,6.6019,6.5979,6.5979,6.5979,6.5979,6.5952,6.5963,0.0,6.635,6.6428,0.0,0.0,0.0,0.0,0.0,0.0,0.0,0.0,0.0,0.0,0.0,0.0,0.0,0.0,0.0,0.0,0.0,0.0,0.0,0.0,0.0,0.0,6.6484,6.6484,6.6484,6.6484,0.0,6.668,6.6914,6.6914,6.6758,0.0,0.0,0.0,0.0,0.0,0.0,0.0,6.6914,6.6914,6.6914,6.6914,6.6914,6.6914,6.6914,6.6914,6.6914,6.6914,6.6914,6.6875,6.6875,6.6717,0.0,0.0,0.0,0.0,0.0,0.0,0.0,0.0,0.0,0.0,0.0,0.0,0.0,0.0,0.0,0.0,0.0,0.0,0.0,0.0,0.0,0.0,0.0,0.0,0.0,0.0,0.0,0.0,0.0,6.6019,6.6099,6.6099,6.6186,6.6298,0.0,0.0,0.0,0.0,0.0,0.0,0.0,0.0,0.0,6.6138,6.6138,6.6336,6.6774,6.6694,6.6893,6.7407,6.7329,6.7327,6.7327,6.7327,6.7327,6.7327,6.7327,6.7407,6.7447,6.6575,6.6263,6.6323,0.0,0.0,0.0,0.0,6.6505,6.6478,6.6282,6.6222,6.6218,6.6218,0.0,0.0,0.0,0.0,0.0,0.0,0.0,0.0,0.0,0.0,6.6399,6.6399,6.6399,6.6438,6.6517,6.6556,6.6631,0.0,6.6758,6.6782,6.6861,0.0,0.0,0.0,0.0,6.6914,6.6914,6.6797,6.6719,6.6719,6.664,6.664,6.6719,6.664,6.664,6.6719,6.664,6.6601,6.6601,6.6599,6.6645,0.0,0.0,0.0,0.0,0.0,0.0,0.0,0.0,0.0,0.0,0.0,0.0,0.0,0.0,0.0,0.0,0.0,0.0,0.0,0.0,0.0,0.0,0.0,0.0,0.0,0.0,0.0,0.0,6.5981,6.6059,6.6059,6.6059,6.6099,0.0,0.0,0.0,0.0,0.0,0.0,6.6059,6.6252,6.6325,6.6203,6.6402,6.6837,6.7425,6.7412,6.7763,6.8398,6.8398,6.8398,6.8398,6.8398,6.8398,6.8398,6.8398,6.8398,6.832,6.7159,6.6694,6.6752,6.6905,6.7004,6.7004,6.6731,6.6663,6.6614,6.6179,6.6059,6.6059,6.6059,6.6059,6.6139,6.6296,0.0,0.0,0.0,0.0,6.6336,6.6296,6.6258,6.6258,6.6258,6.6258,6.6298,6.6416,6.6376,6.6383,0.0,6.664,6.6693,6.6752,0.0,0.0,0.0,6.6758,6.6758,6.6758,6.664,6.6558,6.6545,6.6457,6.6457,6.6535,6.6474,6.644,6.6541,6.6457,6.6418,6.6418,6.6515,6.6546,6.6606,0.0,0.0,0.0,0.0,0.0,0.0,0.0,0.0,0.0,0.0,0.0,0.0,0.0,0.0,0.0,0.0,0.0,0.0,0.0,0.0,0.0,0.0,0.0,0.0,0.0,0.0,0.0,0.0,0.0,6.59,6.59,0.0,0.0,0.0,0.0,6.5941,6.5941,6.5902,6.59,6.6633,6.7051,6.7042,6.7835,6.8299,6.8318,6.8311,6.8368,6.8408,6.8408,6.8408,6.8408,6.8408,6.8408,6.8408,6.8408,6.8408,6.8376,6.8318,6.8358,6.8485,6.8508,6.8613,6.8653,6.7703,6.7346,6.721,6.6258,6.59,6.59,6.59,6.5981,6.6099,6.6099,6.6258,0.0,0.0,6.6124,6.6099,6.5941,6.5941,6.5941,6.5941,6.5941,6.5941,6.5941,6.6021,6.6225,0.0,6.6367,6.6211,6.6404,0.0,6.6211,6.6406,6.6445,6.6445,6.6445,6.6406,6.6424,6.6404,6.6397,6.6397,6.6397,6.6388,6.6409,6.6394,6.6397,6.6397,6.6397,6.6407,6.6484,6.6599,6.6601,0.0,0.0,0.0,0.0,0.0,0.0,0.0,0.0,0.0,0.0,0.0,0.0,0.0,0.0,0.0,0.0,0.0,0.0,0.0,0.0,0.0,0.0,0.0,0.0,0.0,0.0,0.0,0.0,6.59,6.59,0.0,6.59,6.59,6.6093,6.6633,6.6672,6.6938,6.7473,6.7779,6.7933,6.7928,6.8244,6.8674,6.9214,6.9236,6.9493,7.0025,7.0025,7.0025,7.0025,7.0025,7.0025,7.0025,7.0025,7.0025,7.0028,7.0027,6.9408,6.8457,6.8457,6.8535,6.8535,6.8179,6.8038,6.7986,6.763,6.751,6.7436,6.6841,6.6694,6.6654,6.6139,6.6019,6.6059,6.5981,6.5979,6.5941,6.59,6.59,6.59,6.59,6.59,6.5902,6.6019,6.5981,6.6189,6.6951,6.6676,6.6339,6.6379,6.6339,6.6339,6.6379,6.685,6.7164,6.7164,6.7558,6.7826,6.7815,6.7725,6.7526,6.709,6.6928,6.6668,6.6249,6.6139,6.6138,6.6218,6.6315,6.6444,6.6601,6.6601,6.6719,0.0,0.0,0.0,0.0,0.0,0.0,0.0,0.0,0.0,0.0,0.0,0.0,0.0,0.0,0.0,0.0,0.0,0.0,0.0,0.0,0.0,0.0,0.0,0.0,0.0,6.59,6.59,6.59,6.59,6.6016,6.6287,6.6285,6.6631,6.7476,6.7553,6.7781,6.8353,6.8662,6.8854,6.8854,6.9393,6.9978,7.0525,7.083,7.1248,7.1781,7.1781,7.1781,7.1781,7.179,7.1793,7.1793,7.1781,7.1778,7.1781,7.179,7.1112,7.0071,6.9461,6.9232,6.9194,6.8954,6.8854,6.8804,6.85,6.8388,6.8318,6.7723,6.7537,6.7457,6.6902,6.6744,6.6744,6.6744,6.6744,6.6744,6.6744,6.6744,6.6744,6.6744,6.6744,6.6782,6.6862,6.679,6.6946,6.7593,6.7143,6.6734,6.7011,6.7051,6.7051,6.7051,6.7526,6.7871,6.7874,6.8267,6.8544,6.8544,6.8466,6.8227,6.779,6.7624,6.721,6.6495,6.6338,6.6218,6.6059,6.6258,6.644,6.6523,6.6591,6.6706,6.6914,0.0,0.0,0.0,0.0,0.0,0.0,0.0,0.0,0.0,0.0,0.0,0.0,0.0,0.0,0.0,0.0,0.0,0.0,0.0,0.0,0.0,0.0,0.0,6.59,6.59,6.59,6.59,6.5902,6.6247,6.7018,6.7133,6.7515,6.8393,6.843,6.8468,6.8468,6.9318,6.9781,6.9781,7.1363,7.225,7.225,7.3089,7.3507,7.3507,7.3507,7.3507,7.3507,7.3492,7.3502,7.35,7.3505,7.3496,7.3509,7.3493,7.3483,7.3337,7.1622,7.0975,7.0856,7.0063,6.9749,6.9634,6.8756,6.8497,6.8468,6.8468,6.843,6.843,6.8391,6.8391,6.8391,6.8391,6.8391,6.8393,6.8391,6.8391,6.8391,6.8391,6.8391,6.8391,6.8391,6.8409,6.8397,6.8427,6.776,6.7444,6.8273,6.8394,6.8394,6.8394,6.8432,0.0,6.8451,6.8478,6.8478,6.8478,6.8478,6.8478,6.8438,6.8454,6.8076,6.7204,6.7128,6.6734,6.5979,6.6218,6.6402,6.6406,6.6543,6.6673,6.6874,0.0,0.0,0.0,0.0,0.0,0.0,0.0,0.0,0.0,0.0,0.0,0.0,0.0,0.0,0.0,0.0,0.0,0.0,0.0,0.0,0.0,6.59,6.59,6.59,6.59,6.59,6.59,6.6401,6.6864,6.7095,6.7667,6.8395,6.9281,6.9356,6.9587,7.0166,7.1054,7.1517,7.1517,7.2552,7.3126,7.3126,7.3393,7.3507,7.3507,7.3507,7.3507,7.3507,7.3514,7.3516,7.3516,7.3507,7.3504,7.3507,7.3514,7.3511,7.3463,7.296,7.239,7.1823,7.1586,7.1122,7.0544,7.0314,7.0201,7.0127,6.9549,6.9356,6.9201,6.8584,6.8391,6.8391,6.8391,6.8403,6.8411,6.8396,6.8385,6.8381,6.839,6.8391,6.8391,6.8391,6.8409,6.8578,6.9227,6.9157,6.8842,6.8488,6.8403,6.8403,6.8403,6.8958,0.0,6.9354,6.9866,7.0224,7.0224,7.0224,6.9986,6.9391,6.9338,6.896,6.8087,6.7446,6.7011,6.6774,6.6376,6.6166,6.6172,6.6451,6.6498,0.0,0.0,0.0,0.0,0.0,0.0,0.0,0.0,0.0,0.0,0.0,0.0,0.0,0.0,0.0,0.0,0.0,0.0,0.0,0.0,0.0,0.0,6.617,6.6402,6.6402,6.6402,6.6402,6.6402,6.713,6.7782,6.8132,6.8664,6.9435,7.0669,7.0746,7.1129,7.1935,7.2476,7.2745,7.2745,7.3549,7.4163,7.4547,7.4897,7.5243,7.559,7.559,7.559,7.559,7.559,7.559,7.559,7.559,7.559,7.5553,7.5245,7.509,0.0,0.0,0.0,0.0,0.0,7.2435,7.1972,7.1972,7.1972,7.1895,7.1433,7.105,7.0669,7.0167,6.9743,6.9433,6.9433,6.9443,6.945,6.9436,6.9465,6.9462,6.9431,6.9433,6.9433,6.9433,6.9714,7.0142,7.0666,7.1027,0.0,7.063,6.9931,6.9431,6.9431,6.9868,7.0186,7.0186,7.0621,7.0898,7.0898,7.0898,7.0701,7.0224,7.0186,0.0,0.0,0.0,6.7917,6.7247,6.6495,0.0,0.0,0.0,6.6342,6.6299,6.6461,0.0,0.0,6.6584,6.6562,0.0,0.0,0.0,0.0,0.0,0.0,0.0,0.0,0.0,0.0,0.0,0.0,0.0,0.0,0.0,0.0,6.6633,6.7133,6.7249,6.7324,6.7364,6.7247,6.8011,6.8893,6.9743,6.9935,7.0631,7.2211,7.2365,7.267,7.3469,7.3586,0.0,0.0,0.0,7.5397,7.6286,7.7057,7.779,7.8484,7.8484,7.8484,7.8484,7.8484,7.8484,7.8484,7.8484,7.8484,7.8446,7.7713,7.7444,7.7174,7.4626,7.3624,7.3623,7.3546,7.3507,7.3507,7.3507,0.0,0.0,7.3507,7.2974,7.2365,7.2365,7.1823,7.1204,7.1204,7.1206,7.1208,7.1206,7.1204,7.1203,7.1204,7.1204,7.1204,7.1204,7.1787,7.2365,7.2351,7.2983,7.3492,7.3511,7.2208,7.1176,7.1176,7.1176,7.1176,7.1176,7.1176,7.1176,7.1176,0.0,0.0,7.1057,7.0977,7.0582,6.9868,6.9747,6.9002,6.7443,6.6615,6.6258,6.6336,6.6178,6.6258,6.6535,6.6455,6.6535,6.6845,6.6698,6.6719,0.0,0.0,0.0,0.0,0.0,0.0,0.0,0.0,0.0,0.0,0.0,0.0,0.0,0.0,0.0,6.6748,6.7019,6.7362,6.8048,6.8741,6.8936,6.8241,6.8933,6.9781,7.0591,7.1285,7.2131,7.3163,7.3241,7.3317,7.3507,7.4124,7.478,7.5474,7.6363,7.7172,7.8021,7.8175,7.8369,7.8484,0.0,0.0,7.8484,7.8484,7.8484,7.8484,7.8484,7.8484,7.8484,7.833,7.8253,7.8021,7.5474,7.4471,7.4394,7.3738,7.3507,7.3507,7.3507,7.3507,7.3507,7.3507,7.3393,7.3241,7.3241,7.3126,0.0,7.3009,7.2983,7.2993,7.3012,7.3002,7.2996,7.3005,7.3009,7.3009,7.3009,7.3138,7.3261,7.3241,7.3388,7.3502,7.3507,7.324,7.2999,7.2999,7.2999,7.2999,7.2999,7.2999,7.2999,7.2999,7.2366,7.1968,7.1968,7.1295,7.082,7.0661,7.0065,6.8923,6.7245,6.7011,6.6615,6.6019,6.6059,6.6099,6.6059,6.6296,6.6416,6.6489,6.6737,6.6875,0.0,0.0,0.0,0.0,0.0,0.0,0.0,0.0,0.0,0.0,0.0,6.6016,6.6441,0.0,6.6785,6.7628,6.8129,6.8552,6.9008,6.9779,6.9973,6.9162,7.0166,7.1092,7.1517,7.2323,7.3205,7.4047,7.4086,7.4471,7.5361,7.5784,7.6401,7.7209,7.7673,7.8288,7.9131,7.9133,7.9363,7.9788,7.9788,7.9788,7.9788,7.9788,7.9788,7.9788,7.9788,7.9788,7.9787,7.9325,7.8904,7.8369,7.7094,7.6361,7.5938,7.5553,7.5128,7.4742,7.4742,7.4742,7.4742,7.4742,7.4472,7.4086,7.4086,7.3817,7.3507,7.3507,7.3516,7.3483,7.3511,7.3504,7.35,7.3505,7.3507,7.3507,7.3507,7.3825,7.4098,7.4088,7.4467,7.4734,7.474,7.4765,7.4476,7.3628,7.3506,7.3504,7.3511,7.3492,7.3516,7.3516,7.3119,7.2864,7.2837,7.2048,7.1374,7.0938,7.0145,6.9298,6.8438,6.7975,6.7367,6.6535,6.6575,6.6416,6.5981,6.6258,6.6419,6.6514,6.6772,6.6914,0.0,0.0,0.0,0.0,0.0,0.0,0.0,6.59,6.5939,6.6094,6.6131,6.6364,6.7209,6.7362,6.763,6.8508,6.9241,6.9743,6.9896,7.0631,7.0898,7.0244,7.1363,7.2325,7.2633,7.332,7.4086,7.4895,7.5126,7.5822,7.7211,7.7444,7.7905,7.8713,7.875,7.9171,8.005,8.005,8.0398,8.1093,8.1093,8.1093,8.1093,8.1093,8.1093,8.1093,8.1093,8.1093,8.1054,8.0321,7.9631,7.9021,7.9021,7.8519,7.7788,7.7597,7.7096,7.6478,7.6324,7.6245,7.6209,7.6053,7.5513,7.4934,7.4934,7.4511,7.4009,7.4009,7.4009,7.4009,7.4009,7.4009,7.4009,7.4009,7.4009,7.4009,7.4009,7.4511,7.4934,7.4934,7.5513,7.6015,7.6015,7.6015,7.5551,7.4201,7.4002,7.3998,7.4009,7.3977,7.3991,7.3991,7.3832,7.3671,7.3516,7.2869,7.2088,7.1216,7.0542,7.0027,6.9709,6.9038,6.8249,6.7378,6.7199,6.6814,6.6298,6.6336,6.6402,6.6523,6.6758,6.6875,6.59,6.59,6.59,6.59,6.59,6.59,0.0,6.59,6.6094,6.6825,6.6979,6.7247,6.8087,6.8237,6.8547,6.9396,6.9627,6.9935,7.0667,7.1517,7.2019,7.194,7.2096,7.2785,7.428,7.4511,7.4934,7.5782,7.6555,7.7096,7.729,7.7984,7.875,7.9627,7.9665,8.0052,8.0937,8.0937,8.1014,8.1093,8.1093,8.1093,8.1093,8.1093,8.1093,8.1093,8.1093,8.1093,8.1093,8.0977,8.09,8.0825,8.0825,8.0285,7.9436,7.8636,7.829,7.8136,7.7405,7.7134,7.7019,7.6245,7.5938,7.5859,7.5859,7.5782,7.5705,7.5705,7.5705,7.5705,7.5705,7.5705,7.5705,7.5705,7.5705,7.5705,7.5705,7.5782,7.5859,7.5859,7.5938,7.6015,7.6015,7.6015,7.5938,7.5745,7.5705,7.5705,7.5705,7.5701,7.5736,7.5736,7.5024,7.4275,7.357,7.3422,7.2961,7.2127,7.197,7.1255,6.9749,6.96,6.9132,6.8258,6.7479,6.7051,6.6973,6.6416,6.6127,6.6172,6.6484,6.6719,6.59,6.59,6.59,6.59,6.59,6.6016,6.6479,6.6593,6.6824,6.7665,6.7859,6.8127,6.901,6.9162,6.9433,7.0244,7.0397,7.0706,7.1554,7.1981,7.2556,7.3553,7.3668,7.3936,7.4624,7.5165,7.5822,7.667,7.7096,7.7748,7.8707,7.9054,7.9669,8.0514,8.0552,8.0746,8.1093,8.1093,8.1093,8.1093,8.1093,8.1093,8.1093,8.1093,8.1093,8.1093,8.1093,8.1093,8.1093,8.1093,8.1093,8.1093,8.1093,8.0898,8.0437,7.9592,7.8942,7.8446,7.8136,7.7982,7.7944,7.7559,7.7134,7.6747,7.6747,7.6401,7.6015,7.6015,7.6015,7.6015,7.6015,7.6015,7.6015,7.6015,7.6015,7.6015,7.6015,7.6015,7.6015,7.6015,7.6015,7.6015,7.6015,7.6015,7.6015,7.6015,7.6015,7.6015,7.6015,7.6015,7.6015,7.6015,7.5659,7.5103,7.427,7.4192,7.3822,7.3028,7.2491,7.1889,7.1176,7.0661,7.0025,6.9153,6.8801,6.8377,6.7843,6.717,6.6845,6.6847,6.6612,6.6578,6.6285,6.6399,6.6514,6.6285,6.6399,6.6745,6.7322,6.7478,6.7707,6.8585,6.8776,6.9008,6.9858,7.0012,7.0204,7.0823,7.1092,7.1477,7.2094,7.2594,7.3322,7.4549,7.4895,7.5165,7.5396,7.5976,7.6632,7.7251,7.7748,7.8515,7.974,8.0048,8.0437,8.1093,8.1093,8.1093,8.1093,8.1093,8.1093,8.1093,8.1093,8.1093,8.1093,8.1093,8.1093,8.1093,8.1093,8.1093,8.1093,8.1093,8.1093,8.1093,8.1093,8.1093,8.1016,8.0398,7.9746,7.9175,7.8942,7.8865,7.8829,7.8598,7.8099,7.7636,7.7636,7.7172,7.6632,7.6438,7.6361,7.6284,7.6053,7.6015,7.6015,7.6015,7.6015,7.6015,7.6015,7.6015,7.6015,7.6015,7.6015,7.6015,7.6015,7.6015,7.6015,7.6015,7.6015,7.6015,7.6015,7.6015,7.6015,7.6015,7.6015,7.5738,7.5103,7.5062,7.4705,7.3872,7.3233,7.2692,7.2206,7.1573,7.086,7.0065,6.9827,6.939,6.8751,6.8038,6.7696,6.7685,6.721,6.6952,6.7285,6.7665,6.8124,6.7285,6.7705,6.8314,6.8353,6.8353,6.8624,6.9472,6.9666,6.9898,7.0706,7.086,7.086,7.0898,7.1594,7.2173,7.2211,7.3591,7.4624,7.4701,7.5436,7.6284,7.7134,7.7251,7.7288,7.729,7.8823,7.9742,7.9817,8.0591,8.1054,8.1093,8.1093,8.1093,8.1093,8.1093,8.1093,8.1093,8.1093,8.1093,8.1093,8.1093,8.1093,8.1093,8.1093,8.1093,8.1093,8.1093,8.1093,8.1093,8.1093,8.1093,8.1093,8.1054,8.1054,8.09,8.005,7.9742,7.9627,7.8752,7.8482,7.8446,7.8446,7.8446,7.8253,7.7482,7.7251,7.7059,7.6209,7.6015,7.6015,7.6015,7.6015,7.6015,7.6015,7.6015,7.6015,7.6015,7.6015,7.6015,7.6015,7.6015,7.6015,7.6015,7.6015,7.6015,7.6015,7.6015,7.6015,7.6015,7.6015,7.5976,7.5974,7.5974,7.5579,7.4707,7.463,7.3885,7.2283,7.2167,7.1732,7.0898,7.0105,6.967,6.9674,6.8801,6.8378,6.8358,6.8477,6.8104,6.8048,6.8162,6.8316,6.8048,6.8162,6.8547,6.9125,6.9241,6.951,7.032,7.0514,7.0591,7.086,7.0898,7.0898,7.0898,7.1633,7.2402,7.2974,7.4011,7.4895,7.5474,7.6324,7.698,7.7288,7.729,7.775,7.8898,7.9473,8.005,8.0629,8.0937,8.1093,8.1093,8.1093,8.1093,8.1093,8.1093,8.1093,8.1093,8.1093,8.1093,8.1093,8.1093,8.1093,8.1093,8.1093,8.1093,8.1093,8.1093,8.1093,8.1093,8.1093,8.1093,8.1093,8.1093,8.1093,8.1054,8.0744,8.0667,8.0591,8.0325,7.9825,7.936,7.936,7.8979,7.8446,7.8175,7.8099,7.7905,7.7096,7.6865,7.6711,7.6132,7.6015,7.6015,7.6015,7.6015,7.6015,7.6015,7.6015,7.6015,7.6015,7.6015,7.6015,7.6015,7.6015,7.6015,7.6015,7.6015,7.6015,7.6015,7.6015,7.6015,7.6015,7.6015,7.5857,7.5579,7.5024,7.4445,7.3885,7.2804,7.2048,7.177,7.0938,7.0502,7.0502,6.9669,6.9251,6.9246,6.8729,6.8373,6.8933,6.9085,6.9201,6.8933,6.9085,6.9431,7.0012,7.0129,7.0281,7.0783,7.0898,7.0898,7.0898,7.0898,7.1014,7.1323,7.2093,7.2974,7.3817,7.4624,7.5474,7.6361,7.6942,7.7557,7.8132,7.8209,7.8631,7.9704,8.0089,8.0514,8.1054,8.1093,8.1093,8.1093,8.1093,8.1093,8.1093,8.1093,8.1093,8.1093,8.1093,8.1093,8.1093,8.1093,8.1093,8.1093,8.1093,8.1093,8.1093,8.1093,8.1093,8.1093,8.1093,8.1093,8.1093,8.1093,8.1093,8.1093,8.1093,8.1093,8.1093,8.1093,8.0706,8.0242,8.0242,7.9862,7.9365,7.9058,7.8979,7.8788,7.7944,7.7521,7.7172,7.6595,7.6247,7.6015,7.6015,7.6015,7.6015,7.6015,7.6015,7.6015,7.6015,7.6015,7.6015,7.6015,7.6015,7.6015,7.6015,7.6015,7.6015,7.6015,7.6015,7.6015,7.6015,7.6015,7.6015,7.6015,7.546,7.5024,7.4705,7.3661,7.2804,7.2207,7.1651,7.1216,7.0898,7.0383,7.0144,7.0105,6.955,6.9192,6.9975,7.0321,7.0706,6.9935,7.0358,7.0898,7.0898,7.0898,7.0898,7.0898,7.0898,7.0898,7.0975,7.0938,7.1206,7.2135,7.2974,7.3776,7.4586,7.5474,7.6363,7.7213,7.7365,7.8055,7.9665,7.9856,7.9858,7.9858,8.0629,8.1093,8.1093,8.1093,8.1093,8.1093,8.1093,8.1093,8.1093,8.1093,8.1093,8.1093,8.1093,8.1093,8.1093,8.1093,8.1093,8.1093,8.1093,8.1093,8.1093,8.1093,8.1093,8.1093,8.1093,8.1093,8.1093,8.1093,8.1093,8.1093,8.1093,8.1093,8.1093,8.1093,8.1093,8.1093,8.1093,8.1093,8.0939,8.0089,7.9858,7.9667,7.8788,7.7982,7.7405,7.7328,7.6672,7.6053,7.6015,7.6015,7.6015,7.6015,7.6015,7.6015,7.6015,7.6015,7.6015,7.6015,7.6015,7.6015,7.6015,7.6015,7.6015,7.6015,7.6015,7.6015,7.6015,7.6015,7.6015,7.6015,7.6015,7.5619,7.4786,7.4707,7.396,7.2356,7.2283,7.1851,7.0977,7.0977,7.0938,7.0898,7.0898,7.0502,7.0667,7.0744,7.086,7.0667,7.0746,7.0898,7.0898,7.0898,7.0898,7.0898,7.0898,7.1092,7.1748,7.1323,7.1398,7.2934,7.3355,7.3776,7.4586,7.6015,7.7057,7.7288,7.84,7.9319,7.9742,8.0398,8.0783,8.0783,8.0977,8.1093,8.1093,8.1093,8.1093,8.1093,8.1093,8.1093,8.1093,8.1093,8.1093,8.1093,8.1093,8.1093,8.1093,8.1093,8.1093,8.1093,8.1093,8.1093,8.1093,8.1093,8.1093,8.1093,8.1093,8.1093,8.1093,8.1093,8.1093,8.1093,8.1093,8.1093,8.1093,8.1093,8.1093,8.1093,8.1093,8.1093,8.1054,8.0821,8.0783,8.0554,7.9706,7.9321,7.8859,7.7596,7.7136,7.6788,7.6132,7.6015,7.6015,7.6015,7.6015,7.6015,7.6015,7.6015,7.6015,7.6015,7.6015,7.6015,7.6015,7.6015,7.6015,7.6015,7.6015,7.6015,7.6015,7.6015,7.6015,7.6015,7.6015,7.5896,7.5698,7.5024,7.4482,7.4072,7.3476,7.2723,7.1851,7.1851,7.1533,7.0898,7.0898,7.0779,7.0898,7.0898,7.0898,7.0898,7.0898,7.0898,7.0898,7.0898,7.0898,7.0898,7.0898,7.1169,7.2056,7.1479,7.1589,7.3701,7.3738,7.3892,7.5088,7.644,7.7444,7.779,7.8977,7.9935,8.0321,8.0821,8.1093,8.1093,8.1093,8.1093,8.1093,8.1093,8.1093,8.1093,8.1093,8.1093,8.1093,8.1093,8.1093,8.1093,8.1477,8.1631,8.1631,8.2018,8.1979,8.1631,8.1631,8.1441,8.1093,8.1093,8.1093,8.1093,8.1093,8.1093,8.1093,8.1093,8.1093,8.1093,8.1093,8.1093,8.1093,8.1093,8.1093,8.1093,8.1093,8.1093,8.1093,8.1093,8.1093,8.0977,8.0514,8.0089,7.9473,7.8136,7.7559,7.7059,7.6207,7.6015,7.6015,7.6015,7.6015,7.6015,7.6015,7.6015,7.6015,7.6015,7.6015,7.6015,7.6015,7.6015,7.6015,7.6015,7.6015,7.6015,7.6015,7.6015,7.6015,7.6015,7.6015,7.6015,7.6015,7.5538,7.5103,7.4705,7.4249,7.3607,7.2773,7.2383,7.1968,7.1454,7.1096,7.0898,7.0898,7.0898,7.0898,7.0898,7.0898,7.0898,7.0898,7.0898,7.0898,7.0898,7.0977,7.1323,7.221,7.1746,7.2051,7.4472,7.4201,7.4203,7.5784,7.6826,7.7713,7.8405,7.9361,8.0283,8.1016,8.1093,8.1093,8.1093,8.1093,8.1093,8.1093,8.1093,8.1093,8.1093,8.1093,8.1131,8.1246,8.1246,8.1323,8.1441,8.2133,8.2479,8.2518,8.3253,8.3174,8.2479,8.2364,8.1902,8.1246,8.1131,8.1093,8.1093,8.1093,8.1093,8.1093,8.1093,8.1093,8.1093,8.1093,8.1093,8.1093,8.1093,8.1093,8.1093,8.1093,8.1093,8.1093,8.1093,8.1093,8.1093,8.1093,8.0552,7.9706,7.8713,7.7982,7.7174,7.6209,7.6015,7.6015,7.6015,7.6015,7.6015,7.6015,7.6015,7.6055,7.6174,7.6174,7.6214,7.6332,7.6134,7.6015,7.6015,7.6015,7.6015,7.6015,7.6015,7.6015,7.6015,7.6015,7.6015,7.6015,7.6015,7.5658,7.4903,7.4865,7.4467,7.3673,7.2895,7.2431,7.2167,7.1414,7.1017,7.0898,7.0898,7.0898,7.0898,7.0898,7.0898,7.0898,7.0898,7.0898,7.0898,7.1477,7.2248,7.3126,7.3163,7.3665,7.5474,7.5049,7.4857,7.5861,7.7326,7.833,7.8482,7.9902,8.0939,8.1093,8.1093,8.1093,8.1093,8.1093,8.1093,8.1093,8.1093,8.1093,8.1093,8.1093,8.1402,8.2095,8.2093,8.2443,8.3176,8.3291,8.3368,8.3368,8.3522,8.3522,8.333,8.2595,8.221,8.2056,8.1362,8.1093,8.1093,8.1093,8.1093,8.1093,8.1093,8.1093,8.1093,8.1093,8.1093,8.1093,8.1093,8.1093,8.1093,8.1093,8.1093,8.1093,8.1093,8.1093,8.1093,8.1093,8.0977,8.0477,7.8867,7.8407,7.7867,7.6324,7.6015,7.6015,7.6015,7.6015,7.6015,7.6015,7.6015,7.6253,7.6967,7.7085,7.7323,7.7997,7.6848,7.6015,7.6015,7.6015,7.6015,7.6015,7.6015,7.6015,7.6015,7.6015,7.6015,7.6015,7.6015,7.5936,7.5777,7.5777,7.5341,7.4508,7.433,7.3549,7.2207,7.2048,7.1573,7.0898,7.0898,7.0898,7.0898,7.0898,7.0898,7.0898,7.0898,7.0898,7.0898,7.1592,7.2479,7.3355,7.3507,7.4047,7.5744,7.528,7.5011,7.5861,7.7442,7.8484,7.8484,8.0056,8.1093,8.1093,8.1093,8.1093,8.1093,8.1093,8.1093,8.1093,8.1093,8.1285,8.171,8.171,8.2133,8.2984,8.2984,8.3174,8.3601,8.4057,8.4286,8.4286,8.4711,8.4672,8.4247,8.3822,8.3131,8.2287,8.1864,8.1479,8.1093,8.1093,8.1093,8.1093,8.1093,8.1093,8.1093,8.1093,8.1093,8.1093,8.1093,8.1093,8.1093,8.1093,8.1093,8.1093,8.1093,8.1093,8.1093,8.1093,8.1093,8.0669,7.8906,7.7828,7.6978,7.6169,7.6015,7.6015,7.6015,7.6015,7.6015,7.6015,7.6372,7.6808,7.7244,7.7673,7.8073,7.8433,7.7796,7.7302,7.7317,7.7284,7.7125,7.6729,7.6689,7.6491,7.6016,7.6015,7.6015,7.6015,7.6015,7.6015,7.6015,7.6015,7.5778,7.5381,7.4905,7.4059,7.2879,7.2419,7.1732,7.0898,7.0898,7.0898,7.0898,7.0898,7.0898,7.0898,7.0898,7.0898,7.0898,7.1592,7.2479,7.3355,7.3624,7.424,7.5745,7.5436,7.5203,7.5897,7.7442,7.8484,7.8484,8.0056,8.1093,8.1093,8.1093,8.1093,8.1093,8.1246,8.1364,8.1364,8.1364,8.1749,8.2556,8.2597,8.2982,8.3866,8.3868,8.3982,8.4136,8.4822,8.5166,8.5164,8.582,8.5743,8.5128,8.4782,8.3822,8.2556,8.2172,8.167,8.1093,8.1093,8.1093,8.1093,8.1093,8.1093,8.1093,8.1093,8.1093,8.1093,8.1093,8.1093,8.1093,8.1093,8.1093,8.1093,8.1093,8.1093,8.1093,8.1093,8.1093,8.0669,7.8906,7.7365,7.6247,7.6053,7.6015,7.6015,7.6015,7.6015,7.6055,7.6253,7.6848,7.7435,7.777,7.8369,7.8831,7.9029,7.9069,7.9062,7.9066,7.8718,7.8243,7.7609,7.7391,7.7008,7.6332,7.6095,7.6015,7.6015,7.6015,7.6015,7.6015,7.6015,7.6015,7.6015,7.5302,7.4548,7.3755,7.2872,7.2008,7.0898,7.0898,7.0898,7.0898,7.0898,7.0898,7.0898,7.0898,7.0898,7.0898,7.1592,7.2479,7.3355,7.4086,7.4895,7.5859,7.5938,7.5899,7.5976,7.7442,7.8484,7.8484,8.0056,8.1093,8.1093,8.1093,8.1093,8.1093,8.1787,8.2172,8.2172,8.2172,8.2597,8.3445,8.3484,8.3903,8.4782,8.4782,8.5168,8.5861,8.5938,8.5976,8.5976,8.6053,8.6053,8.5899,8.4366,8.3638,8.3368,8.1825,8.117,8.1093,8.1093,8.1093,8.1093,8.1093,8.1093,8.1093,8.1093,8.1093,8.1093,8.1093,8.1093,8.1093,8.1093,8.1093,8.1093,8.1093,8.1093,8.1093,8.1093,8.1093,8.0669,7.8906,7.7828,7.6942,7.6169,7.6015,7.6015,7.6015,7.6015,7.6253,7.7046,7.7244,7.7807,7.9337,7.9631,7.9981,8.0775,8.0854,8.0858,8.0868,7.944,7.8487,7.8408,7.7705,7.7284,7.7204,7.6451,7.6015,7.6015,7.6015,7.6015,7.6015,7.6015,7.6015,7.6015,7.5936,7.5421,7.4588,7.3745,7.2921,7.0898,7.0898,7.0898,7.0898,7.0898,7.0898,7.0898,7.0898,7.0898,7.0898,7.1592,7.2327,7.2631,7.3818,7.4817,7.5165,7.5667,7.6015,7.6015,7.7019,7.7944,7.8446,7.9594,8.0514,8.1054,8.1093,8.1285,8.1787,8.2133,8.2747,8.3822,8.3364,8.3482,8.436,8.4362,8.4784,8.5628,8.5628,8.5782,8.6089,8.6089,8.6089,8.6089,8.6089,8.6089,8.6051,8.4863,8.4095,8.3522,8.2326,8.1556,8.1093,8.1093,8.1093,8.1093,8.1093,8.1093,8.1093,8.1093,8.1093,8.1093,8.1093,8.1093,8.1093,8.1093,8.1093,8.1093,8.1093,8.1093,8.1093,8.1093,8.0706,8.0127,7.9438,7.8632,7.7944,7.7597,7.748,7.748,7.748,7.7502,7.7601,7.7959,7.8461,7.9038,7.9711,8.026,8.0696,8.1052,8.1093,8.1093,8.1093,8.0496,7.9861,7.9346,7.8989,7.8367,7.736,7.6967,7.6531,7.6015,7.6015,7.6015,7.6015,7.6015,7.6015,7.6015,7.6015,7.554,7.4707,7.4355,7.3495,7.0898,7.0898,7.0898,7.0898,7.0898,7.0898,7.0898,7.0898,7.0898,7.0898,7.14,7.1904,7.2135,7.317,7.4128,7.4626,7.5203,7.5707,7.5976,7.6747,7.7597,7.8407,7.9285,8.0127,8.1016,8.1093,8.1556,8.2595,8.2674,8.3439,8.5166,8.4672,8.4634,8.5243,8.5243,8.5512,8.6089,8.6089,8.6089,8.6089,8.6089,8.6089,8.6089,8.6089,8.5974,8.5705,8.486,8.4016,8.3137,8.2287,8.1593,8.1093,8.1093,8.1093,8.1093,8.1093,8.1093,8.1093,8.1093,8.1093,8.1093,8.1093,8.1093,8.1093,8.1093,8.1093,8.1093,8.1093,8.1093,8.1093,8.1093,8.0629,8.0127,7.9856,7.9323,7.8827,7.8561,7.8484,7.8484,7.8484,7.8509,7.8571,7.8848,7.9408,7.9902,8.014,8.0696,8.1093,8.1093,8.1093,8.1093,8.1093,8.1093,8.0854,8.026,7.9942,7.9181,7.775,7.7425,7.6927,7.6055,7.6015,7.6015,7.6015,7.6015,7.6015,7.6015,7.6015,7.5698,7.5064,7.4824,7.3811,7.0898,7.0898,7.0898,7.0898,7.0898,7.0898,7.0898,7.0898,7.0898,7.0898,7.0898,7.1169,7.2056,7.2211,7.2787,7.4434,7.4701,7.5011,7.5861,7.6747,7.7597,7.8407,7.9285,8.0127,8.1016,8.1093,8.1787,8.3445,8.3599,8.4328,8.6015,8.6089,8.6089,8.6089,8.6089,8.6089,8.6089,8.6089,8.6089,8.6089,8.6089,8.6089,8.6089,8.6089,8.5666,8.4858,8.3982,8.3135,8.2249,8.1439,8.1093,8.1093,8.1093,8.1093,8.1093,8.1093,8.1093,8.1093,8.1093,8.1093,8.1093,8.1093,8.1093,8.1093,8.1093,8.1093,8.1093,8.1093,8.1093,8.1093,8.1093,8.1093,8.0862,8.0012,7.9779,7.9552,7.8675,7.8484,7.8484,7.8484,7.8484,7.8761,7.9634,7.9783,8.01,8.0973,8.1093,8.1093,8.1093,8.1093,8.1093,8.1093,8.1093,8.1093,8.1093,8.03,7.9425,7.8554,7.7742,7.6927,7.6055,7.6015,7.6015,7.6015,7.6015,7.6015,7.6015,7.6015,7.6015,7.5976,7.5103,7.3811,7.0744,7.0898,7.0898,7.0898,7.0898,7.0898,7.0898,7.0898,7.0898,7.0898,7.0898,7.0977,7.1246,7.1787,7.2556,7.3703,7.4355,7.5011,7.5861,7.6245,7.694,7.833,7.9787,8.0785,8.1054,8.1093,8.1787,8.3484,8.3599,8.4328,8.6015,8.6089,8.6089,8.6089,8.6089,8.6089,8.6089,8.6089,8.6089,8.6089,8.6089,8.6089,8.6089,8.5512,8.5128,8.482,8.3364,8.2556,8.2249,8.1439,8.1093,8.1093,8.1093,8.1093,8.1093,8.1093,8.1093,8.1093,8.1093,8.1093,8.1093,8.1093,8.1093,8.1093,8.1093,8.1093,8.1093,8.1093,8.1093,8.1093,8.1093,8.1093,8.1016,8.0744,8.0706,8.0591,8.0325,8.0287,8.0287,8.0287,8.0287,8.0367,8.0644,8.0708,8.0775,8.1052,8.1093,8.1093,8.1093,8.1093,8.1093,8.1093,8.1093,8.1093,8.1093,8.0854,8.0061,7.8592,7.8257,7.7482,7.6055,7.6015,7.6015,7.6015,7.6015,7.6015,7.6015,7.6015,7.6015,7.5976,7.4548,7.3612,7.0204,7.0667,7.0898,7.0898,7.0898,7.0898,7.0898,7.0898,7.0898,7.0898,7.0898,7.0898,7.0898,7.1323,7.1977,7.2858,7.3703,7.4547,7.5396,7.5782,7.6632,7.829,8.0056,8.1093,8.1093,8.1093,8.1672,8.302,8.3407,8.4213,8.5551,8.5938,8.5974,8.5666,8.5938,8.5936,8.5666,8.5668,8.5476,8.5172,8.5172,8.5172,8.5132,8.4632,8.4245,8.386,8.2785,8.2133,0.0,8.1325,8.1093,8.1093,8.1093,8.1093,8.1093,8.1093,8.1093,8.1093,8.1093,8.1093,8.1093,8.1093,8.1093,8.1093,8.1093,8.1093,8.1093,8.1093,8.1093,8.1093,8.1093,8.1093,8.1093,8.1093,8.1093,8.1093,8.1093,8.1093,8.1093,8.1093,8.1093,8.1093,8.1093,8.1093,8.1093,8.1093,8.1093,8.1093,8.1093,8.1093,8.1093,8.1093,8.1093,8.1093,8.1093,8.1093,8.0377,7.8592,7.8495,7.7759,7.6055,7.6015,7.6015,7.6015,7.6015,7.6015,7.6015,7.6015,7.6015,7.5974,7.427,7.3493,0.0,7.0244,7.0898,7.0898,7.0898,7.0898,7.0898,7.0898,0.0,7.0898,7.0898,7.0898,7.0898,7.0898,7.1208,7.2058,7.2935,7.3776,7.4586,7.5551,7.6747,7.829,8.0056,8.1093,8.1093,8.1093,8.1439,8.2249,8.3058,8.3905,8.4743,8.5512,8.5589,8.482,8.5512,8.5553,8.482,8.482,8.4401,8.3599,8.3599,8.3599,8.3599,8.3522,8.3058,8.2287,8.2249,8.1785,8.1093,8.1093,8.1093,8.1093,8.1093,8.1093,8.1093,8.1093,8.1093,8.1093,8.1093,8.1093,8.1093,8.1093,8.1093,8.1093,8.1093,8.1093,8.1093,8.1093,8.1093,8.1093,8.1093,8.1093,8.1093,8.1093,8.1093,8.1093,8.1093,8.1093,8.1093,8.1093,8.1093,8.1093,8.1093,8.1093,8.1093,8.1093,8.1093,8.1093,8.1093,8.1093,8.1093,8.1093,8.1093,8.1093,8.1093,8.1052,8.0298,7.8592,7.8455,7.768,7.6055,7.6015,7.6015,7.6015,7.6015,7.6015,7.6015,7.6015,7.5976,7.5857,7.427,7.3454,6.847,0.0,7.0898,7.0898,7.0898,7.0898,0.0,7.0898,7.0898,7.0898,7.0898,7.0898,7.0898,7.0898,7.1208,7.2058,7.2935,7.3776,7.4586,7.6555,7.8059,7.8446,8.0056,8.1093,8.1093,8.1093,8.1439,8.2249,8.2479,8.2982,8.3866,8.4097,8.4097,8.3905,8.4097,8.4097,8.3905,8.3905,8.3789,8.3599,8.3599,8.3599,8.3561,8.2907,8.2479,8.2287,8.1633,8.1285,8.1093,8.1093,8.1093,8.1093,8.1093,8.1093,8.1093,8.1093,8.1093,8.1093,8.1093,8.1093,8.1093,8.1093,8.1093,8.1093,8.1093,8.1093,8.1093,8.1093,8.1093,8.1093,8.1093,8.1093,8.1093,8.1093,8.1093,8.1093,8.1093,8.1093,8.1093,8.1093,8.1093,8.1093,8.1093,8.1093,8.1093,8.1093,8.1093,8.1093,8.1093,8.1093,8.1093,8.1093,8.1093,8.1093,8.1093,8.0498,7.9663,7.8554,7.7902,7.7125,7.6055,7.6015,7.6015,7.6015,7.6015,7.6015,7.6015,7.6015,7.5658,7.4984,7.3953,7.3136,6.8162,6.9356,7.0437,7.0823,7.0898,7.0898,7.0898,7.0898,7.0898,7.0898,7.0898,7.0898,7.0898,7.0898,7.1054,7.1516,7.2664,7.3932,7.5128,7.7132,7.8484,7.8484,8.0056,8.1093,8.1093,8.1093,8.1285,8.171,8.2093,8.252,8.2984,8.3368,8.3407,8.302,8.2982,8.2982,8.2982,8.2982,8.2828,8.2443,8.2443,8.2443,8.2443,8.1941,8.1747,8.1749,8.1285,8.1093,8.1093,8.1093,8.1093,8.1093,8.1093,8.1093,8.1093,8.1093,8.1093,8.1093,8.1093,8.1093,8.1093,8.1093,8.1093,8.1093,8.1093,8.1093,8.1093,8.1093,8.1093,8.1093,8.1093,8.1093,8.1093,8.1093,8.1093,8.1093,8.1093,8.1093,8.1093,8.1093,8.1093,8.1093,8.1093,8.1093,8.1093,8.1093,8.1093,8.1093,8.1093,8.1093,8.1093,8.1093,8.0735,8.0498,8.0498,7.9386,7.8614,7.8506,7.773,7.6927,7.6055,7.6015,7.6015,7.6015,7.6015,7.6015,7.6015,7.6015,7.554,7.4669,7.3883,7.3026,6.7971,6.8856,6.9741,7.0667,7.0898,7.0898,7.0898,7.0898,7.0898,7.0898,7.0898,7.0898,7.0898,7.0898,7.0898,7.0898,7.2357,7.4088,7.5745,7.7442,7.8484,7.8484,8.0056,8.1093,8.1093,8.1093,8.1093,8.1093,8.1648,8.1958,8.1958,8.2654,8.273,8.1996,8.2059,8.2133,8.2133,8.2133,8.1787,8.1093,8.1093,8.1093,8.1093,8.1093,8.1093,8.1093,8.1093,8.1093,8.1093,8.1093,8.1093,8.1093,8.1093,8.1093,8.1093,8.1093,8.1093,8.1093,8.1093,8.1093,8.1093,8.1093,8.1093,8.1093,8.1093,8.1093,8.1093,8.1093,8.1093,8.1093,8.1093,8.1093,8.1093,8.1093,8.1093,8.1093,8.1093,8.1093,8.1093,8.1093,8.1093,8.1093,8.1093,8.1093,8.1093,8.1093,8.1093,8.1093,8.1093,8.1093,8.1052,8.0933,8.026,7.975,7.9608,7.8181,7.7585,7.827,7.7561,7.6769,7.6016,7.6015,7.6015,7.6015,7.6015,7.6015,7.6015,7.5857,7.5341,7.4509,7.3665,7.284,6.7093,6.7935,6.897,7.0512,7.0898,7.0898,7.0898,7.0898,7.0898,7.0898,7.0898,7.0898,7.0898,7.0898,7.0898,7.0898,7.2357,7.4088,7.5745,7.7442,7.8484,7.8484,8.0056,8.1093,8.1093,8.1093,8.1093,8.1093,8.0701,8.0428,8.0428,8.0545,8.0583,8.0428,8.0977,8.1285,8.1285,8.1285,8.1208,8.1093,8.1093,8.1093,8.1093,8.1093,8.1093,8.1093,8.1093,8.1093,8.1093,8.1093,8.1093,8.1093,8.1093,8.1093,8.1093,8.1093,8.1093,8.1093,8.1093,8.1093,8.1093,8.1093,8.1093,8.1093,8.1093,8.1093,8.1093,8.1093,8.1093,8.1093,8.1093,8.1093,8.1093,8.1093,8.1093,8.1093,8.1093,8.1093,8.1093,8.1093,8.1093,8.1093,8.1093,8.1093,8.1093,8.1093,8.1093,8.1093,8.1093,8.1093,8.0816,8.0061,7.9863,7.9504,7.876,7.7854,7.7347,7.748,7.6689,7.6134,7.6015,7.6015,7.6015,7.6015,7.6015,7.6015,7.6015,7.5262,7.4469,7.3675,7.2794,7.1929,6.6864,6.7742,6.8699,6.9935,7.0591,7.0898,7.0898,7.0898,7.0898,7.0898,7.0898,7.0898,7.0898,7.0898,7.1206,7.2164,7.297,7.4088,7.5745,7.7442,7.8484,7.8484,8.0056,8.1093,8.1093,8.0762,8.0577,8.0577,7.9959,7.9605,7.9605,7.9605,7.9745,8.0108,8.0384,8.0737,8.1091,8.1093,8.1093,8.1093,8.1093,8.1093,8.1093,8.1093,8.1093,8.1093,8.1093,8.1093,8.1093,8.1093,8.1093,8.1093,8.1093,8.1093,8.1093,8.1093,8.1093,8.1093,8.1093,8.1093,8.1093,8.1093,8.1093,8.1093,8.1093,8.1093,8.1093,8.1093,8.1093,8.1093,8.1093,8.1093,8.1093,8.1093,8.1093,8.1093,8.1093,8.1093,8.1093,8.1093,8.1093,8.1093,8.1093,8.1093,8.1093,8.1093,8.1093,8.0933,8.0458,8.0417,8.0061,7.9188,7.8723,7.8303,7.7876,7.7086,7.661,7.661,7.6214,7.6015,7.6015,7.6015,7.6015,7.6015,7.6015,7.6015,7.6015,7.5143,7.4299,7.3485,7.262,7.1732,6.6631,6.759,6.8547,6.9241,7.0166,7.0898,7.0898,7.0898,7.0898,7.0898,7.0792,7.0757,7.0883,7.1052,7.1704,7.324,7.3661,7.4248,7.558,7.722,7.8297,7.8303,7.9833,8.0863,8.0863,8.0384,8.0028,7.9903,7.933,7.898,7.898,7.898,7.9198,7.9648,7.9951,8.0343,8.0861,8.1005,8.1093,8.1093,8.1093,8.1093,8.1093,8.1093,8.1093,8.1093,8.1093,8.1093,8.1093,8.1093,8.1093,8.1093,8.1093,8.1093,8.1093,8.1093,8.1093,8.1093,8.1093,8.1093,8.1093,8.1093,8.1093,8.1093,8.1093,8.1093,8.1093,8.1093,8.1093,8.1093,8.1093,8.1093,8.1093,8.1093,8.1093,8.1093,8.1093,8.1093,8.1093,8.1093,8.1093,8.1093,8.1093,8.1093,8.1093,8.1093,8.0933,8.0537,7.9902,7.9606,7.9185,7.8312,7.7671,7.7206,7.7008,7.6372,7.6015,7.6015,7.6015,7.6015,7.6015,7.6015,7.6015,7.6015,7.6015,7.5896,7.5698,7.4826,7.4007,7.3159,7.2286,7.1533,6.5977,6.7165,6.843,6.8468,6.9702,7.0898,7.0898,7.0898,7.0898,7.0898,7.0501,7.0312,7.0798,7.1556,7.2402,7.3353,7.4124,7.4729,7.5097,7.6624,7.7693,7.7758,7.9193,8.017,8.017,8.0139,7.9875,7.931,7.8707,7.8345,7.8345,7.8345,7.8369,7.8418,7.9505,8.0134,8.017,8.0773,8.1093,8.1093,8.1093,8.1093,8.1093,8.1093,8.1093,8.1093,8.1093,8.1093,8.1093,8.1093,8.1093,8.1093,8.1093,8.1093,8.1093,8.1093,8.1093,8.1093,8.1093,8.1093,8.1093,8.1093,8.1093,8.1093,8.1093,8.1093,8.1093,8.1093,8.1093,8.1093,8.1093,8.1093,8.1093,8.1093,8.1093,8.1093,8.1093,8.1093,8.1093,8.1093,8.1093,8.1093,8.1093,8.1093,8.1093,8.1093,8.0417,7.9863,7.9823,7.9076,7.8265,7.7471,7.7319,7.6967,7.6174,7.6055,7.6015,7.6015,7.6015,7.6015,7.6015,7.6015,7.6015,7.6015,7.6015,7.5617,7.4786,7.3991,7.3134,7.2286,7.1414,7.0977,6.59,6.6879,6.7976,6.8334,6.9413,7.049,7.0808,7.0898,7.0898,7.0898,7.0478,7.0154,7.0356,7.1097,7.2057,7.3314,7.3564,7.3989,7.4967,7.6219,7.7199,7.7632,7.9102,8.0115,8.0115,7.9742,7.929,7.8682,7.8035,7.7669,7.7669,7.7669,7.7857,7.8289,7.9099,7.9706,8.0113,8.0758,8.1093,8.1093,8.1093,8.1093,8.1093,8.1093,8.1093,8.1093,8.1093,8.1093,8.1093,8.1093,8.1093,8.1093,8.1093,8.1093,8.1093,8.1093,8.1093,8.1093,8.1093,8.1093,8.1093,8.1093,8.1093,8.1093,8.1093,8.1093,8.1093,8.1093,8.1093,8.1093,8.1093,8.1093,8.1093,8.1093,8.1093,8.1093,8.1093,8.1093,8.1093,8.1093,8.1093,8.1093,8.1093,8.0656,8.0298,8.0298,7.9546,7.8815,7.8327,7.7973,7.7442,7.6572,7.6491,7.6372,7.6016,7.6015,7.6015,7.6015,7.6015,7.6015,7.6015,7.6015,7.6015,7.6015,7.546,7.5024,7.4705,7.3346,7.2526,7.2167,7.1295,7.0898,6.5659,6.6607,6.7679,6.8044,6.9132,7.0183,7.0547,7.0645,7.0609,7.044,7.0252,7.0133,7.0203,7.1042,7.2115,7.3426,7.3505,7.3847,7.5069,7.592,7.6756,7.7663,7.881,7.9594,7.9811,7.927,7.8659,7.8048,7.7566,7.7285,7.7285,7.7285,7.7506,7.797,7.8757,7.94,7.9827,8.0688,8.1093,8.1093,8.1093,8.1093,8.1093,8.1093,8.1093,8.1093,8.1093,8.1093,8.1093,8.1093,8.1093,8.1093,8.1093,8.1093,8.1093,8.1093,8.1093,8.1093,8.1093,8.1093,8.1093,8.1093,8.1093,8.1093,8.1093,8.1093,8.1093,8.1093,8.1093,8.1093,8.1093,8.1093,8.1093,8.1093,8.1093,8.1093,8.1093,8.1093,8.1093,8.1093,8.0894,8.0696,8.0696,7.9981,7.9396,7.9392,7.8683,7.7916,7.7356,7.7046,7.665,7.6055,7.6015,7.6015,7.6015,7.6015,7.6015,7.6015,7.6015,7.6015,7.6015,7.6015,7.5857,7.5579,7.4984,7.4443,7.3925,7.2767,7.2048,7.1772,7.1176,7.0898,6.5105,6.6329,6.759,6.759,6.8838,7.0091,7.0091,7.0097,6.9932,6.9418,6.9724,7.0174,7.0438,7.1641,7.2888,7.3749,7.4116,7.4581,7.5371,7.5648,7.6349,7.782,7.8176,7.8546,7.9134,7.864,7.8034,7.7346,7.7285,7.7285,7.7285,7.7285,7.7285,7.7285,7.8541,7.9198,7.9204,8.0447,8.1089,8.1093,8.1093,8.1093,8.1093,8.1093,8.1093,8.1093,8.1093,8.1093,8.1093,8.1093,8.1093,8.1093,8.1093,8.1093,8.1093,8.1093,8.1093,8.1093,8.1093,8.1093,8.1093,8.1093,8.1093,8.1093,8.1093,8.1093,8.1093,8.1093,8.1093,8.1093,8.1093,8.1093,8.1093,8.1093,8.1093,8.1093,8.1093,8.1093,8.1093,8.1093,8.0379,7.9782,7.9784,7.9071,7.8471,7.8498,7.7799,7.7284,7.7284,7.6531,7.6015,7.6015,7.6015,7.6015,7.6015,7.6015,7.6015,7.6015,7.6015,7.6015,7.6015,7.6015,7.5579,7.4707,7.4707,7.3886,7.2207,7.2207,7.1732,7.0898,7.0898,7.0898,6.5184,6.6038,6.7025,6.7051,6.802,6.8975,6.8975,6.9574,6.9932,6.9418,6.9435,6.9607,6.9892,7.0741,7.1961,7.364,7.34,7.342,7.4511,7.4946,7.5507,7.6406,7.7553,7.8352,7.8562,7.8395,7.8034,7.7346,7.7285,7.7285,7.7285,7.7285,7.7285,7.7285,7.8128,7.8779,7.9198,8.0014,8.0628,8.1093,8.1093,8.1093,8.1093,8.1093,8.1093,8.1093,8.1093,8.1093,8.1093,8.1093,8.1093,8.1093,8.1093,8.1093,8.1093,8.1093,8.1093,8.1093,8.1093,8.1093,8.1093,8.1093,8.1093,8.1093,8.1093,8.1093,8.1093,8.1093,8.1093,8.1093,8.1093,8.1093,8.1093,8.1093,8.1093,8.1093,8.1093,8.0617,8.0181,8.0181,7.9465,7.8894,7.889,7.819,7.7645,7.7675,7.6927,7.6372,7.6372,7.6174,7.6015,7.6015,7.6015,7.6015,7.6015,7.6015,7.6015,7.6015,7.6015,7.6015,7.6015,7.6015,7.5579,7.4707,7.4146,7.3325,7.2207,7.1573,7.1138,7.0898,7.0898,7.0898,6.4601,6.5495,6.6527,6.6513,6.7516,6.8511,6.8511,6.8825,6.913,6.8999,6.9233,6.9608,7.0089,7.0824,7.1902,7.3446,7.3046,7.2951,7.4238,7.4704,7.5285,7.6245,7.7279,7.8016,7.8275,7.8076,7.7735,7.7323,7.7285,7.7285,7.7285,7.7285,7.7285,7.7285,7.7953,7.8474,7.8856,7.9663,8.031,8.0718,8.0973,8.1093,8.1093,8.1093,8.1093,8.1093,8.1093,8.1093,8.1093,8.1093,8.1093,8.1093,8.1093,8.1093,8.1093,8.1093,8.1093,8.1093,8.1093,8.1093,8.1093,8.1093,8.1093,8.1093,8.1093,8.1093,8.1093,8.1093,8.1093,8.1093,8.1093,8.1093,8.1093,8.1093,8.1093,8.1014,8.0656,8.0179,7.9715,7.9361,7.8617,7.8002,7.8027,7.7325,7.6769,7.6769,7.6333,7.6015,7.6015,7.6015,7.6015,7.6015,7.6015,7.6015,7.6015,7.6015,7.6015,7.6015,7.6015,7.5855,7.55,7.5498,7.5103,7.4229,7.3422,7.2564,7.1692,7.1176,7.0898,7.0898,7.0898,7.0898,6.3607,6.4834,6.6075,6.6055,6.7252,6.8425,6.8425,6.804,6.7863,6.8383,6.9094,6.9864,7.0698,7.147,7.2319,7.3239,7.2875,7.2979,7.4284,7.4721,7.5407,7.6743,7.7156,7.754,7.8139,7.7644,7.7285,7.7285,7.7285,7.7285,7.7285,7.7285,7.7285,7.7285,7.7882,7.8238,7.8306,7.938,7.9959,8.0016,8.0705,8.0997,8.0997,8.0997,8.0975,8.0941,8.0979,8.0997,8.0999,8.1077,8.1093,8.1093,8.1093,8.1093,8.1093,8.1093,8.1093,8.1093,8.1093,8.1093,8.1093,8.1093,8.1093,8.1093,8.1093,8.1093,8.1093,8.1093,8.1093,8.1093,8.1016,8.0977,8.0977,8.0898,8.0935,8.0735,7.9863,7.9631,7.935,7.8534,7.7721,7.7165,7.7165,7.6531,7.6015,7.6015,7.6015,7.6015,7.6015,7.6015,7.6015,7.6015,7.6015,7.6015,7.6015,7.6015,7.6015,7.6015,7.5936,7.5538,7.4746,7.4705,7.4275,7.3409,7.2594,7.177,7.0898,7.0898,7.0898,7.0898,7.0898,7.0898,6.3827,6.4774,6.5926,6.5576,6.6667,6.7852,6.7852,6.777,6.7863,6.8383,6.8802,6.9309,7.0119,7.0919,7.1884,7.3204,7.2875,7.2762,7.356,7.4359,7.5011,7.5334,7.6514,7.7354,7.7491,7.7388,7.7285,7.7285,7.7285,7.7285,7.7285,7.7285,7.7285,7.7285,7.7457,7.7775,7.8299,7.8569,7.8905,7.9403,8.0001,8.032,8.032,8.032,8.0066,7.9651,8.0113,8.032,8.0352,8.0876,8.1093,8.1093,8.1093,8.1093,8.1093,8.1093,8.1093,8.1093,8.1093,8.1093,8.1093,8.1093,8.1093,8.1093,8.1093,8.1093,8.1093,8.1093,8.1093,8.0937,8.0242,8.0089,7.9892,7.9227,7.9565,7.9823,7.8988,7.8262,7.7772,7.7596,7.6887,7.6293,7.6293,7.6134,7.6015,7.6015,7.6015,7.6015,7.6015,7.6015,7.6015,7.6015,7.6015,7.6015,7.6015,7.6015,7.6015,7.6015,7.5341,7.4905,7.4705,7.4705,7.3991,7.2528,7.2314,7.177,7.0898,7.0898,7.0898,7.0898,7.0898,7.0898,6.336,6.4438,6.5798,6.6304,6.707,6.77,6.77,6.77,6.7874,6.8558,6.9118,6.9706,7.0547,7.131,7.2106,7.2835,7.2718,7.2595,7.2916,7.4063,7.4907,7.4907,7.6335,7.7285,7.7285,7.7285,7.7285,7.7285,7.7285,7.7285,7.7285,7.7285,7.7285,7.7285,7.7285,7.7454,7.7833,7.8128,7.8589,7.9213,7.9827,7.9949,7.9666,7.9964,7.9929,7.9624,7.9648,7.9845,8.0137,8.0479,8.0828,8.1093,8.1093,8.1093,8.1093,8.1093,8.1093,8.1093,8.1093,8.1093,8.1093,8.1093,8.1093,8.1093,8.1093,8.0821,8.0475,8.0475,8.0171,7.975,7.9286,7.9163,7.896,7.8112,7.8573,7.8946,7.8121,7.7606,7.7165,7.6768,7.6293,7.6015,7.6015,7.6015,7.6015,7.6015,7.6015,7.6015,7.6015,7.6015,7.6015,7.6015,7.6015,7.6015,7.6015,7.6015,7.5817,7.5381,7.4945,7.4334,7.3551,7.3512,7.3103,7.2206,7.1772,7.1335,7.0898,7.0898,7.0898,7.0898,7.0898,7.0898,6.2824,6.4004,6.5698,6.729,6.77,6.77,6.77,6.77,6.7954,6.8895,6.9633,7.033,7.116,7.1971,7.2492,7.2492,7.2492,7.2492,7.2492,7.3883,7.4907,7.4907,7.6335,7.7285,7.7285,7.7285,7.7285,7.7285,7.7285,7.7285,7.7285,7.7285,7.7285,7.7285,7.7285,7.7285,7.7285,7.7835,7.8382,7.888,7.9494,7.9573,7.9216,7.96,7.9711,7.9594,7.9216,7.9327,7.9816,8.0003,8.0441,8.0951,8.1063,8.1093,8.1093,8.1093,8.1093,8.1093,8.1093,8.1093,8.1093,8.1093,8.1016,8.0898,8.0898,8.0283,7.9588,7.9588,7.9056,7.8482,7.8327,7.8273,7.8108,7.7271,7.759,7.7887,7.7203,7.7064,7.6848,7.6134,7.6015,7.6015,7.6015,7.6015,7.6015,7.6015,7.6015,7.6015,7.6015,7.6015,7.6015,7.6015,7.6015,7.5936,7.5778,7.5777,7.5419,7.4548,7.4367,7.3663,7.2244,7.2048,7.197,7.197,7.1256,7.0898,7.0898,7.0898,7.0898,7.0898,7.0898,7.0898,6.2947,6.4004,6.5698,6.729,6.77,6.77,6.77,6.77,6.8141,6.9636,7.004,7.033,7.116,7.1971,7.2492,7.2492,7.2492,7.2492,7.2492,7.3883,7.4907,7.4907,7.6335,7.7285,7.7285,7.7285,7.7285,7.7285,7.7285,7.7285,7.7285,7.7285,7.7285,7.7285,7.7285,7.7285,7.7285,7.7392,7.7465,7.7544,7.8204,7.8779,7.9187,7.8745,7.8207,7.7687,7.8214,7.8464,7.8602,7.9653,8.0156,8.0301,8.0869,8.1093,8.1093,8.1093,8.1093,8.1093,8.1093,8.1093,8.1093,8.1093,8.0591,7.9971,7.9971,7.9361,7.8675,7.8675,7.8598,7.8327,7.7623,7.7463,7.7235,7.6396,7.6245,7.628,7.6194,7.6163,7.6134,7.6015,7.6015,7.6015,7.6015,7.6015,7.6015,7.6015,7.6015,7.6015,7.6015,7.6015,7.6015,7.6015,7.6015,7.5698,7.4943,7.4865,7.4546,7.3713,7.2967,7.2431,7.2207,7.1454,7.1057,7.1057,7.0977,7.0898,7.0898,7.0898,7.0898,7.0898,7.0898,7.0898,6.4009,6.4738,6.5698,6.729,6.77,6.77,6.77,6.77,6.8178,6.9783,7.0113,7.0477,7.1754,7.2268,7.2492,7.2492,7.2492,7.2492,7.2492,7.3883,7.4907,7.4907,7.6335,7.7285,7.7285,7.7285,7.7285,7.7285,7.7285,7.7285,7.7285,7.7285,7.7285,7.7285,7.7285,7.7285,7.7285,7.7285,7.748,7.7857,7.8486,7.8773,7.8682,7.8412,7.8128,7.7842,7.7782,7.7953,7.8386,7.9233,7.9773,8.0168,8.0845,8.1093,8.1093,8.1093,8.1093,8.1093,8.1093,8.0783,8.0358,8.0358,7.9785,7.9056,7.9056,7.848,7.7826,7.7821,7.7476,7.7017,7.6665,7.6586,7.6473,7.6092,7.6015,7.6015,7.6015,7.6015,7.6015,7.6015,7.6015,7.6015,7.6015,7.6015,7.6015,7.6015,7.6015,7.6015,7.6015,7.6015,7.6015,7.6015,7.5579,7.5103,7.4746,7.4285,7.3684,7.2811,7.2419,7.197,7.1494,7.1097,7.0898,7.0898,7.0898,7.0898,7.0898,7.0898,7.0898,7.0898,7.0898,7.0898,6.4848,6.5291,6.5698,6.729,6.77,6.77,6.77,6.77,6.8101,6.9526,6.9966,7.0517,7.1941,7.2345,7.2492,7.2492,7.2492,7.2492,7.2492,7.37,7.4654,7.487,7.6151,7.7065,7.7285,7.7285,7.7285,7.7285,7.7285,7.7285,7.7285,7.7285,7.7285,7.7285,7.7285,7.7285,7.7285,7.7285,7.7555,7.8065,7.8496,7.8473,7.8058,7.8058,7.8058,7.8027,7.7514,7.7673,7.8363,7.8938,7.9551,8.0168,8.0845,8.1093,8.1093,8.1093,8.1093,8.1054,8.0862,8.0321,7.9742,7.9552,7.8902,7.8215,7.8215,7.7634,7.6978,7.6969,7.6509,7.6015,7.6015,7.6015,7.6015,7.6015,7.6015,7.6015,7.6015,7.6015,7.6015,7.6015,7.6015,7.6015,7.6015,7.6015,7.6015,7.6015,7.6015,7.6015,7.6015,7.5817,7.5659,7.5659,7.4905,7.4319,7.4072,7.3511,7.2802,7.1929,7.1851,7.1573,7.0938,7.0898,7.0898,7.0898,7.0898,7.0898,7.0898,7.0898,7.0898,7.0898,7.0898,7.0898,6.4848,6.5291,6.5698,6.729,6.77,6.77,6.77,6.77,6.7954,6.8785,6.9559,7.0367,7.1197,7.1975,7.2492,7.2492,7.2492,7.2492,7.2492,7.323,7.4041,7.4797,7.5649,7.6452,7.7248,7.7285,7.7285,7.7285,7.7285,7.7285,7.7285,7.7285,7.7285,7.7285,7.7285,7.7285,7.7285,7.7285,7.7304,7.7346,7.7392,7.7388,7.7346,7.7346,7.7346,7.7346,7.73,7.7673,7.8363,7.8938,7.9551,8.0168,8.0845,8.1093,8.1093,8.1093,8.1093,8.0977,8.0165,7.9856,7.9665,7.8827,7.8021,7.7367,7.7367,7.6747,7.6053,7.6053,7.6015,7.6015,7.6015,7.6015,7.6015,7.6015,7.6015,7.6015,7.6015,7.6015,7.6015,7.6015,7.6015,7.6015,7.6015,7.6015,7.6015,7.6015,7.6015,7.6015,7.6015,7.5262,7.4784,7.4784,7.4032,7.3239,7.2388,7.2283,7.1891,7.1017,7.0977,7.0938,7.0898,7.0898,7.0898,7.0898,7.0898,7.0898,7.0898,7.0898,7.0898,7.0898,7.0898,7.0898,6.4848,6.5291,6.5698,6.729,6.77,6.77,6.77,6.77,6.7914,6.8748,6.9112,6.9736,7.105,7.1971,7.2492,7.2492,7.2492,7.2492,7.2492,7.3197,7.3824,7.4114,7.4841,7.5645,7.6452,7.6526,7.6742,7.7248,7.7285,7.7285,7.7285,7.7285,7.7285,7.7285,7.7285,7.7285,7.7285,7.7285,7.7285,7.7285,7.7285,7.7285,7.7285,7.7285,7.7285,7.7285,7.7285,7.7453,7.771,7.8355,7.8965,7.9578,8.0194,8.0726,8.1093,8.1093,8.0744,8.0206,7.9894,7.909,7.8132,7.7826,7.7172,7.6478,7.6478,7.6245,7.6015,7.6015,7.6015,7.6015,7.6015,7.6015,7.6015,7.6015,7.6015,7.6015,7.6015,7.6015,7.6015,7.6015,7.6015,7.6015,7.6015,7.6015,7.6015,7.6015,7.6015,7.5817,7.5222,7.4903,7.4495,7.3969,7.3182,7.2524,7.2242,7.1692,7.1216,7.0938,7.0898,7.0898,7.0898,7.0898,7.0898,7.0898,7.0898,7.0898,7.0898,7.0898,7.0898,7.0898,7.0898,7.0898,6.4924,6.5512,6.6032,6.7367,6.77,6.77,6.77,6.77,6.7844,6.8385,6.8711,6.9222,7.0283,7.1384,7.2195,7.2455,7.2492,7.2492,7.2492,7.2973,7.338,7.3678,7.4184,7.4801,7.5612,7.5685,7.6049,7.6848,7.6889,7.7032,7.7285,7.7285,7.7285,7.7285,7.7285,7.7285,7.7285,7.7285,7.7285,7.7285,7.7285,7.7285,7.7285,7.7285,7.7285,7.7285,7.7285,7.7441,7.7662,7.8104,7.8779,7.9538,7.9944,8.0346,8.0667,8.0667,8.0092,7.9323,7.9052,7.8246,7.7251,7.6942,7.6478,7.6015,7.6015,7.6015,7.6015,7.6015,7.6015,7.6015,7.6015,7.6015,7.6015,7.6015,7.6015,7.6015,7.6015,7.6015,7.6015,7.6015,7.6015,7.6015,7.6015,7.6015,7.5896,7.5619,7.5579,7.5262,7.4427,7.4024,7.3677,7.3111,7.2286,7.177,7.177,7.1216,7.0898,7.0898,7.0898,7.0898,7.0898,7.0898,7.0898,7.0898,7.0898,7.0898,7.0898,7.0898,7.0898,7.0898,7.0898,7.0898,0.0,0.0,0.0,6.7517,6.77,6.77,6.77,6.77,6.77,6.77,6.8314,6.8855,6.8892,7.0173,7.149,7.2309,7.2455,7.2492,7.2492,7.2492,7.2786,7.3567,7.3678,7.3968,7.4801,7.4867,7.5201,7.6016,7.6052,7.6416,7.7175,7.7248,7.7248,7.7248,7.7248,7.7244,7.7244,7.7281,7.7281,7.7244,7.7244,7.7248,7.7248,7.7248,7.7248,7.7248,7.7248,7.7585,7.8197,7.8235,7.8927,8.0017,8.0017,7.9909,7.9742,7.9742,7.92,7.8315,7.7553,7.724,7.7075,7.624,7.5976,7.5976,7.5976,7.6015,7.6015,7.6015,7.6015,7.6015,7.6015,7.6015,7.6015,7.6015,7.6015,7.5976,7.5976,7.5974,7.5976,7.6015,7.6015,7.5976,7.5976,7.5974,7.5659,7.4786,7.4669,7.4354,7.3561,7.2738,7.2207,7.2167,7.1414,7.0898,7.0898,7.0898,7.0898,7.0898,7.0898,7.0898,7.0898,7.0898,7.0898,7.0898,7.0898,7.0898,7.0898,7.0898,7.0898,7.0898,7.0898,7.0898,6.5959,0.0,0.0,0.0,0.0,0.0,6.77,6.77,6.77,6.77,6.7881,6.8208,6.8781,6.9255,6.9846,7.0624,7.1721,7.2492,7.2492,7.2492,7.2565,7.2826,7.2826,7.3156,7.3964,7.4037,7.4368,7.5164,7.5241,7.5311,7.5564,7.5564,7.5564,7.5564,7.6118,7.6416,7.6416,7.6995,7.6995,7.6416,7.6416,7.6118,7.5564,7.5564,7.5564,7.5564,7.5564,7.5658,7.5904,7.646,7.7064,7.7625,7.7625,7.8127,7.8865,7.8865,7.8063,7.6945,7.674,7.5967,7.5144,7.5294,7.5341,7.5421,7.5857,7.6015,7.6015,7.6015,7.6015,7.6015,7.6015,7.6015,7.6015,7.6015,7.6015,7.5817,7.5183,7.5062,7.5262,7.5896,7.6015,7.5817,7.5181,7.5062,7.4786,7.3953,7.382,7.3513,7.2678,7.2348,7.197,7.1335,7.1057,7.0898,7.0898,7.0898,7.0898,7.0898,7.0898,7.0898,7.0898,7.0898,7.0898,7.0898,7.0898,7.0898,7.0898,7.0898,7.0898,7.0898,7.0898,7.0898,6.6366,6.6736,6.711,6.759,0.0,0.0,6.77,6.77,6.77,6.77,6.77,6.7844,6.8311,6.8671,6.9038,6.9519,7.066,7.1615,7.1938,7.2011,7.2121,7.2455,7.2492,7.2676,7.3156,7.3197,7.3523,7.4327,7.4401,7.4548,7.487,7.4907,7.4907,7.4907,7.5351,7.5612,7.5612,7.6078,7.6078,7.5612,7.5612,7.5351,7.4907,7.4907,7.4907,7.4907,7.4907,7.4727,7.4437,7.4918,7.573,7.6719,7.6962,7.7294,7.761,7.761,7.6746,7.5529,7.5507,7.4988,7.44,7.4929,7.5103,7.5222,7.5817,7.6015,7.6015,7.6015,7.6015,7.6015,7.6015,7.6015,7.5901,7.5525,7.5474,7.5222,7.4389,7.4187,7.4362,7.4874,7.4945,7.4786,7.4308,7.4189,7.3901,7.3068,7.296,7.2643,7.177,7.1651,7.1454,7.0938,7.0898,7.0898,7.0898,7.0898,7.0898,7.0898,7.0898,7.0898,7.0898,7.0898,7.0898,7.0898,7.0898,7.0898,7.0898,7.0898,7.0898,7.0898,7.0898,7.0898,6.6626,6.7143,6.77,6.77,6.77,0.0,6.77,6.77,6.77,6.77,6.77,6.77,6.77,6.8278,6.8785,6.8785,6.9379,7.0146,7.1053,7.1164,7.1421,7.2162,7.2235,7.2272,7.2345,7.2378,7.2712,7.349,7.3567,7.3891,7.4617,7.4614,7.4614,7.4614,7.4724,7.4764,7.4764,7.487,7.487,7.4764,7.4764,7.4724,7.4614,7.4614,7.4614,7.4614,7.4614,7.4217,7.3571,7.3625,7.473,7.639,7.6936,7.6746,7.6163,7.6163,7.5347,7.4207,7.4184,7.4151,7.4197,7.4739,7.4958,7.5103,7.5736,7.5936,7.6015,7.6015,7.5945,7.5874,7.5874,7.5791,7.5524,7.4732,7.4551,7.4359,7.3525,7.3366,7.3329,7.3234,7.3375,7.3455,7.3375,7.3373,7.3078,7.2207,7.2048,7.1772,7.1017,7.0898,7.0898,7.0898,7.0898,7.0898,7.0898,7.0898,7.0898,7.0898,7.0898,7.0898,7.0898,7.0898,7.0898,7.0898,7.0898,7.0898,7.0898,7.0898,7.0898,7.0898,7.0898,7.0898,6.748,6.759,6.77,6.77,6.77,0.0,6.77,6.77,6.77,6.77,6.77,6.77,6.77,6.7847,6.7914,6.7914,6.8064,6.8688,7.0146,7.033,7.0403,7.0554,7.055,7.0807,7.1457,7.1527,7.1861,7.2676,7.2712,7.2786,7.2969,7.2966,7.2966,7.2966,7.36,7.3931,7.3931,7.4581,7.4581,7.3931,7.3931,7.3597,7.2966,7.2966,7.2966,7.2966,7.2966,7.2896,7.2763,7.3259,7.3695,7.406,7.4188,7.4431,7.4694,7.4694,7.4224,7.3576,7.3584,7.3279,7.2953,7.3549,7.4056,7.4548,7.5103,7.5619,7.6015,7.6015,7.5483,7.4951,7.4951,7.4456,7.3922,7.3771,7.3728,7.3516,7.2626,7.2437,7.2242,7.1545,7.2533,7.3285,7.2572,7.2431,7.2167,7.1295,7.1138,7.1097,7.0938,7.0898,7.0898,7.0898,7.0898,7.0898,7.0898,7.0898,7.0898,7.0898,7.0898,7.0898,7.0898,7.0898,7.0898,7.0898,7.0898,7.0898,7.0898,7.0898,7.0898,7.0898,7.0898,7.0898,6.77,6.77,6.77,6.77,6.77,0.0,0.0,6.7403,6.7106,6.7106,6.6776,6.6512,6.6512,6.6512,6.6512,6.6512,6.6849,6.725,6.7647,6.8748,6.9633,7.004,7.0113,7.0257,7.0657,7.069,7.0877,7.1284,7.1681,7.1898,7.1898,7.2268,7.2492,7.2492,7.2899,7.3087,7.3087,7.3516,7.3516,7.3087,7.3087,7.2899,7.2492,7.2492,7.2492,7.2492,7.2492,7.2492,7.2524,7.2834,7.2946,7.302,7.3596,7.3865,7.3868,7.3868,7.3462,7.2945,7.2942,7.2758,7.2613,7.3196,7.3828,7.4392,7.4936,7.5219,7.526,7.4865,7.4445,7.4109,7.4081,7.3794,7.3387,7.2955,7.2864,7.2617,7.1724,7.1552,7.1414,7.0979,7.1613,7.2048,7.1613,7.1534,7.1414,7.0977,7.0898,7.0898,7.0898,7.0898,7.0898,7.0898,7.0898,7.0898,7.0898,7.0898,7.0898,7.0898,7.0898,7.0898,7.0898,7.0898,7.0898,7.0898,7.0898,7.0898,7.0898,7.0898,7.0898,7.0898,7.0502,7.0303,6.77,6.77,6.77,6.77,6.77,6.766,0.0,0.0,0.0,6.6292,6.5735,6.5291,6.5291,6.5291,6.5291,6.5291,6.5848,6.6032,6.5402,6.698,6.8528,6.9306,6.9526,6.9713,6.9853,7.0003,7.0113,7.0113,7.069,7.1053,7.1053,7.1828,7.2272,7.2272,7.2419,7.2492,7.2492,7.2492,7.2492,7.2492,7.2492,7.2492,7.2492,7.2492,7.2492,7.2492,7.2492,7.2492,7.2492,7.2492,7.2492,7.2614,7.3581,7.3654,7.3215,7.3215,7.2902,7.2492,7.2492,7.2492,7.2576,7.3071,7.3597,7.4144,7.4639,7.456,7.4149,7.3503,7.3226,7.3111,7.3093,7.3048,7.2802,7.2138,7.1958,7.1752,7.1047,7.0898,7.0898,7.0898,7.0898,7.0898,7.0898,7.0898,7.0898,7.0898,7.0898,7.0898,7.0898,7.0898,7.0898,7.0898,7.0898,7.0898,7.0898,7.0898,7.0898,7.0898,7.0898,7.0898,7.0898,7.0898,7.0898,7.0898,7.0898,7.082,7.0661,7.0661,7.0661,7.0661,6.9986,6.96,6.77,6.77,6.77,6.77,6.77,6.7514,6.6809,0.0,6.6292,6.5588,0.0,6.5291,6.5291,0.0,0.0,6.5291,6.5365,6.5402,6.5291,6.5548,6.6029,6.6806,6.7547,6.8244,6.8965,6.9669,7.0113,7.0113,7.0183,7.022,7.022,7.098,7.1454,7.1454,7.2121,7.2492,7.2492,7.2492,7.2492,7.2492,7.2492,7.2492,7.2492,7.2492,7.2492,7.2492,7.2492,7.2492,7.2492,7.2492,7.2492,7.251,7.2644,7.2676,7.2586,7.2586,7.2552,7.2492,7.2492,7.2492,7.2492,7.2576,7.2846,7.3208,7.3577,7.3272,7.282,7.2736,7.2196,7.1651,7.1655,7.143,7.1171,7.1054,7.105,7.1009,7.0937,7.0898,7.0898,7.0898,7.0898,7.0898,7.0898,7.0898,7.0898,7.0898,7.0898,7.0898,7.0898,7.0898,7.0898,7.0898,7.0898,7.0898,7.0898,7.0898,7.0898,7.0898,7.0898,7.0898,7.0898,7.0898,7.0898,7.0898,7.0898,7.0542,6.9827,6.9827,6.9827,6.9827,6.9747,6.9284,6.77,6.77,6.77,6.77,6.77,6.7477,6.6663,0.0,6.5592,6.4751,0.0,0.0,0.0,0.0,0.0,0.0,6.4267,6.4417,6.393,6.4704,6.5438,6.5772,6.6105,6.6436,6.6763,6.7537,6.8017,6.8017,6.8862,6.9409,6.9409,7.018,7.0583,7.0583,7.1384,7.1788,7.1788,7.2272,7.2492,7.2492,7.2492,7.2492,7.2492,7.2492,7.2492,7.2492,7.2492,7.2492,7.2492,7.2492,7.2492,7.2492,7.2492,7.2492,7.2492,7.2492,7.2492,7.2492,7.2492,7.2492,7.2532,7.2738,7.2351,7.188,7.2192,7.1893,7.1316,7.0837,7.0657,7.0632,7.066,7.0755,7.0898,7.0898,7.0898,7.0898,7.0898,7.0898,7.0898,7.0898,7.0898,7.0898,7.0898,7.0898,7.0898,7.0898,7.0898,7.0898,7.0898,7.0898,7.0898,7.0898,7.0898,7.0898,7.0898,7.0898,7.0898,7.0898,7.0898,7.0898,7.0898,7.0898,7.0898,7.0898,7.0423,7.0027,6.9709,6.9175,6.869,6.8175,6.8175,6.8001,6.77,6.77,6.77,6.77,6.77,6.744,6.6402,6.5735,0.0,6.3946,6.3239,0.0,0.0,0.0,6.2793,6.2793,0.0,6.3503,6.2903,6.3857,6.4704,6.4931,6.5185,6.5291,6.5291,6.5845,6.6179,6.6179,6.7463,6.8234,6.8234,6.9192,6.9779,6.9779,7.0543,7.098,7.098,7.1534,7.1941,7.2158,7.2158,7.2305,7.2492,7.2492,7.2492,7.2492,7.2492,7.2492,7.2492,7.2492,7.2492,7.2492,7.2492,7.2368,7.2199,7.2408,7.2492,7.2452,7.2243,7.2034,7.1884,7.2049,7.1431,7.0652,7.0778,7.0469,6.9908,6.926,6.9371,6.9713,6.9832,7.0278,7.0701,7.086,7.0898,7.0898,7.0898,7.0898,7.0898,7.0898,7.0898,7.0898,7.0898,7.0898,7.0898,7.0898,7.0898,7.0898,7.0898,7.0898,7.0898,7.0898,7.0898,7.0898,7.0898,7.0898,7.0898,7.0898,7.0898,7.0898,7.0898,7.0898,7.0818,7.058,6.9986,6.9445,6.8998,6.8362,6.7606,6.6774,6.7011,6.6971,6.77,6.77,6.77,6.77,6.77,6.7293,6.5698,6.5325,6.4814,6.3193,6.2826,6.2793,6.2793,6.2793,6.2793,6.2793,6.2826,0.0,0.0,6.2863,6.3199,6.4023,6.4824,6.5291,6.5291,6.5325,6.5328,6.5328,6.6105,6.6586,6.6586,6.8087,6.8928,6.8928,6.9706,7.015,7.015,7.015,7.0587,7.1344,7.1344,7.1751,7.2492,7.2492,7.2492,7.2492,7.2492,7.2492,7.2492,7.2492,7.2492,7.2492,7.2492,7.2031,7.1449,7.2199,7.2492,7.2404,7.1617,7.0824,7.0144,6.9907,6.9767,6.9692,6.9437,6.9007,6.8555,6.8511,6.853,6.8662,6.9186,6.9715,7.0264,7.0779,7.0898,7.0898,7.0898,7.0898,7.0898,7.0898,7.0898,7.0898,7.0898,7.0898,7.0898,7.0898,7.0898,7.0898,7.0898,7.0898,7.0898,7.0898,7.0898,7.0898,7.0898,7.0898,7.0898,7.0898,7.0898,7.0898,7.0898,7.0898,7.0542,6.9747,6.9709,6.8886,6.7165,6.7168,6.6734,6.5941,6.6734,6.6694,0.0,0.0,6.77,6.77,0.0,6.7403,6.6329,6.5698,6.4998,6.3906,6.3203,6.2793,6.2793,6.2793,6.2793,6.2793,6.2793,6.2793,0.0,6.2793,6.2906,6.3203,6.349,6.364,6.364,6.4163,6.4497,6.4497,6.5261,6.5922,6.6476,6.7026,6.7577,6.8098,6.8898,6.9299,6.9299,6.982,7.022,7.051,7.051,7.0657,7.0921,7.0921,7.0921,7.0921,7.0921,7.0921,7.0921,7.0921,7.0921,7.0921,7.0921,7.0761,7.0588,7.1405,7.1369,7.0867,7.0616,6.9972,6.9333,6.9607,6.9111,6.8426,6.8703,6.8413,6.7961,6.7954,6.8217,6.8533,6.8705,6.9449,7.0145,7.0343,7.0622,7.0898,7.0898,7.0898,7.0898,7.0898,7.0898,7.0898,7.0898,7.0898,7.0898,7.0898,7.0898,7.0898,7.0898,7.0898,7.0898,7.0898,7.0898,7.0898,7.0898,7.0898,7.0898,7.0898,7.0898,7.0898,7.0898,7.0383,6.9986,6.9709,6.8587,6.769,6.7091,6.6575,6.6178,6.59,6.6178,6.6178,6.77,6.77,0.0,6.77,6.77,0.0,6.6663,6.5885,6.5074,6.428,6.3426,6.2793,6.2793,6.2793,6.2793,6.2793,6.2793,6.2793,0.0,6.2793,6.2793,6.2793,6.2793,6.2793,6.2793,6.3313,6.3649,6.3649,6.4417,6.5114,6.5635,6.6185,6.6736,6.7257,6.8058,6.8458,6.8458,6.8979,6.9379,6.9669,6.9669,6.9816,7.0113,7.0113,7.0113,7.0113,7.0113,7.0113,7.0113,7.0113,7.0113,7.0113,7.0113,6.9935,6.9776,7.0572,7.0371,6.9685,6.9676,6.9151,6.8529,6.8864,6.8406,6.7744,6.8115,6.7951,6.7811,6.8395,6.8375,6.8373,6.9147,6.9596,6.9853,7.0058,7.0502,7.0898,7.0898,7.0898,7.0898,7.0898,7.0898,7.0898,7.0898,7.0898,7.0898,7.0898,7.0898,7.0898,7.0898,7.0898,7.0898,7.0898,7.0898,7.0898,7.0898,7.0898,7.0898,7.0898,7.0621,7.0463,7.0463,6.9669,6.9092,6.8774,6.7651,6.6971,6.6655,6.6139,6.59,6.59,6.59,6.59]},{"header":{"parameterUnit":"m.s-1","parameterCategory":1,"la1":30.6,"la2":29.2853,"lo1":-89.7004,"lo2":-87.6739,"dy":0.0162,"dx":0.0183,"nx":112,"ny":82,"refTime":"2023-10-03T06:00:00:Z","depth":0,"parameterNumber":3,"parameterNumberName":"V-component_of_WINDS"},"data":[0.0,0.0,0.0,0.0,0.0,0.0,0.0,0.0,0.0,0.0,0.0,0.0,0.0,0.0,0.0,0.0,0.0,0.0,0.0,0.0,0.0,0.0,0.0,0.0,0.0,0.0,0.0,0.0,0.0,0.0,0.0,0.0,0.0,0.0,0.0,0.0,0.0,0.0,0.0,0.0,0.0,0.0,0.0,0.0,0.0,0.0,0.0,0.0,0.0,0.0,0.0,0.0,0.0,0.0,0.0,0.0,0.0,0.0,0.0,0.0,0.0,0.0,0.0,0.0,0.0,0.0,0.0,0.0,0.0,0.0,0.0,0.0,0.0,0.0,0.0,0.0,0.0,0.0,0.0,0.0,0.0,0.0,0.0,0.0,0.0,0.0,0.0,0.0,0.0,0.0,0.0,0.0,0.0,0.0,0.0,0.0,0.0,0.0,0.0,0.0,0.0,0.0,0.0,0.0,0.0,0.0,0.0,0.0,0.0,0.0,0.0,0.0,0.0,0.0,0.0,0.0,0.0,0.0,0.0,0.0,0.0,0.0,0.0,0.0,0.0,0.0,0.0,0.0,0.0,0.0,0.0,0.0,0.0,0.0,0.0,0.0,0.0,0.0,0.0,0.0,0.0,0.0,0.0,0.0,0.0,0.0,0.0,0.0,0.0,0.0,0.0,0.0,0.0,0.0,0.0,0.0,0.0,0.0,0.0,0.0,0.0,0.0,0.0,0.0,0.0,0.0,0.0,0.0,0.0,0.0,0.0,0.0,0.0,0.0,0.0,0.0,0.0,0.0,0.0,0.0,0.0,0.0,0.0,0.0,0.0,0.0,0.0,0.0,0.0,0.0,0.0,0.0,0.0,0.0,0.0,0.0,0.0,0.0,0.0,0.0,0.0,0.0,0.0,0.0,0.0,0.0,0.0,0.0,0.0,0.0,0.0,0.0,0.0,0.0,0.0,0.0,0.0,0.0,0.0,0.0,0.0,0.0,0.0,0.0,0.0,0.0,0.0,0.0,0.0,0.0,0.0,0.0,0.0,0.0,0.0,0.0,0.0,0.0,0.0,0.0,0.0,0.0,0.0,0.0,0.0,0.0,0.0,0.0,0.0,0.0,0.0,0.0,0.0,0.0,0.0,0.0,0.0,0.0,0.0,0.0,0.0,0.0,0.0,0.0,0.0,0.0,0.0,0.0,0.0,0.0,0.0,0.0,0.0,0.0,0.0,0.0,0.0,0.0,0.0,0.0,0.0,0.0,0.0,0.0,0.0,0.0,0.0,0.0,0.0,0.0,0.0,0.0,0.0,0.0,0.0,0.0,0.0,0.0,0.0,0.0,0.0,0.0,0.0,0.0,0.0,0.0,0.0,0.0,0.0,0.0,0.0,0.0,0.0,0.0,0.0,0.0,0.0,0.0,0.0,0.0,0.0,0.0,0.0,0.0,0.0,0.0,0.0,0.0,0.0,0.0,0.0,0.0,0.0,0.0,0.0,0.0,0.0,0.0,0.0,0.0,0.0,0.0,0.0,0.0,0.0,0.0,0.0,0.0,0.0,0.0,0.0,0.0,0.0,0.0,0.0,0.0,0.0,0.0,0.0,0.0,0.0,0.0,0.0,0.0,0.0,0.0,0.0,0.0,0.0,0.0,0.0,0.0,0.0,0.0,0.0,0.0,0.0,0.0,0.0,0.0,0.0,0.0,0.0,0.0,0.0,0.0,0.0,0.0,0.0,0.0,0.0,0.0,0.0,0.0,0.0,0.0,0.0,0.0,0.0,0.0,0.0,0.0,0.0,0.0,0.0,0.0,0.0,0.0,0.0,0.0,0.0,0.0,0.0,0.0,0.0,0.0,0.0,0.0,0.0,0.0,0.0,0.0,0.0,0.0,0.0,0.0,0.0,0.0,0.0,0.0,0.0,0.0,0.0,0.0,0.0,0.0,0.0,0.0,0.0,0.0,0.0,0.0,0.0,0.0,0.0,0.0,0.0,0.0,0.0,0.0,0.0,0.0,0.0,0.0,0.0,0.0,0.0,0.0,0.0,0.0,0.0,0.0,0.0,0.0,0.0,0.0,0.0,0.0,0.0,0.0,0.0,0.0,0.0,0.0,0.0,0.0,0.0,0.0,0.0,0.0,0.0,0.0,0.0,0.0,0.0,0.0,0.0,0.0,0.0,0.0,0.0,0.0,0.0,0.0,0.0,0.0,0.0,0.0,0.0,0.0,0.0,0.0,0.0,0.0,0.0,0.0,0.0,0.0,0.0,0.0,0.0,0.0,0.0,0.0,0.0,0.0,0.0,0.0,0.0,0.0,0.0,0.0,0.0,0.0,0.0,0.0,0.0,0.0,0.0,0.0,0.0,0.0,0.0,0.0,0.0,0.0,0.0,0.0,0.0,0.0,0.0,0.0,0.0,0.0,0.0,0.0,0.0,0.0,0.0,0.0,0.0,0.0,0.0,0.0,0.0,0.0,0.0,0.0,0.0,0.0,0.0,0.0,0.0,0.0,0.0,0.0,0.0,0.0,0.0,0.0,0.0,0.0,0.0,0.0,0.0,0.0,0.0,0.0,0.0,0.0,0.0,0.0,0.0,0.0,0.0,0.0,0.0,0.0,0.0,0.0,0.0,0.0,0.0,0.0,0.0,0.0,0.0,0.0,0.0,0.0,0.0,0.0,0.0,0.0,0.0,0.0,0.0,0.0,0.0,0.0,0.0,0.0,0.0,0.0,0.0,0.0,0.0,0.0,0.0,0.0,0.0,0.0,0.0,0.0,0.0,0.0,0.0,0.0,0.0,0.0,0.0,0.0,0.0,0.0,0.0,0.0,0.0,0.0,0.0,0.0,0.0,0.0,0.0,0.0,0.0,0.0,0.0,0.0,0.0,0.0,0.0,0.0,0.0,0.0,0.0,0.0,0.0,0.0,0.0,0.0,0.0,0.0,0.0,0.0,0.0,0.0,0.0,0.0,0.0,0.0,0.0,0.0,0.0,0.0,0.0,0.0,0.0,0.0,0.0,0.0,0.0,0.0,0.0,0.0,0.0,0.0,0.0,0.0,0.0,0.0,0.0,0.0,0.0,0.0,0.0,0.0,0.0,0.0,0.0,0.0,0.0,0.0,0.0,0.0,0.0,0.0,0.0,0.0,0.0,0.0,0.0,0.0,0.0,0.0,0.0,0.0,0.0,0.0,0.0,0.0,0.0,0.0,0.0,0.0,0.0,0.0,0.0,0.0,0.0,0.0,0.0,0.0,0.0,0.0,0.0,0.0,0.0,0.0,0.0,0.0,0.0,0.0,0.0,0.0,0.0,0.0,0.0,0.0,0.0,0.0,0.0,0.0,0.0,0.0,0.0,0.0,0.0,0.0,0.0,0.0,0.0,0.0,0.0,0.0,0.0,0.0,0.0,0.0,0.0,0.0,0.0,0.0,0.0,0.0,0.0,0.0,0.0,0.0,0.0,0.0,0.0,0.0,0.0,0.0,0.0,0.0,0.0,0.0,0.0,0.0,0.0,0.0,0.0,0.0,0.0,0.0,0.0,0.0,0.0,0.0,0.0,0.0,0.0,0.0,0.0,0.0,0.0,0.0,0.0,0.0,0.0,0.0,0.0,0.0,0.0,0.0,0.0,0.0,0.0,0.0,0.0,0.0,0.0,0.0,0.0,0.0,0.0,0.0,0.0,0.0,0.0,0.0,0.0,0.0,0.0,0.0,0.0,0.0,0.0,0.0,0.0,0.0,0.0,0.0,0.0,0.0,0.0,0.0,0.0,0.0,0.0,0.0,0.0,0.0,0.0,0.0,0.0,0.0,0.0,0.0,0.0,0.0,0.0,0.0,0.0,0.0,0.0,0.0,0.0,0.0,0.0,0.0,0.0,0.0,0.0,0.0,0.0,0.0,0.0,0.0,0.0,0.0,0.0,0.0,0.0,0.0,0.0,0.0,0.0,0.0,0.0,0.0,0.0,0.0,0.0,0.0,0.0,0.0,0.0,0.0,0.0,0.0,0.0,0.0,0.0,0.0,0.0,0.0,0.0,0.0,0.0,0.0,0.0,0.0,0.0,0.0,0.0,0.0,0.0,0.0,0.0,0.0,0.0,0.0,0.0,0.0,0.0,0.0,0.0,0.0,0.0,0.0,0.0,0.0,0.0,0.0,0.0,0.0,0.0,0.0,0.0,0.0,0.0,0.0,0.0,0.0,0.0,0.0,0.0,0.0,0.0,0.0,0.0,0.0,0.0,0.0,0.0,0.0,0.0,0.0,0.0,0.0,0.0,0.0,0.0,0.0,0.0,0.0,0.0,0.0,0.0,0.0,0.0,0.0,0.0,0.0,0.0,0.0,0.0,0.0,0.0,0.0,0.0,0.0,0.0,0.0,0.0,0.0,0.0,0.0,0.0,0.0,0.0,0.0,0.0,0.0,0.0,0.0,0.0,0.0,0.0,0.0,0.0,0.0,0.0,0.0,0.0,0.0,0.0,0.0,0.0,0.0,0.0,0.0,0.0,0.0,0.0,0.0,0.0,0.0,0.0,0.0,0.0,0.0,0.0,0.0,0.0,0.0,0.0,0.0,0.0,0.0,0.0,0.0,0.0,0.0,0.0,0.0,0.0,0.0,0.0,0.0,0.0,0.0,0.0,0.0,0.0,0.0,0.0,0.0,0.0,0.0,0.0,0.0,0.0,0.0,0.0,0.0,0.0,0.0,0.0,0.0,0.0,0.0,0.0,0.0,0.0,0.0,0.0,0.0,0.0,0.0,0.0,0.0,0.0,0.0,0.0,0.0,0.0,0.0,0.0,0.0,0.0,0.0,0.0,0.0,0.0,0.0,0.0,0.0,0.0,0.0,0.0,0.0,0.0,0.0,0.0,0.0,0.0,0.0,0.0,0.0,0.0,0.0,0.0,0.0,0.0,0.0,0.0,0.0,0.0,0.0,0.0,0.0,0.0,0.0,0.0,0.0,0.0,0.0,0.0,0.0,0.0,0.0,0.0,0.0,0.0,0.0,0.0,0.0,0.0,0.0,0.0,0.0,0.0,0.0,0.0,0.0,0.0,0.0,0.0,0.0,0.0,0.0,0.0,0.0,0.0,0.0,0.0,0.0,0.0,0.0,0.0,0.0,0.0,0.0,0.0,0.0,0.0,0.0,0.0,0.0,0.0,0.0,0.0,0.0,0.0,0.0,0.0,0.0,0.0,0.0,0.0,0.0,0.0,0.0,0.0,0.0,0.0,0.0,0.0,0.0,0.0,0.0,0.0,0.0,0.0,0.0,0.0,0.0,0.0,0.0,0.0,0.0,0.0,0.0,0.0,0.0,0.0,0.0,0.0,0.0,0.0,0.0,0.0,0.0,0.0,0.0,0.0,0.0,0.0,0.0,0.0,0.0,0.0,0.0,0.0,0.0,0.0,0.0,0.0,0.0,0.0,0.0,0.0,0.0,0.0,0.0,0.0,0.0,0.0,0.0,0.0,0.0,0.0,0.0,0.0,0.0,0.0,0.0,0.0,0.0,0.0,0.0,0.0,0.0,0.0,0.0,0.0,0.0,0.0,0.0,0.0,0.0,0.0,0.0,0.0,0.0,0.0,0.0,0.0,0.0,0.0,0.0,0.0,0.0,0.0,0.0,0.0,0.0,0.0,0.0,0.0,0.0,0.0,0.0,0.0,0.0,0.6472,0.0,0.0,0.0,0.0,0.0,0.0,0.0,0.0,0.0,0.0,0.0,0.0,0.0,0.0,0.0,0.0,0.0,0.0,0.0,0.0,0.0,0.0,0.0,0.0,0.0,0.0,0.0,0.0,0.0,0.0,0.0,0.0,0.0,0.0,0.0,0.0,0.0,0.0,0.0,0.0,0.0,0.0,0.0,0.0,0.0,0.0,0.0,0.0,0.0,0.0,0.0,0.0,0.0,0.0,0.0,0.0,0.0,0.0,0.0,0.0,0.0,0.0,0.0,0.0,0.0,0.0,0.0,0.0,0.0,0.0,0.0,0.0,0.0,0.0,0.0,0.0,0.0,0.0,0.0,0.0,0.0,0.0,0.0,0.0,0.0,0.0,0.0,0.0,0.0,0.0,0.0,0.0,0.0,0.0,0.0,0.0,0.0,0.0,0.0,0.0,0.0,0.0,0.0,0.0,0.0,0.0,0.0,0.0,0.0,0.0,0.0,0.0,0.3737,0.0,0.0,0.0,0.0,0.0,0.0,0.0,0.0,0.0,0.0,0.0,0.0,0.0,0.0,0.0,0.0,0.0,0.0,0.0,0.0,0.0,0.0,0.0,0.0,0.0,0.0,0.0,0.0,0.0,0.0,0.0,0.0,0.0,0.0,0.0,0.0,0.0,0.0,0.0,0.0,0.0,0.0,0.0,0.0,0.0,0.0,0.0,0.0,0.0,0.0,0.0,0.0,0.0,0.0,0.0,0.0,0.0,0.0,0.0,0.0,0.0,0.0,0.0,0.0,0.0,0.0,0.0,0.0,0.0,0.0,0.0,0.0,0.0,0.0,0.0,0.0,0.0,0.0,0.0,0.0,0.0,0.0,0.0,0.0,0.0,0.0,0.0,0.0,0.0,0.0,0.0,0.0,0.0,0.0,0.0,0.0,0.0,0.0,0.0,0.0,0.0,0.0,0.0,0.0,1.1604,1.1597,1.1597,1.1597,1.1597,1.1238,0.481,0.2024,0.2022,0.2021,0.0,0.0,0.0,0.0,0.0,0.0,0.0,0.0,0.0,0.0,0.0,0.0,0.0,0.0,0.0,0.0,0.0,0.0,0.0,0.0,0.0,0.0,0.0,0.0,0.0,0.0,0.0,0.0,0.0,0.0,0.0,0.0,0.0,0.0,0.0,0.0,0.0,0.0,0.0,0.0,0.0,0.0,0.0,0.0,0.0,0.0,0.0,0.0,0.0,0.0,0.0,0.0,0.0,0.0,0.0,0.0,0.0,0.0,0.0,0.0,0.0,0.0,0.0,0.0,0.0,0.0,0.0,0.0,0.0,0.0,0.0,0.0,0.0,0.0,0.0,0.0,0.0,0.0,0.0,0.0,0.0,0.0,1.1221,1.0194,0.0,0.0,0.0,0.0,0.0,0.0,0.0,0.0,0.0,0.0,0.0,0.0,0.0,1.007,1.007,1.0074,1.0588,1.1597,1.1604,1.1606,1.1606,1.1606,1.1606,1.1536,1.0521,0.0,1.0064,1.0076,0.0,0.0,0.0,0.0,0.0,0.0,0.0,0.0,0.0,0.0,0.0,0.0,0.0,0.0,0.0,0.0,0.0,0.0,0.0,0.0,0.0,0.0,0.0,0.0,0.0,0.0,0.0,0.0,0.0,0.0,0.0,0.0,0.0,0.0,0.0,0.0,0.0,0.0,0.0,0.0,0.0,0.0,0.0,0.0,0.0,0.0,0.0,0.0,0.0,0.0,0.0,0.6479,0.0,0.0,0.0,0.0,0.0,0.0,0.0,0.0,0.0,0.0,0.0,0.0,0.0,0.0,0.0,0.0,0.0,0.0,0.0,0.0,0.0,0.0,0.0,0.0,0.0,0.0,0.0,0.0,0.0,1.1604,1.1599,1.1599,1.0104,0.906,0.0,0.0,0.0,0.0,0.0,0.0,0.0,0.0,0.0,1.1606,1.1606,1.1604,1.1596,1.1601,1.1598,1.1602,1.1598,1.1607,1.1607,1.1607,1.1607,1.1607,1.1607,1.1602,1.1599,1.1599,0.9589,0.6085,0.0,0.0,0.0,0.0,0.2767,0.652,0.6519,0.8746,1.1602,1.1602,0.0,0.0,0.0,0.0,0.0,0.0,0.0,0.0,0.0,0.0,0.6521,0.6521,0.6521,0.6525,0.6524,0.6519,0.5226,0.0,0.0,0.1384,0.5767,0.0,0.0,0.0,0.0,0.0,0.0,0.0,0.0,0.0,0.0,0.0,0.0,0.0,0.0,0.0,0.0,0.0,0.0,0.3272,0.5538,0.0,0.0,0.0,0.0,0.0,0.0,0.0,0.0,0.0,0.0,0.0,0.0,0.0,0.0,0.0,0.0,0.0,0.0,0.0,0.0,0.0,0.0,0.0,0.0,0.0,0.0,0.0,0.0,1.1597,1.1602,1.1602,1.1602,1.1599,0.0,0.0,0.0,0.0,0.0,0.0,1.1602,1.1635,1.1667,1.1683,1.168,1.1691,1.1728,1.1801,1.1834,1.183,1.183,1.183,1.183,1.183,1.183,1.183,1.183,1.183,1.1826,1.1663,1.1601,1.1021,0.5229,0.2971,0.2971,0.2968,0.663,1.1605,1.1595,1.1602,1.1602,1.1602,1.1602,1.1597,1.1606,0.0,0.0,0.0,0.0,1.1604,1.1606,1.1599,1.1599,1.1599,1.1599,1.1597,1.1599,1.1601,0.9302,0.0,0.0,0.1837,0.7633,0.0,0.0,0.0,0.0,0.0,0.0,0.0,0.0762,0.2751,0.2965,0.2965,0.2969,0.1142,0.0852,0.2842,0.2965,0.2972,0.2972,0.1061,0.2724,0.8519,0.0,0.0,0.0,0.0,0.0,0.0,0.0,0.0,0.0,0.0,0.0,0.0,0.0,0.0,0.0,0.0,0.0,0.0,0.0,0.0,0.0,0.0,0.0,0.0,0.0,0.0,0.0,0.0,0.0,1.1602,1.1602,0.0,0.0,0.0,0.0,1.1599,1.1599,1.1593,1.1602,1.1721,1.1823,1.1878,1.1875,1.1947,1.2065,1.2324,1.245,1.2447,1.2447,1.2447,1.2447,1.2447,1.2447,1.2447,1.2447,1.2447,1.2403,1.1835,1.1602,1.1556,1.1176,1.1021,1.1017,1.1017,1.126,1.1596,1.1599,1.1602,1.1602,1.1602,1.1597,1.1599,1.1599,1.1599,0.0,0.0,1.1455,1.1599,1.1599,1.1599,1.1599,1.1599,1.1599,1.1599,1.1599,1.1595,0.9298,0.0,0.0,0.0126,0.0516,0.0,0.0,0.0,0.0,0.0,0.0,0.0,0.2828,1.023,1.1018,1.1018,1.1018,0.4242,0.3154,1.0544,1.1018,1.1018,1.1018,0.3925,0.0181,0.0572,0.02,0.0,0.0,0.0,0.0,0.0,0.0,0.0,0.0,0.0,0.0,0.0,0.0,0.0,0.0,0.0,0.0,0.0,0.0,0.0,0.0,0.0,0.0,0.0,0.0,0.0,0.0,0.0,0.0,1.1602,1.1602,0.0,1.1602,1.1602,1.1635,1.1721,1.1728,1.1793,1.1907,1.197,1.1998,1.2025,1.2033,1.207,1.2156,1.2257,1.2371,1.2505,1.2505,1.2505,1.2505,1.2505,1.2505,1.2505,1.2505,1.2505,1.2486,1.2269,1.218,1.2177,1.2177,1.2181,1.2181,1.2175,1.2074,1.1921,1.1915,1.1923,1.1891,1.1664,1.1601,1.1603,1.1597,1.1604,1.1602,1.1597,1.1606,1.1599,1.1602,1.1602,1.1602,1.1602,1.1602,1.1593,1.1604,1.1597,1.0835,0.8276,0.7615,0.7467,0.7462,0.7467,0.7467,0.7462,0.7469,0.7467,0.7467,0.7464,0.8525,1.1301,1.1599,1.1603,1.1603,0.9062,0.8648,1.1421,1.1597,1.1606,1.1602,0.8933,0.5111,0.01,0.0,0.0,0.0,0.0,0.0,0.0,0.0,0.0,0.0,0.0,0.0,0.0,0.0,0.0,0.0,0.0,0.0,0.0,0.0,0.0,0.0,0.0,0.0,0.0,0.0,0.0,0.0,1.1602,1.1602,1.1602,1.1602,1.1622,1.166,1.1669,1.173,1.1888,1.1902,1.1961,1.2091,1.2136,1.217,1.217,1.2265,1.2319,1.2366,1.2439,1.2543,1.2667,1.2667,1.2667,1.2667,1.2618,1.2599,1.2599,1.2667,1.2687,1.2667,1.2618,1.2639,1.2691,1.2551,1.25,1.2493,1.2498,1.2393,1.2229,1.2155,1.2116,1.2065,1.1837,1.1766,1.1771,1.1768,1.1769,1.1769,1.1769,1.1769,1.1769,1.1769,1.1769,1.1769,1.1769,1.1769,1.1775,1.1771,1.173,1.1748,1.19,1.1754,1.1598,1.1599,1.1597,1.1597,1.1597,1.1603,1.1672,1.1882,1.1903,1.1903,1.1903,1.1899,1.1906,1.1906,1.1724,1.1596,1.1603,1.1595,1.1602,1.1602,1.1599,0.7946,0.0154,0.258,0.2621,0.0,0.0,0.0,0.0,0.0,0.0,0.0,0.0,0.0,0.0,0.0,0.0,0.0,0.0,0.0,0.0,0.0,0.0,0.0,0.0,0.0,0.0,0.0,0.0,1.1602,1.1602,1.1602,1.1602,1.1593,1.1662,1.1789,1.1809,1.1895,1.2088,1.2104,1.2111,1.2111,1.2242,1.2314,1.2314,1.2563,1.2709,1.2709,1.2898,1.3003,1.3003,1.3003,1.3003,1.3003,1.2866,1.2805,1.2815,1.3013,1.3063,1.2993,1.2856,1.2916,1.3065,1.2669,1.2515,1.2514,1.2512,1.2495,1.2474,1.2278,1.2174,1.2111,1.2111,1.2104,1.2104,1.2098,1.2098,1.2098,1.2098,1.2098,1.2088,1.2098,1.2098,1.2098,1.2098,1.2098,1.2098,1.2098,1.1995,1.1839,1.1662,1.1624,1.1617,1.1636,1.1627,1.1627,1.1627,1.1634,0.0,1.2426,1.2499,1.2499,1.2499,1.2499,1.2499,1.2501,1.1965,1.1631,1.1633,1.161,1.1598,1.1606,1.1602,0.7942,0.0154,0.7398,0.7642,0.0365,0.0,0.0,0.0,0.0,0.0,0.0,0.0,0.0,0.0,0.0,0.0,0.0,0.0,0.0,0.0,0.0,0.0,0.0,0.0,0.0,0.0,1.1602,1.1602,1.1602,1.1602,1.1602,1.1602,1.169,1.1762,1.1802,1.1932,1.2079,1.2226,1.2249,1.229,1.2382,1.2519,1.259,1.259,1.2793,1.2915,1.2915,1.2972,1.3003,1.3003,1.3003,1.3003,1.3003,1.2963,1.2953,1.2953,1.3003,1.3023,1.3003,1.2963,1.2983,1.3026,1.2957,1.2815,1.2654,1.2653,1.2581,1.2488,1.2438,1.2408,1.2375,1.2283,1.2249,1.2231,1.2132,1.2098,1.2098,1.2098,1.2032,1.1986,1.207,1.2135,1.2154,1.2107,1.2098,1.2098,1.2098,1.1995,1.1938,1.208,1.2029,1.2013,1.2221,1.2254,1.2254,1.2254,1.2256,0.0,1.2483,1.2506,1.2501,1.2501,1.2501,1.2498,1.2499,1.2353,1.2247,1.2245,1.1836,1.1599,1.1596,1.1601,0.7941,0.0153,0.2103,0.4914,0.0,0.0,0.0,0.0,0.0,0.0,0.0,0.0,0.0,0.0,0.0,0.0,0.0,0.0,0.0,0.0,0.0,0.0,0.0,0.0,0.0,0.0,1.1649,1.168,1.168,1.168,1.168,1.168,1.1827,1.1952,1.1994,1.2127,1.2253,1.2451,1.2465,1.2542,1.2694,1.2779,1.2827,1.2827,1.2989,1.3108,1.3176,1.3217,1.3278,1.3339,1.3339,1.3339,1.3339,1.3339,1.3339,1.3339,1.3339,1.3339,1.3322,1.3268,1.3251,0.0,0.0,0.0,0.0,0.0,1.2782,1.2711,1.2711,1.2711,1.2697,1.2616,1.2538,1.2451,1.2372,1.2307,1.2262,1.2262,1.2206,1.2168,1.2244,1.2307,1.2326,1.2272,1.2262,1.2262,1.2262,1.2243,1.2289,1.247,1.2444,0.0,1.2673,1.2586,1.2497,1.2497,1.2496,1.2494,1.2494,1.2502,1.2501,1.2501,1.2501,1.2496,1.2501,1.2494,0.0,0.0,0.0,1.1861,1.1612,1.1603,0.0,0.0,0.0,0.7083,1.1588,0.7068,0.0,0.0,0.1516,0.0,0.0,0.0,0.0,0.0,0.0,0.0,0.0,0.0,0.0,0.0,0.0,0.0,0.0,0.0,0.0,0.0,1.1721,1.1809,1.1829,1.1852,1.185,1.1839,1.2002,1.2177,1.2307,1.2341,1.2444,1.2702,1.2729,1.2803,1.2996,1.3006,0.0,0.0,0.0,1.3305,1.3441,1.3566,1.3684,1.3795,1.3795,1.3795,1.3795,1.3795,1.3795,1.3795,1.3795,1.3795,1.3788,1.367,1.3623,1.3575,1.318,1.3013,1.3023,1.3009,1.3003,1.3003,1.3003,0.0,0.0,1.3003,1.2878,1.2729,1.2729,1.2654,1.2565,1.2565,1.2556,1.2546,1.2556,1.2565,1.2575,1.2565,1.2565,1.2565,1.2565,1.2638,1.2729,1.2808,1.2828,1.2866,1.2983,1.2722,1.25,1.25,1.25,1.25,1.25,1.25,1.25,1.25,0.0,0.0,1.2499,1.2505,1.2495,1.2496,1.2504,1.2235,1.1627,1.1596,1.1599,1.1604,1.1604,1.1599,1.1601,1.1606,1.1601,1.1411,0.3623,0.0,0.0,0.0,0.0,0.0,0.0,0.0,0.0,0.0,0.0,0.0,0.0,0.0,0.0,0.0,0.0,1.1741,1.178,1.1859,1.2018,1.214,1.2155,1.2052,1.2174,1.2314,1.2447,1.2559,1.2709,1.2931,1.2935,1.2959,1.3003,1.3101,1.3207,1.3319,1.3454,1.3586,1.3724,1.3751,1.3774,1.3795,0.0,0.0,1.3795,1.3795,1.3795,1.3795,1.3795,1.3795,1.3795,1.3768,1.3754,1.3724,1.3319,1.3163,1.3149,1.3043,1.3003,1.3003,1.3003,1.3003,1.3003,1.3003,1.2972,1.2935,1.2935,1.2915,0.0,1.2904,1.2828,1.2768,1.2884,1.2944,1.2974,1.2924,1.2904,1.2904,1.2904,1.2845,1.2825,1.2935,1.3002,1.3033,1.3003,1.2719,1.2503,1.2503,1.2503,1.2503,1.2503,1.2503,1.2503,1.2503,1.2496,1.2508,1.2508,1.2501,1.2497,1.2499,1.2502,1.2231,1.1621,1.1599,1.1596,1.1604,1.1602,1.1599,1.1602,1.1606,1.1599,1.1406,0.3625,0.0,0.0,0.0,0.0,0.0,0.0,0.0,0.0,0.0,0.0,0.0,0.0,1.1622,1.1687,0.0,1.1757,1.1925,1.2013,1.2088,1.2197,1.2324,1.2348,1.2224,1.2382,1.2526,1.259,1.2742,1.2918,1.3088,1.3095,1.3163,1.3288,1.3363,1.3461,1.3603,1.3674,1.3782,1.3953,1.3942,1.3983,1.4046,1.4046,1.4046,1.4046,1.4046,1.4046,1.4046,1.4046,1.4046,1.4057,1.3976,1.3891,1.3774,1.3583,1.3464,1.339,1.3322,1.3258,1.32,1.32,1.32,1.32,1.32,1.3152,1.3095,1.3095,1.3047,1.3003,1.3003,1.2953,1.2916,1.2983,1.3023,1.3043,1.3013,1.3003,1.3003,1.3003,1.2997,1.3024,1.3084,1.3183,1.3241,1.321,1.3067,1.2902,1.2765,1.2785,1.2795,1.2755,1.2866,1.2953,1.2953,1.2955,1.2827,1.2526,1.2502,1.2505,1.2498,1.2497,1.2355,1.2058,1.1757,1.1604,1.1601,1.1599,1.1599,1.1597,1.1599,0.9603,0.57,0.1812,0.0,0.0,0.0,0.0,0.0,0.0,0.0,0.0,1.1602,1.1608,1.1626,1.1642,1.1674,1.1832,1.1859,1.1915,1.2109,1.2228,1.2307,1.2334,1.2444,1.2501,1.2386,1.2563,1.2733,1.2787,1.2939,1.3095,1.3227,1.3268,1.337,1.3593,1.3623,1.3704,1.3846,1.3864,1.3949,1.4137,1.4137,1.4188,1.4299,1.4299,1.4299,1.4299,1.4299,1.4299,1.4299,1.4299,1.4299,1.4292,1.4174,1.4041,1.39,1.39,1.3823,1.3694,1.365,1.3572,1.3474,1.3447,1.3444,1.3427,1.341,1.3326,1.3234,1.3234,1.3159,1.3081,1.3081,1.3081,1.3081,1.3081,1.3081,1.3081,1.3081,1.3081,1.3081,1.3081,1.3159,1.3234,1.3234,1.3326,1.3403,1.3403,1.3403,1.3332,1.3115,1.3121,1.3142,1.3081,1.3263,1.3401,1.3401,1.3403,1.3197,1.2725,1.2572,1.2498,1.2497,1.2498,1.2495,1.2497,1.2028,1.1775,1.1767,1.166,1.1593,1.1597,1.1604,0.7602,0.0,0.0,0.0,1.1602,1.1602,1.1602,1.1602,1.1602,1.1602,0.0,1.1602,1.1626,1.1755,1.1782,1.1839,1.2025,1.207,1.2116,1.2246,1.2287,1.2341,1.2461,1.259,1.2669,1.2665,1.2682,1.2824,1.3118,1.3159,1.3234,1.3373,1.3488,1.3572,1.3596,1.3707,1.3864,1.4063,1.407,1.4127,1.4283,1.4283,1.4296,1.4299,1.4299,1.4299,1.4299,1.4299,1.4299,1.4299,1.4299,1.4299,1.4299,1.4278,1.4265,1.424,1.424,1.4156,1.4018,1.3833,1.3772,1.3745,1.3616,1.3579,1.3559,1.3444,1.339,1.3387,1.3387,1.3373,1.3359,1.3359,1.3359,1.3359,1.3359,1.3359,1.3359,1.3359,1.3359,1.3359,1.3359,1.3373,1.3387,1.3387,1.339,1.3403,1.3403,1.3403,1.339,1.3356,1.3359,1.3359,1.3359,1.338,1.3408,1.3408,1.3398,1.3368,1.3314,1.2812,1.2496,1.2505,1.2498,1.2504,1.2495,1.2439,1.2394,1.2401,1.187,1.1597,1.1593,1.1599,0.7598,0.0,0.0,0.0,1.1602,1.1602,1.1602,1.1602,1.1602,1.1622,1.1694,1.1723,1.1764,1.1941,1.1965,1.2022,1.2188,1.2224,1.2262,1.2386,1.2423,1.2467,1.2607,1.2662,1.2773,1.2969,1.299,1.3047,1.319,1.3275,1.337,1.3508,1.3572,1.3698,1.3878,1.3939,1.4048,1.4208,1.4215,1.4238,1.4299,1.4299,1.4299,1.4299,1.4299,1.4299,1.4299,1.4299,1.4299,1.4299,1.4299,1.4299,1.4299,1.4299,1.4299,1.4299,1.4299,1.4276,1.4194,1.4034,1.3897,1.3788,1.3745,1.3717,1.3711,1.3643,1.3579,1.3522,1.3522,1.3461,1.3403,1.3403,1.3403,1.3403,1.3403,1.3403,1.3403,1.3403,1.3403,1.3403,1.3403,1.3403,1.3403,1.3403,1.3403,1.3403,1.3403,1.3403,1.3403,1.3403,1.3403,1.3403,1.3403,1.3403,1.3403,1.3403,1.3394,1.3401,1.3399,1.3166,1.3017,1.3021,1.269,1.2504,1.25,1.2499,1.2505,1.2495,1.2248,1.1951,1.16,1.1598,0.9925,0.675,0.6753,0.4327,1.1669,1.1699,1.1719,1.1669,1.1699,1.176,1.1861,1.1879,1.1929,1.2122,1.2166,1.2197,1.2328,1.2355,1.2389,1.2478,1.2526,1.2593,1.2692,1.278,1.2929,1.3166,1.3227,1.3275,1.3315,1.3397,1.3502,1.3589,1.3698,1.3844,1.4094,1.4148,1.4194,1.4299,1.4299,1.4299,1.4299,1.4299,1.4299,1.4299,1.4299,1.4299,1.4299,1.4299,1.4299,1.4299,1.4299,1.4299,1.4299,1.4299,1.4299,1.4299,1.4299,1.4299,1.4285,1.4188,1.4061,1.3927,1.3897,1.3884,1.3866,1.3826,1.3727,1.3657,1.3657,1.3586,1.3502,1.3478,1.3464,1.3451,1.341,1.3403,1.3403,1.3403,1.3403,1.3403,1.3403,1.3403,1.3403,1.3403,1.3403,1.3403,1.3403,1.3403,1.3403,1.3403,1.3403,1.3403,1.3403,1.3403,1.3403,1.3403,1.3403,1.3397,1.3401,1.3404,1.3404,1.34,1.2985,1.2675,1.2509,1.25,1.2494,1.2502,1.2499,1.2284,1.1852,1.1853,1.1765,1.1602,1.1596,0.8582,1.1845,1.1941,1.2041,1.1845,1.1938,1.2084,1.2091,1.2091,1.2129,1.2269,1.2294,1.2325,1.2467,1.2494,1.2494,1.2501,1.2604,1.2696,1.2702,1.2976,1.319,1.3203,1.3312,1.3451,1.3579,1.3589,1.3606,1.3596,1.3899,1.4083,1.4108,1.4222,1.4292,1.4299,1.4299,1.4299,1.4299,1.4299,1.4299,1.4299,1.4299,1.4299,1.4299,1.4299,1.4299,1.4299,1.4299,1.4299,1.4299,1.4299,1.4299,1.4299,1.4299,1.4299,1.4299,1.4292,1.4292,1.4265,1.4137,1.4083,1.4063,1.3853,1.3805,1.3788,1.3788,1.3788,1.3754,1.363,1.3589,1.3555,1.3427,1.3403,1.3403,1.3403,1.3403,1.3403,1.3403,1.3403,1.3403,1.3403,1.3403,1.3403,1.3403,1.3403,1.3403,1.3403,1.3403,1.3403,1.3403,1.3403,1.3403,1.3403,1.3403,1.3397,1.3407,1.3407,1.3401,1.3394,1.338,1.3111,1.2522,1.2502,1.2497,1.2501,1.2499,1.2491,1.2472,1.247,1.2172,1.1602,1.1603,1.1464,1.2018,1.2048,1.2075,1.2018,1.2048,1.2116,1.2208,1.2228,1.2276,1.2409,1.2433,1.2447,1.2494,1.2501,1.2501,1.2501,1.2611,1.2746,1.2878,1.3071,1.3227,1.3319,1.3447,1.3552,1.3606,1.3596,1.3687,1.3923,1.4036,1.4137,1.4228,1.4283,1.4299,1.4299,1.4299,1.4299,1.4299,1.4299,1.4299,1.4299,1.4299,1.4299,1.4299,1.4299,1.4299,1.4299,1.4299,1.4299,1.4299,1.4299,1.4299,1.4299,1.4299,1.4299,1.4299,1.4299,1.4299,1.4292,1.4249,1.4235,1.4222,1.4152,1.4064,1.4004,1.4004,1.3915,1.3788,1.3751,1.3727,1.3704,1.3572,1.3532,1.3505,1.3413,1.3403,1.3403,1.3403,1.3403,1.3403,1.3403,1.3403,1.3403,1.3403,1.3403,1.3403,1.3403,1.3403,1.3403,1.3403,1.3403,1.3403,1.3403,1.3403,1.3403,1.3403,1.3403,1.3397,1.3401,1.3398,1.3305,1.3111,1.2715,1.2502,1.2504,1.2498,1.2501,1.2501,1.25,1.2396,1.22,1.2206,1.22,1.2174,1.2211,1.2231,1.2174,1.2211,1.2272,1.2355,1.2366,1.2402,1.2481,1.2501,1.2501,1.2501,1.2501,1.2522,1.2566,1.2702,1.2878,1.3047,1.319,1.3319,1.3464,1.3545,1.3654,1.3766,1.3779,1.3865,1.4076,1.4144,1.4208,1.4292,1.4299,1.4299,1.4299,1.4299,1.4299,1.4299,1.4299,1.4299,1.4299,1.4299,1.4299,1.4299,1.4299,1.4299,1.4299,1.4299,1.4299,1.4299,1.4299,1.4299,1.4299,1.4299,1.4299,1.4299,1.4299,1.4299,1.4299,1.4299,1.4299,1.4299,1.4299,1.4242,1.4171,1.4171,1.4082,1.3972,1.3918,1.3915,1.387,1.3711,1.3636,1.3586,1.3484,1.3434,1.3403,1.3403,1.3403,1.3403,1.3403,1.3403,1.3403,1.3403,1.3403,1.3403,1.3403,1.3403,1.3403,1.3403,1.3403,1.3403,1.3403,1.3403,1.3403,1.3403,1.3403,1.3403,1.3403,1.3401,1.3398,1.3404,1.303,1.2715,1.2499,1.2503,1.2497,1.2501,1.2499,1.2506,1.2499,1.2498,1.2502,1.2338,1.24,1.2467,1.2341,1.2416,1.2501,1.2501,1.2501,1.2501,1.2501,1.2501,1.2501,1.2515,1.2498,1.2556,1.2689,1.2878,1.305,1.3183,1.3319,1.3454,1.3582,1.362,1.3752,1.407,1.4114,1.4104,1.4104,1.4228,1.4299,1.4299,1.4299,1.4299,1.4299,1.4299,1.4299,1.4299,1.4299,1.4299,1.4299,1.4299,1.4299,1.4299,1.4299,1.4299,1.4299,1.4299,1.4299,1.4299,1.4299,1.4299,1.4299,1.4299,1.4299,1.4299,1.4299,1.4299,1.4299,1.4299,1.4299,1.4299,1.4299,1.4299,1.4299,1.4299,1.4299,1.4272,1.4144,1.4104,1.4059,1.387,1.3717,1.3616,1.3602,1.3498,1.341,1.3403,1.3403,1.3403,1.3403,1.3403,1.3403,1.3403,1.3403,1.3403,1.3403,1.3403,1.3403,1.3403,1.3403,1.3403,1.3403,1.3403,1.3403,1.3403,1.3403,1.3403,1.3403,1.3403,1.3397,1.3397,1.3394,1.3135,1.2555,1.2522,1.2498,1.2505,1.2505,1.2498,1.2501,1.2501,1.2501,1.2461,1.2474,1.2494,1.2461,1.2465,1.2501,1.2501,1.2501,1.2501,1.2501,1.2501,1.2526,1.2631,1.2566,1.2589,1.2881,1.2965,1.305,1.3183,1.3403,1.3566,1.3606,1.3824,1.4008,1.4083,1.4188,1.4256,1.4256,1.4278,1.4299,1.4299,1.4299,1.4299,1.4299,1.4299,1.4299,1.4299,1.4299,1.4299,1.4299,1.4299,1.4299,1.4299,1.4299,1.4299,1.4299,1.4299,1.4299,1.4299,1.4299,1.4299,1.4299,1.4299,1.4299,1.4299,1.4299,1.4299,1.4299,1.4299,1.4299,1.4299,1.4299,1.4299,1.4299,1.4299,1.4299,1.4292,1.4262,1.4256,1.4204,1.4065,1.3998,1.3916,1.366,1.3569,1.3518,1.3413,1.3403,1.3403,1.3403,1.3403,1.3403,1.3403,1.3403,1.3403,1.3403,1.3403,1.3403,1.3403,1.3403,1.3403,1.3403,1.3403,1.3403,1.3403,1.3403,1.3403,1.3403,1.3403,1.3404,1.3401,1.3398,1.3322,1.3175,1.2729,1.2496,1.2498,1.2498,1.2503,1.2501,1.2501,1.25,1.2501,1.2501,1.2501,1.2501,1.2501,1.2501,1.2501,1.2501,1.2501,1.2501,1.2501,1.2539,1.2685,1.2584,1.2633,1.3027,1.3043,1.3071,1.3261,1.3468,1.3623,1.3684,1.3926,1.4117,1.4174,1.4262,1.4299,1.4299,1.4299,1.4299,1.4299,1.4299,1.4299,1.4299,1.4299,1.4299,1.4299,1.4299,1.4299,1.4299,1.4367,1.4394,1.4394,1.445,1.4444,1.4394,1.4394,1.4349,1.4299,1.4299,1.4299,1.4299,1.4299,1.4299,1.4299,1.4299,1.4299,1.4299,1.4299,1.4299,1.4299,1.4299,1.4299,1.4299,1.4299,1.4299,1.4299,1.4299,1.4299,1.4278,1.4208,1.4144,1.4036,1.3745,1.3643,1.3555,1.3437,1.3403,1.3403,1.3403,1.3403,1.3403,1.3403,1.3403,1.3403,1.3403,1.3403,1.3403,1.3403,1.3403,1.3403,1.3403,1.3403,1.3403,1.3403,1.3403,1.3403,1.3403,1.3403,1.3403,1.3403,1.3404,1.3401,1.3404,1.3071,1.2886,1.2893,1.2631,1.2508,1.2499,1.2506,1.2501,1.2501,1.2501,1.2501,1.2501,1.2501,1.2501,1.2501,1.2501,1.2501,1.2501,1.2505,1.2566,1.2712,1.2641,1.2715,1.3152,1.3115,1.3105,1.3363,1.3525,1.367,1.3792,1.3994,1.4167,1.4285,1.4299,1.4299,1.4299,1.4299,1.4299,1.4299,1.4299,1.4299,1.4299,1.4299,1.4306,1.4326,1.4326,1.434,1.4349,1.4471,1.4532,1.4539,1.4645,1.4642,1.4532,1.4511,1.443,1.4326,1.4306,1.4299,1.4299,1.4299,1.4299,1.4299,1.4299,1.4299,1.4299,1.4299,1.4299,1.4299,1.4299,1.4299,1.4299,1.4299,1.4299,1.4299,1.4299,1.4299,1.4299,1.4299,1.4215,1.4065,1.3846,1.3717,1.3575,1.3427,1.3403,1.3403,1.3403,1.3403,1.3403,1.3403,1.3403,1.34,1.3399,1.3399,1.3396,1.3406,1.3403,1.3403,1.3403,1.3403,1.3403,1.3403,1.3403,1.3403,1.3403,1.3403,1.3403,1.3403,1.3403,1.3404,1.3408,1.3401,1.3403,1.3405,1.2874,1.2578,1.2502,1.2502,1.2502,1.2501,1.2501,1.2501,1.2501,1.2501,1.2501,1.2501,1.2501,1.2501,1.2501,1.2593,1.2719,1.2915,1.2931,1.301,1.3319,1.3254,1.322,1.3376,1.3613,1.3768,1.3805,1.4078,1.4272,1.4299,1.4299,1.4299,1.4299,1.4299,1.4299,1.4299,1.4299,1.4299,1.4299,1.4299,1.4342,1.4464,1.4475,1.4514,1.4631,1.4651,1.4665,1.4665,1.4692,1.4692,1.4658,1.4552,1.4484,1.4457,1.4346,1.4299,1.4299,1.4299,1.4299,1.4299,1.4299,1.4299,1.4299,1.4299,1.4299,1.4299,1.4299,1.4299,1.4299,1.4299,1.4299,1.4299,1.4299,1.4299,1.4299,1.4299,1.4278,1.419,1.3873,1.3781,1.3697,1.3447,1.3403,1.3403,1.3403,1.3403,1.3403,1.3403,1.3403,1.3403,1.3398,1.3408,1.3406,1.3402,1.3399,1.3403,1.3403,1.3403,1.3403,1.3403,1.3403,1.3403,1.3403,1.3403,1.3403,1.3403,1.3403,1.34,1.3404,1.3404,1.3401,1.34,1.3284,1.2989,1.2499,1.2502,1.25,1.2501,1.2501,1.2501,1.2501,1.2501,1.2501,1.2501,1.2501,1.2501,1.2501,1.2614,1.276,1.2965,1.3003,1.3088,1.3366,1.3295,1.3248,1.3376,1.3633,1.3795,1.3795,1.4105,1.4299,1.4299,1.4299,1.4299,1.4299,1.4299,1.4299,1.4299,1.4299,1.4333,1.4396,1.4396,1.4471,1.4597,1.4597,1.4642,1.4694,1.481,1.4862,1.4862,1.4925,1.4918,1.4855,1.4792,1.4658,1.4498,1.4423,1.4356,1.4299,1.4299,1.4299,1.4299,1.4299,1.4299,1.4299,1.4299,1.4299,1.4299,1.4299,1.4299,1.4299,1.4299,1.4299,1.4299,1.4299,1.4299,1.4299,1.4299,1.4299,1.4224,1.388,1.369,1.3563,1.3431,1.3403,1.3403,1.3403,1.3403,1.3403,1.3403,1.3402,1.3403,1.3403,1.3674,1.3876,1.3863,1.3871,1.375,1.3438,1.3399,1.3404,1.34,1.3404,1.3401,1.3393,1.3403,1.3403,1.3403,1.3403,1.3403,1.3403,1.3403,1.3394,1.3398,1.3397,1.3246,1.2963,1.2647,1.2497,1.2501,1.2501,1.2501,1.2501,1.2501,1.2501,1.2501,1.2501,1.2501,1.2501,1.2614,1.276,1.2965,1.3013,1.3122,1.3356,1.3312,1.3282,1.3393,1.3633,1.3795,1.3795,1.4105,1.4299,1.4299,1.4299,1.4299,1.4299,1.4326,1.4335,1.4335,1.4335,1.4403,1.4545,1.4541,1.4609,1.4764,1.4753,1.4785,1.4812,1.4968,1.5041,1.5053,1.5157,1.5143,1.5034,1.4973,1.4792,1.4545,1.4478,1.4401,1.4299,1.4299,1.4299,1.4299,1.4299,1.4299,1.4299,1.4299,1.4299,1.4299,1.4299,1.4299,1.4299,1.4299,1.4299,1.4299,1.4299,1.4299,1.4299,1.4299,1.4299,1.4224,1.388,1.362,1.3434,1.341,1.3403,1.3403,1.3403,1.3403,1.34,1.3403,1.3399,1.3447,1.3571,1.3995,1.4299,1.4302,1.4298,1.4119,1.3642,1.3592,1.3587,1.3586,1.3472,1.3395,1.3406,1.3396,1.3403,1.3403,1.3403,1.3403,1.3403,1.3403,1.3403,1.3403,1.3394,1.3396,1.3389,1.2778,1.2505,1.2501,1.2501,1.2501,1.2501,1.2501,1.2501,1.2501,1.2501,1.2501,1.2501,1.2614,1.276,1.2965,1.3095,1.3227,1.3387,1.339,1.3383,1.3397,1.3633,1.3795,1.3795,1.4105,1.4299,1.4299,1.4299,1.4299,1.4299,1.441,1.4478,1.4478,1.4478,1.4541,1.4678,1.4685,1.4783,1.4973,1.4973,1.5029,1.5152,1.5165,1.5172,1.5172,1.5186,1.5186,1.5158,1.4852,1.4712,1.4665,1.4417,1.4312,1.4299,1.4299,1.4299,1.4299,1.4299,1.4299,1.4299,1.4299,1.4299,1.4299,1.4299,1.4299,1.4299,1.4299,1.4299,1.4299,1.4299,1.4299,1.4299,1.4299,1.4299,1.4224,1.388,1.369,1.3545,1.3431,1.3403,1.3403,1.3403,1.3403,1.3403,1.3401,1.3403,1.3588,1.4134,1.4265,1.4305,1.43,1.4302,1.428,1.4225,1.422,1.4226,1.4223,1.3712,1.3399,1.3407,1.3405,1.3403,1.3403,1.3403,1.3403,1.3403,1.3403,1.3403,1.3403,1.34,1.3394,1.3393,1.2775,1.2499,1.2501,1.2501,1.2501,1.2501,1.2501,1.2501,1.2501,1.2501,1.2501,1.2501,1.2614,1.2723,1.2797,1.3037,1.3224,1.3275,1.3353,1.3403,1.3403,1.3559,1.3711,1.3788,1.4023,1.4208,1.4292,1.4299,1.4333,1.441,1.4471,1.459,1.4792,1.4688,1.4697,1.4887,1.4875,1.4962,1.5123,1.5123,1.515,1.5204,1.5204,1.5204,1.5204,1.5204,1.5204,1.5197,1.4964,1.4816,1.4692,1.4505,1.4369,1.4299,1.4299,1.4299,1.4299,1.4299,1.4299,1.4299,1.4299,1.4299,1.4299,1.4299,1.4299,1.4299,1.4299,1.4299,1.4299,1.4299,1.4299,1.4299,1.4299,1.4242,1.4151,1.4007,1.3854,1.3711,1.365,1.364,1.364,1.364,1.3513,1.34,1.3396,1.3702,1.4026,1.4257,1.4299,1.4297,1.4303,1.4299,1.4299,1.4299,1.4307,1.4306,1.4303,1.4083,1.3785,1.3423,1.3398,1.3398,1.3403,1.3403,1.3403,1.3403,1.3403,1.3403,1.3403,1.3403,1.3394,1.3394,1.3142,1.2846,1.2501,1.2501,1.2501,1.2501,1.2501,1.2501,1.2501,1.2501,1.2501,1.2501,1.258,1.2648,1.2689,1.2892,1.3081,1.318,1.3282,1.3349,1.3397,1.3522,1.365,1.3781,1.398,1.4151,1.4285,1.4299,1.4369,1.4552,1.4554,1.4713,1.5041,1.4918,1.4911,1.5055,1.5055,1.5102,1.5204,1.5204,1.5204,1.5204,1.5204,1.5204,1.5204,1.5204,1.5184,1.5136,1.4975,1.4814,1.4624,1.4498,1.4387,1.4299,1.4299,1.4299,1.4299,1.4299,1.4299,1.4299,1.4299,1.4299,1.4299,1.4299,1.4299,1.4299,1.4299,1.4299,1.4299,1.4299,1.4299,1.4299,1.4299,1.4228,1.4151,1.4114,1.3987,1.3877,1.3808,1.3795,1.3795,1.3795,1.3656,1.3523,1.3526,1.3957,1.4302,1.43,1.4297,1.4299,1.4299,1.4299,1.4299,1.4299,1.4299,1.4302,1.4299,1.4298,1.4118,1.3687,1.35,1.3402,1.34,1.3403,1.3403,1.3403,1.3403,1.3403,1.3403,1.3403,1.3401,1.3394,1.3404,1.3077,1.2501,1.2501,1.2501,1.2501,1.2501,1.2501,1.2501,1.2501,1.2501,1.2501,1.2501,1.2539,1.2685,1.2702,1.2814,1.3146,1.3203,1.3248,1.3376,1.3522,1.365,1.3781,1.398,1.4151,1.4285,1.4299,1.441,1.4678,1.4706,1.4846,1.5179,1.5204,1.5204,1.5204,1.5204,1.5204,1.5204,1.5204,1.5204,1.5204,1.5204,1.5204,1.5204,1.5204,1.5129,1.4987,1.4785,1.4636,1.4491,1.436,1.4299,1.4299,1.4299,1.4299,1.4299,1.4299,1.4299,1.4299,1.4299,1.4299,1.4299,1.4299,1.4299,1.4299,1.4299,1.4299,1.4299,1.4299,1.4299,1.4299,1.4299,1.4299,1.4258,1.4131,1.4101,1.4038,1.3839,1.3795,1.3795,1.3795,1.3795,1.3799,1.3795,1.4079,1.4304,1.4301,1.4299,1.4299,1.4299,1.4299,1.4299,1.4299,1.4299,1.4299,1.4299,1.4295,1.4306,1.4293,1.373,1.3402,1.34,1.3403,1.3403,1.3403,1.3403,1.3403,1.3403,1.3403,1.3403,1.3397,1.3401,1.3077,1.2474,1.2501,1.2501,1.2501,1.2501,1.2501,1.2501,1.2501,1.2501,1.2501,1.2501,1.2505,1.2553,1.2638,1.2773,1.3017,1.3142,1.3248,1.3376,1.3444,1.3556,1.3768,1.4057,1.4245,1.4292,1.4299,1.441,1.4685,1.4706,1.4846,1.5179,1.5204,1.5204,1.5204,1.5204,1.5204,1.5204,1.5204,1.5204,1.5204,1.5204,1.5204,1.5204,1.5102,1.5034,1.498,1.4688,1.4545,1.4491,1.436,1.4299,1.4299,1.4299,1.4299,1.4299,1.4299,1.4299,1.4299,1.4299,1.4299,1.4299,1.4299,1.4299,1.4299,1.4299,1.4299,1.4299,1.4299,1.4299,1.4299,1.4299,1.4299,1.4285,1.4249,1.4242,1.4222,1.4152,1.4145,1.4145,1.4145,1.4145,1.4137,1.414,1.4231,1.43,1.4303,1.4299,1.4299,1.4299,1.4299,1.4299,1.4299,1.4299,1.4299,1.4299,1.4302,1.4297,1.43,1.3733,1.3401,1.34,1.3403,1.3403,1.3403,1.3403,1.3403,1.3403,1.3403,1.3403,1.3397,1.3396,1.3083,1.2389,1.2461,1.2501,1.2501,1.2501,1.2501,1.2501,1.2501,1.2501,1.2501,1.2501,1.2501,1.2501,1.2566,1.2681,1.2857,1.3017,1.3176,1.3315,1.3373,1.3502,1.3772,1.4105,1.4299,1.4299,1.4299,1.4389,1.4615,1.4672,1.4825,1.5109,1.5165,1.5184,1.5129,1.5165,1.5177,1.5129,1.5118,1.5084,1.5006,1.5006,1.5006,1.5011,1.4923,1.4867,1.4799,1.4597,1.4471,0.0,1.4328,1.4299,1.4299,1.4299,1.4299,1.4299,1.4299,1.4299,1.4299,1.4299,1.4299,1.4299,1.4299,1.4299,1.4299,1.4299,1.4299,1.4299,1.4299,1.4299,1.4299,1.4299,1.4299,1.4299,1.4299,1.4299,1.4299,1.4299,1.4299,1.4299,1.4299,1.4299,1.4299,1.4299,1.4299,1.4299,1.4299,1.4299,1.4299,1.4299,1.4299,1.4299,1.4299,1.4299,1.4299,1.4299,1.4299,1.4308,1.43,1.3731,1.3405,1.34,1.3403,1.3403,1.3403,1.3403,1.3403,1.3403,1.3403,1.3403,1.3407,1.3399,1.3083,0.0,1.2386,1.2501,1.2501,1.2501,1.2501,1.2501,1.2501,0.0,1.2501,1.2501,1.2501,1.2501,1.2501,1.2546,1.2675,1.2871,1.305,1.3183,1.3332,1.3522,1.3772,1.4105,1.4299,1.4299,1.4299,1.436,1.4491,1.4622,1.4771,1.4966,1.5102,1.5116,1.498,1.5102,1.5097,1.498,1.498,1.4882,1.4706,1.4706,1.4706,1.4706,1.4692,1.4622,1.4498,1.4491,1.4421,1.4299,1.4299,1.4299,1.4299,1.4299,1.4299,1.4299,1.4299,1.4299,1.4299,1.4299,1.4299,1.4299,1.4299,1.4299,1.4299,1.4299,1.4299,1.4299,1.4299,1.4299,1.4299,1.4299,1.4299,1.4299,1.4299,1.4299,1.4299,1.4299,1.4299,1.4299,1.4299,1.4299,1.4299,1.4299,1.4299,1.4299,1.4299,1.4299,1.4299,1.4299,1.4299,1.4299,1.4299,1.4299,1.4299,1.4299,1.4303,1.4306,1.43,1.3735,1.3402,1.34,1.3403,1.3403,1.3403,1.3403,1.3403,1.3403,1.3403,1.3397,1.3397,1.3399,1.3076,1.2102,0.0,1.2501,1.2501,1.2501,1.2501,0.0,1.2501,1.2501,1.2501,1.2501,1.2501,1.2501,1.2501,1.2546,1.2675,1.2871,1.305,1.3183,1.3488,1.3731,1.3788,1.4105,1.4299,1.4299,1.4299,1.436,1.4491,1.4532,1.4609,1.4764,1.4805,1.4805,1.4771,1.4805,1.4805,1.4771,1.4771,1.4751,1.4706,1.4706,1.4706,1.4699,1.4584,1.4532,1.4498,1.4383,1.4333,1.4299,1.4299,1.4299,1.4299,1.4299,1.4299,1.4299,1.4299,1.4299,1.4299,1.4299,1.4299,1.4299,1.4299,1.4299,1.4299,1.4299,1.4299,1.4299,1.4299,1.4299,1.4299,1.4299,1.4299,1.4299,1.4299,1.4299,1.4299,1.4299,1.4299,1.4299,1.4299,1.4299,1.4299,1.4299,1.4299,1.4299,1.4299,1.4299,1.4299,1.4299,1.4299,1.4299,1.4299,1.4299,1.4299,1.4299,1.4296,1.4305,1.4293,1.3725,1.3404,1.34,1.3403,1.3403,1.3403,1.3403,1.3403,1.3403,1.3403,1.3404,1.3401,1.3394,1.3081,1.2048,1.2249,1.242,1.2478,1.2501,1.2501,1.2501,1.2501,1.2501,1.2501,1.2501,1.2501,1.2501,1.2501,1.2519,1.26,1.2833,1.3067,1.3258,1.359,1.3795,1.3795,1.4105,1.4299,1.4299,1.4299,1.4333,1.4396,1.4475,1.4527,1.4597,1.4665,1.4672,1.4615,1.4609,1.4609,1.4609,1.4609,1.4581,1.4514,1.4514,1.4514,1.4514,1.4437,1.4414,1.4403,1.4333,1.4299,1.4299,1.4299,1.4299,1.4299,1.4299,1.4299,1.4299,1.4299,1.4299,1.4299,1.4299,1.4299,1.4299,1.4299,1.4299,1.4299,1.4299,1.4299,1.4299,1.4299,1.4299,1.4299,1.4299,1.4299,1.4299,1.4299,1.4299,1.4299,1.4299,1.4299,1.4299,1.4299,1.4299,1.4299,1.4299,1.4299,1.4299,1.4299,1.4299,1.4299,1.4299,1.4299,1.4299,1.4299,1.4304,1.4296,1.4296,1.4299,1.4182,1.3898,1.3575,1.3402,1.34,1.3403,1.3403,1.3403,1.3403,1.3403,1.3403,1.3403,1.3394,1.3387,1.3121,1.2805,1.2004,1.2161,1.2317,1.2461,1.2501,1.2501,1.2501,1.2501,1.2501,1.2501,1.2501,1.2501,1.2501,1.2501,1.2501,1.2501,1.2779,1.3084,1.3356,1.3633,1.3795,1.3795,1.4105,1.4299,1.4299,1.4299,1.4299,1.4299,1.4741,1.5005,1.5005,1.5109,1.5123,1.5012,1.4665,1.4471,1.4471,1.4471,1.441,1.4299,1.4299,1.4299,1.4299,1.4299,1.4299,1.4299,1.4299,1.4299,1.4299,1.4299,1.4299,1.4299,1.4299,1.4299,1.4299,1.4299,1.4299,1.4299,1.4299,1.4299,1.4299,1.4299,1.4299,1.4299,1.4299,1.4299,1.4299,1.4299,1.4299,1.4299,1.4299,1.4299,1.4299,1.4299,1.4299,1.4299,1.4299,1.4299,1.4299,1.4299,1.4299,1.4299,1.4299,1.4299,1.4299,1.4299,1.4299,1.4299,1.4299,1.4299,1.4303,1.4305,1.4299,1.4264,1.4171,1.4159,1.3942,1.3427,1.3404,1.3396,1.3393,1.3403,1.3403,1.3403,1.3403,1.3403,1.3403,1.3397,1.3401,1.339,1.2782,1.2506,1.1811,1.1988,1.219,1.2443,1.2501,1.2501,1.2501,1.2501,1.2501,1.2501,1.2501,1.2501,1.2501,1.2501,1.2501,1.2501,1.2779,1.3084,1.3356,1.3633,1.3795,1.3795,1.4105,1.4299,1.4299,1.4299,1.4299,1.4299,1.6167,1.729,1.729,1.7304,1.7312,1.729,1.5363,1.4333,1.4333,1.4333,1.4319,1.4299,1.4299,1.4299,1.4299,1.4299,1.4299,1.4299,1.4299,1.4299,1.4299,1.4299,1.4299,1.4299,1.4299,1.4299,1.4299,1.4299,1.4299,1.4299,1.4299,1.4299,1.4299,1.4299,1.4299,1.4299,1.4299,1.4299,1.4299,1.4299,1.4299,1.4299,1.4299,1.4299,1.4299,1.4299,1.4299,1.4299,1.4299,1.4299,1.4299,1.4299,1.4299,1.4299,1.4299,1.4299,1.4299,1.4299,1.4299,1.4299,1.4299,1.4299,1.4295,1.4297,1.4295,1.4086,1.3578,1.3542,1.3497,1.3411,1.3404,1.3403,1.3403,1.3403,1.3403,1.3403,1.3403,1.3403,1.3403,1.3398,1.3393,1.3395,1.2774,1.2501,1.1762,1.1954,1.2152,1.2341,1.2447,1.2501,1.2501,1.2501,1.2501,1.2501,1.2501,1.2501,1.2501,1.2501,1.2556,1.2745,1.2897,1.3084,1.3356,1.3633,1.3795,1.3795,1.4105,1.4299,1.4299,1.5447,1.6188,1.6188,1.8322,1.964,1.964,1.964,1.9065,1.784,1.6743,1.5579,1.431,1.4299,1.4299,1.4299,1.4299,1.4299,1.4299,1.4299,1.4299,1.4299,1.4299,1.4299,1.4299,1.4299,1.4299,1.4299,1.4299,1.4299,1.4299,1.4299,1.4299,1.4299,1.4299,1.4299,1.4299,1.4299,1.4299,1.4299,1.4299,1.4299,1.4299,1.4299,1.4299,1.4299,1.4299,1.4299,1.4299,1.4299,1.4299,1.4299,1.4299,1.4299,1.4299,1.4299,1.4299,1.4299,1.4299,1.4299,1.4299,1.4299,1.4299,1.4305,1.43,1.4304,1.4297,1.4297,1.4014,1.3697,1.3414,1.3397,1.3401,1.3401,1.3396,1.3403,1.3403,1.3403,1.3403,1.3403,1.3403,1.3403,1.3403,1.3398,1.3237,1.2906,1.2631,1.2497,1.173,1.1918,1.2116,1.2228,1.2382,1.2501,1.2501,1.2501,1.2501,1.2501,1.2871,1.3064,1.2588,1.2528,1.2654,1.2945,1.303,1.3301,1.4051,1.4421,1.4611,1.4579,1.4897,1.5124,1.5124,1.6743,1.8017,1.8562,2.0724,2.2019,2.2019,2.2019,2.1221,1.9467,1.8355,1.694,1.5135,1.4568,1.4299,1.4299,1.4299,1.4299,1.4299,1.4299,1.4299,1.4299,1.4299,1.4299,1.4299,1.4299,1.4299,1.4299,1.4299,1.4299,1.4299,1.4299,1.4299,1.4299,1.4299,1.4299,1.4299,1.4299,1.4299,1.4299,1.4299,1.4299,1.4299,1.4299,1.4299,1.4299,1.4299,1.4299,1.4299,1.4299,1.4299,1.4299,1.4299,1.4299,1.4299,1.4299,1.4299,1.4299,1.4299,1.4299,1.4299,1.4299,1.4305,1.4303,1.4302,1.4182,1.4096,1.4095,1.3685,1.3396,1.3395,1.3402,1.3403,1.3403,1.3403,1.3403,1.3403,1.3403,1.3403,1.3403,1.3403,1.3404,1.3401,1.3394,1.3091,1.2499,1.2502,1.2503,1.1615,1.1852,1.2104,1.2111,1.231,1.2501,1.2501,1.2501,1.2501,1.2501,1.3984,1.4715,1.2842,1.2597,1.2746,1.2975,1.3101,1.3924,1.6069,1.6768,1.7002,1.6883,1.7274,1.7556,1.7556,1.7698,1.8682,2.08,2.3116,2.4444,2.4444,2.4444,2.4369,2.4209,2.0042,1.772,1.7556,1.5392,1.4299,1.4299,1.4299,1.4299,1.4299,1.4299,1.4299,1.4299,1.4299,1.4299,1.4299,1.4299,1.4299,1.4299,1.4299,1.4299,1.4299,1.4299,1.4299,1.4299,1.4299,1.4299,1.4299,1.4299,1.4299,1.4299,1.4299,1.4299,1.4299,1.4299,1.4299,1.4299,1.4299,1.4299,1.4299,1.4299,1.4299,1.4299,1.4299,1.4299,1.4299,1.4299,1.4299,1.4299,1.4299,1.4299,1.4299,1.4299,1.4304,1.4295,1.4299,1.381,1.3459,1.3464,1.3427,1.3398,1.3399,1.34,1.3403,1.3403,1.3403,1.3403,1.3403,1.3403,1.3403,1.3403,1.3403,1.3408,1.3397,1.3401,1.3091,1.2502,1.2502,1.2505,1.1602,1.2763,1.3666,1.2415,1.3237,1.4041,1.2784,1.2501,1.2501,1.2501,1.4099,1.5272,1.4504,1.4586,1.4374,1.3195,1.5385,1.7092,1.6663,1.8189,1.879,1.7277,1.7503,1.7807,1.7807,1.9075,2.0875,2.3202,2.5543,2.6874,2.6874,2.6874,2.6204,2.4755,2.1588,1.9228,1.7818,1.5469,1.4299,1.4299,1.4299,1.4299,1.4299,1.4299,1.4299,1.4299,1.4299,1.4299,1.4299,1.4299,1.4299,1.4299,1.4299,1.4299,1.4299,1.4299,1.4299,1.4299,1.4299,1.4299,1.4299,1.4299,1.4299,1.4299,1.4299,1.4299,1.4299,1.4299,1.4299,1.4299,1.4299,1.4299,1.4299,1.4299,1.4299,1.4299,1.4299,1.4299,1.4299,1.4299,1.4299,1.4299,1.4299,1.4301,1.4306,1.4306,1.4295,1.4163,1.3789,1.3541,1.3405,1.3394,1.3401,1.3402,1.3393,1.3403,1.3403,1.3403,1.3403,1.3403,1.3403,1.3403,1.3403,1.3403,1.3401,1.3398,1.3404,1.3015,1.2717,1.2502,1.2501,1.2501,1.2484,1.3731,1.4704,1.3323,1.4252,1.5138,1.3753,1.3452,1.3635,1.4291,1.5003,1.5729,1.647,1.631,1.5627,1.4293,1.7276,1.9302,1.7958,2.0021,2.0825,1.8533,1.9273,1.9684,1.8954,2.0951,2.3277,2.563,2.7289,2.8189,2.8189,2.8189,2.7458,2.5864,2.2804,2.0453,1.8889,1.5833,1.4299,1.4299,1.4299,1.4299,1.4299,1.4299,1.4299,1.4299,1.4299,1.4299,1.4299,1.4299,1.4299,1.4299,1.4299,1.4299,1.4299,1.4299,1.4299,1.4299,1.4299,1.4299,1.4299,1.4299,1.4299,1.4299,1.4299,1.4299,1.4299,1.4299,1.4299,1.4299,1.4299,1.4299,1.4299,1.4299,1.4299,1.4299,1.4299,1.4299,1.4299,1.4299,1.4298,1.4297,1.4297,1.4305,1.4245,1.4044,1.4018,1.387,1.3444,1.3401,1.3397,1.34,1.3403,1.3403,1.3403,1.3403,1.3403,1.3403,1.3403,1.3403,1.3403,1.3403,1.3397,1.3401,1.3401,1.3315,1.3108,1.2698,1.2502,1.2494,1.25,1.2501,1.4405,1.4657,1.4926,1.4926,1.5251,1.5559,1.5559,1.553,1.6085,1.8175,1.6961,1.6251,1.8596,1.751,1.6295,1.6381,1.8404,2.0039,2.0262,2.2441,2.3228,2.108,2.3122,2.3792,2.1459,2.3341,2.5673,2.802,2.8189,2.8189,2.8189,2.8189,2.8189,2.8189,2.3673,2.1221,2.1199,1.663,1.4321,1.4299,1.4299,1.4299,1.4299,1.4299,1.4299,1.4299,1.4299,1.4299,1.4299,1.4299,1.4299,1.4299,1.4299,1.4299,1.4299,1.4299,1.4299,1.4299,1.4299,1.4299,1.4299,1.4299,1.4299,1.4299,1.4299,1.4299,1.4299,1.4299,1.4299,1.4299,1.4299,1.4299,1.4299,1.4299,1.4299,1.4299,1.4299,1.4299,1.4299,1.4299,1.4297,1.4303,1.4293,1.4287,1.4091,1.3488,1.3401,1.3399,1.3399,1.3398,1.3403,1.3403,1.3403,1.3403,1.3403,1.3403,1.3403,1.3403,1.3403,1.3403,1.3403,1.3403,1.3401,1.3394,1.3394,1.3101,1.2499,1.2499,1.2497,1.2501,1.2501,1.2501,1.4041,1.575,1.7129,1.7029,1.8415,1.9788,1.9788,1.7569,1.6085,1.8175,1.8109,1.8377,2.0692,2.085,1.9703,1.6864,2.0939,2.3436,2.0445,2.3664,2.5471,2.3177,2.3965,2.4423,2.3738,2.4284,2.5673,2.802,2.8189,2.8189,2.8189,2.8189,2.8189,2.8189,2.5256,2.2869,2.1221,1.8255,1.5935,1.4299,1.4299,1.4299,1.4299,1.4299,1.4299,1.4299,1.4299,1.4299,1.4299,1.4299,1.4299,1.4299,1.4299,1.4299,1.4299,1.4299,1.4299,1.4299,1.4299,1.4299,1.4299,1.4299,1.4299,1.4299,1.4299,1.4299,1.4299,1.4299,1.4299,1.4299,1.4299,1.4299,1.4299,1.4299,1.4299,1.4299,1.4299,1.4294,1.4296,1.4296,1.4303,1.4166,1.3744,1.3666,1.3604,1.3434,1.3402,1.3402,1.3402,1.3399,1.3403,1.3403,1.3403,1.3403,1.3403,1.3403,1.3403,1.3403,1.3403,1.3403,1.3403,1.3403,1.3401,1.3394,1.298,1.2682,1.2499,1.25,1.2493,1.2501,1.2501,1.2501,1.636,1.7875,1.9116,1.9023,2.032,2.1601,2.1601,2.0305,1.9242,1.9704,1.9883,2.0412,2.1921,2.2448,2.1875,1.9444,2.3196,2.5219,2.1836,2.4792,2.6475,2.4223,2.5214,2.5726,2.4797,2.5545,2.6683,2.8084,2.8189,2.8189,2.8189,2.8189,2.8189,2.8189,2.5917,2.4027,2.26,1.9401,1.7093,1.5679,1.4745,1.4299,1.4299,1.4299,1.4299,1.4299,1.4299,1.4299,1.4299,1.4299,1.4299,1.4299,1.4299,1.4299,1.4299,1.4299,1.4299,1.4299,1.4299,1.4299,1.4299,1.4299,1.4299,1.4299,1.4299,1.4299,1.4299,1.4299,1.4299,1.4299,1.4299,1.4299,1.4299,1.4299,1.4299,1.4296,1.4301,1.4307,1.4235,1.3994,1.394,1.3831,1.3462,1.3395,1.3396,1.3396,1.3395,1.3403,1.3403,1.3403,1.3403,1.3403,1.3403,1.3403,1.3403,1.3403,1.3403,1.3403,1.3403,1.3407,1.3398,1.3408,1.3401,1.3402,1.2812,1.2499,1.25,1.25,1.2501,1.2501,1.2501,1.2501,2.0008,2.0403,2.0754,2.0946,2.1437,2.1872,2.1872,2.3283,2.4031,2.2003,2.1961,2.2374,2.2716,2.2996,2.316,2.3103,2.496,2.5731,2.3812,2.5717,2.6599,2.4716,2.6685,2.7363,2.5224,2.6948,2.8189,2.8189,2.8189,2.8189,2.8189,2.8189,2.8189,2.8189,2.613,2.4915,2.4701,2.0529,1.8322,1.8071,1.5745,1.4612,1.4612,1.4612,1.4734,1.4922,1.4712,1.4612,1.4601,1.4387,1.4299,1.4299,1.4299,1.4299,1.4299,1.4299,1.4299,1.4299,1.4299,1.4299,1.4299,1.4299,1.4299,1.4299,1.4299,1.4299,1.4299,1.4299,1.4299,1.4299,1.4285,1.4278,1.4278,1.4276,1.4294,1.4304,1.4295,1.4265,1.4058,1.3506,1.3398,1.34,1.34,1.3398,1.3403,1.3403,1.3403,1.3403,1.3403,1.3403,1.3403,1.3403,1.3403,1.3403,1.3403,1.3403,1.3403,1.3403,1.34,1.3404,1.34,1.3404,1.3368,1.3326,1.278,1.2504,1.2501,1.2501,1.2501,1.2501,1.2501,1.2501,1.9295,2.0462,2.1222,2.276,2.3547,2.3944,2.3944,2.429,2.4031,2.2003,2.3104,2.4512,2.4798,2.5114,2.4839,2.3345,2.496,2.5644,2.3513,2.557,2.7128,2.6689,2.7566,2.7999,2.7501,2.7904,2.8189,2.8189,2.8189,2.8189,2.8189,2.8189,2.8189,2.8189,2.7714,2.6567,2.4723,2.3717,2.2288,2.0443,1.8137,1.705,1.705,1.705,1.8025,1.9617,1.7818,1.705,1.6896,1.5058,1.4299,1.4299,1.4299,1.4299,1.4299,1.4299,1.4299,1.4299,1.4299,1.4299,1.4299,1.4299,1.4299,1.4299,1.4299,1.4299,1.4299,1.4299,1.4299,1.4283,1.4171,1.4144,1.4132,1.4081,1.4186,1.4299,1.4306,1.3932,1.356,1.3431,1.3406,1.3399,1.3399,1.3403,1.3403,1.3403,1.3403,1.3403,1.3403,1.3403,1.3403,1.3403,1.3403,1.3403,1.3403,1.3403,1.3403,1.3403,1.3401,1.3397,1.3404,1.3404,1.3182,1.2707,1.2568,1.2504,1.2501,1.2501,1.2501,1.2501,1.2501,1.2501,2.0902,2.1864,2.2596,2.3867,2.4391,2.4599,2.4599,2.4599,2.4348,2.346,2.4349,2.5371,2.5688,2.5988,2.5855,2.4835,2.565,2.5997,2.484,2.6182,2.7299,2.7299,2.7831,2.8189,2.8189,2.8189,2.8189,2.8189,2.8189,2.8189,2.8189,2.8189,2.8189,2.8189,2.8189,2.7606,2.6397,2.5256,2.3512,2.1167,1.8889,1.8366,1.9391,1.83,1.8453,1.9564,1.9467,1.8812,1.7709,1.6477,1.5311,1.4299,1.4299,1.4299,1.4299,1.4299,1.4299,1.4299,1.4299,1.4299,1.4299,1.4299,1.4299,1.4299,1.4299,1.4262,1.4201,1.4201,1.4125,1.404,1.3969,1.3992,1.4023,1.3883,1.3965,1.4098,1.427,1.3826,1.34,1.3407,1.3399,1.3403,1.3403,1.3403,1.3403,1.3403,1.3403,1.3403,1.3403,1.3403,1.3403,1.3403,1.3403,1.3403,1.3403,1.3403,1.3401,1.3398,1.3394,1.3264,1.2979,1.2973,1.2818,1.2509,1.2494,1.2498,1.2501,1.2501,1.2501,1.2501,1.2501,1.2501,2.2808,2.3335,2.3933,2.4471,2.4599,2.4599,2.4599,2.4599,2.4702,2.5086,2.5344,2.5598,2.5944,2.6229,2.6396,2.6396,2.6396,2.6396,2.6396,2.6914,2.7299,2.7299,2.7831,2.8189,2.8189,2.8189,2.8189,2.8189,2.8189,2.8189,2.8189,2.8189,2.8189,2.8189,2.8189,2.8189,2.8189,2.6268,2.4327,2.2374,2.0085,1.9771,2.1156,1.9662,1.9206,1.9684,2.1156,2.0735,1.8932,1.8126,1.6663,1.4866,1.4465,1.4299,1.4299,1.4299,1.4299,1.4299,1.4299,1.4299,1.4299,1.4299,1.4285,1.4276,1.4276,1.4167,1.4056,1.4056,1.3929,1.3805,1.3789,1.3868,1.3904,1.3701,1.3692,1.381,1.408,1.3751,1.3399,1.3403,1.3403,1.3403,1.3403,1.3403,1.3403,1.3403,1.3403,1.3403,1.3403,1.3403,1.3403,1.3403,1.3403,1.34,1.3394,1.3404,1.3405,1.3396,1.3301,1.302,1.2515,1.2502,1.2498,1.2498,1.2494,1.2501,1.2501,1.2501,1.2501,1.2501,1.2501,1.2501,2.2465,2.3335,2.3933,2.4471,2.4599,2.4599,2.4599,2.4599,2.4759,2.5335,2.5482,2.5598,2.5944,2.6229,2.6396,2.6396,2.6396,2.6396,2.6396,2.6914,2.7299,2.7299,2.7831,2.8189,2.8189,2.8189,2.8189,2.8189,2.8189,2.8189,2.8189,2.8189,2.8189,2.8189,2.8189,2.8189,2.8189,2.7894,2.7575,2.7234,2.4892,2.2869,2.1264,2.2987,2.4882,2.6702,2.499,2.4059,2.347,1.9445,1.7621,1.7137,1.5091,1.4299,1.4299,1.4299,1.4299,1.4299,1.4299,1.4299,1.4299,1.4299,1.4222,1.4135,1.4135,1.3994,1.3839,1.3839,1.3826,1.3789,1.3731,1.3735,1.3684,1.3492,1.3444,1.3472,1.351,1.3462,1.3403,1.3403,1.3403,1.3403,1.3403,1.3403,1.3403,1.3403,1.3403,1.3403,1.3403,1.3403,1.3403,1.3403,1.3403,1.3401,1.3404,1.3401,1.3407,1.3402,1.2917,1.2578,1.2499,1.2499,1.2499,1.2499,1.2505,1.2501,1.2501,1.2501,1.2501,1.2501,1.2501,1.2501,2.309,2.3603,2.3933,2.4471,2.4599,2.4599,2.4599,2.4599,2.4773,2.5388,2.5508,2.5651,2.6139,2.6326,2.6396,2.6396,2.6396,2.6396,2.6396,2.6914,2.7299,2.7299,2.7831,2.8189,2.8189,2.8189,2.8189,2.8189,2.8189,2.8189,2.8189,2.8189,2.8189,2.8189,2.8189,2.8189,2.8189,2.8189,2.7532,2.6204,2.3855,2.289,2.3202,2.423,2.5256,2.6247,2.6546,2.5917,2.4445,2.1091,1.8945,1.7567,1.5223,1.4299,1.4299,1.4299,1.4299,1.4299,1.4299,1.4256,1.4192,1.4192,1.4068,1.3929,1.3929,1.3816,1.3701,1.3733,1.3661,1.3569,1.354,1.3537,1.3506,1.3417,1.3403,1.3403,1.3403,1.3403,1.3403,1.3403,1.3403,1.3403,1.3403,1.3403,1.3403,1.3403,1.3403,1.3403,1.3403,1.3403,1.3403,1.3403,1.3401,1.3401,1.34,1.3088,1.2899,1.29,1.2647,1.2498,1.2496,1.2496,1.2501,1.2501,1.2501,1.2501,1.2501,1.2501,1.2501,1.2501,1.2501,1.2501,2.3643,2.3794,2.3933,2.4471,2.4599,2.4599,2.4599,2.4599,2.4755,2.5295,2.5455,2.5655,2.6196,2.6343,2.6396,2.6396,2.6396,2.6396,2.6396,2.6847,2.7195,2.7285,2.7764,2.8109,2.8189,2.8189,2.8189,2.8189,2.8189,2.8189,2.8189,2.8189,2.8189,2.8189,2.8189,2.8189,2.8189,2.8189,2.7321,2.5577,2.3823,2.3898,2.5598,2.5598,2.5598,2.5694,2.7437,2.6864,2.452,2.217,1.9857,1.7567,1.5223,1.4299,1.4299,1.4299,1.4299,1.4292,1.4258,1.4174,1.4083,1.4038,1.3901,1.3747,1.3747,1.3667,1.3563,1.3615,1.3523,1.3403,1.3403,1.3403,1.3403,1.3403,1.3403,1.3403,1.3403,1.3403,1.3403,1.3403,1.3403,1.3403,1.3403,1.3403,1.3403,1.3403,1.3403,1.3403,1.3403,1.3401,1.3394,1.3394,1.3397,1.3345,1.3175,1.2755,1.2499,1.2501,1.2498,1.25,1.2498,1.2501,1.2501,1.2501,1.2501,1.2501,1.2501,1.2501,1.2501,1.2501,1.2501,1.2501,2.3643,2.3794,2.3933,2.4471,2.4599,2.4599,2.4599,2.4599,2.4702,2.5046,2.5317,2.5611,2.5957,2.6219,2.6396,2.6396,2.6396,2.6396,2.6396,2.6653,2.6937,2.7259,2.7546,2.785,2.8176,2.8189,2.8189,2.8189,2.8189,2.8189,2.8189,2.8189,2.8189,2.8189,2.8189,2.8189,2.8189,2.8189,2.8136,2.802,2.7894,2.7904,2.802,2.802,2.802,2.802,2.8147,2.6864,2.452,2.217,1.9857,1.7567,1.5223,1.4299,1.4299,1.4299,1.4299,1.4278,1.4158,1.4114,1.407,1.3877,1.3724,1.3609,1.3609,1.3522,1.341,1.341,1.3403,1.3403,1.3403,1.3403,1.3403,1.3403,1.3403,1.3403,1.3403,1.3403,1.3403,1.3403,1.3403,1.3403,1.3403,1.3403,1.3403,1.3403,1.3403,1.3403,1.3403,1.3398,1.3407,1.3407,1.3398,1.3172,1.2601,1.2522,1.2494,1.2502,1.2505,1.2498,1.2501,1.2501,1.2501,1.2501,1.2501,1.2501,1.2501,1.2501,1.2501,1.2501,1.2501,1.2501,2.3643,2.3794,2.3933,2.4471,2.4599,2.4599,2.4599,2.4599,2.4698,2.5033,2.5176,2.5403,2.5904,2.6229,2.6396,2.6396,2.6396,2.6396,2.6396,2.663,2.6847,2.6964,2.7252,2.7556,2.785,2.7877,2.7967,2.8176,2.8189,2.8189,2.8189,2.8189,2.8189,2.8189,2.8189,2.8189,2.8189,2.8189,2.8189,2.8189,2.8189,2.8189,2.8189,2.8189,2.8189,2.8189,2.8189,2.7725,2.6758,2.4412,2.2073,1.9749,1.7446,1.5634,1.4299,1.4299,1.4249,1.4154,1.4121,1.3957,1.3766,1.3701,1.3586,1.3474,1.3474,1.3444,1.3403,1.3403,1.3403,1.3403,1.3403,1.3403,1.3403,1.3403,1.3403,1.3403,1.3403,1.3403,1.3403,1.3403,1.3403,1.3403,1.3403,1.3403,1.3403,1.3403,1.3403,1.3401,1.3401,1.3408,1.3251,1.2856,1.2822,1.2727,1.2525,1.25,1.2497,1.2498,1.2501,1.2501,1.2501,1.2501,1.2501,1.2501,1.2501,1.2501,1.2501,1.2501,1.2501,1.2501,1.2501,1.2501,2.3661,2.3875,2.4044,2.4488,2.4599,2.4599,2.4599,2.4599,2.4662,2.489,2.502,2.5216,2.5613,2.6015,2.6299,2.6383,2.6396,2.6396,2.6396,2.656,2.6697,2.6794,2.7001,2.7248,2.7532,2.7559,2.7703,2.8018,2.8021,2.8085,2.8189,2.8189,2.8189,2.8189,2.8189,2.8189,2.8189,2.8189,2.8189,2.8189,2.8189,2.8189,2.8189,2.8189,2.8189,2.8189,2.8189,2.7757,2.6895,2.5331,2.2869,1.9912,1.8388,1.6347,1.4235,1.4235,1.4122,1.3987,1.395,1.3797,1.3589,1.3545,1.3474,1.3403,1.3403,1.3403,1.3403,1.3403,1.3403,1.3403,1.3403,1.3403,1.3403,1.3403,1.3403,1.3403,1.3403,1.3403,1.3403,1.3403,1.3403,1.3403,1.3403,1.3403,1.3404,1.3397,1.3401,1.3398,1.3406,1.3219,1.2939,1.2542,1.2502,1.2504,1.2504,1.2497,1.2501,1.2501,1.2501,1.2501,1.2501,1.2501,1.2501,1.2501,1.2501,1.2501,1.2501,1.2501,1.2501,1.2501,1.2501,1.2501,0.0,0.0,0.0,2.4532,2.4599,2.4599,2.4599,2.4599,2.4599,2.4599,2.4854,2.5082,2.5096,2.5573,2.6065,2.6329,2.6383,2.6396,2.6396,2.6396,2.6503,2.6754,2.6794,2.6911,2.7248,2.7296,2.7406,2.7679,2.7693,2.7837,2.8149,2.8176,2.8176,2.8176,2.8176,2.8186,2.8186,2.82,2.82,2.8186,2.8186,2.8176,2.8176,2.8176,2.8176,2.8176,2.8176,2.688,2.4785,2.4796,2.2062,1.7888,1.7888,1.6337,1.4083,1.4083,1.401,1.3853,1.3675,1.3652,1.3688,1.3475,1.3397,1.3397,1.3397,1.3403,1.3403,1.3403,1.3403,1.3403,1.3403,1.3403,1.3403,1.3403,1.3403,1.3397,1.3397,1.3407,1.3397,1.3403,1.3403,1.3397,1.3397,1.3407,1.3394,1.3397,1.3387,1.3372,1.3364,1.2867,1.2499,1.2502,1.2502,1.2501,1.2501,1.2501,1.2501,1.2501,1.2501,1.2501,1.2501,1.2501,1.2501,1.2501,1.2501,1.2501,1.2501,1.2501,1.2501,1.2501,1.2501,1.2501,2.4017,0.0,0.0,0.0,0.0,0.0,2.4599,2.4599,2.4599,2.4599,2.4675,2.4805,2.5056,2.5239,2.5443,2.5705,2.6115,2.6396,2.6396,2.6396,2.6423,2.6507,2.6507,2.6627,2.6921,2.6947,2.7068,2.7392,2.7409,2.7446,2.755,2.755,2.755,2.755,2.774,2.7837,2.7837,2.8072,2.8072,2.7837,2.7837,2.774,2.755,2.755,2.755,2.755,2.755,2.7176,2.66,2.6783,2.4091,1.9827,1.9827,1.7388,1.3884,1.3884,1.4799,1.5819,1.4223,1.4939,1.6219,1.4093,1.3401,1.3394,1.3397,1.3403,1.3403,1.3403,1.3403,1.3403,1.3403,1.3403,1.3403,1.3403,1.3403,1.3401,1.3394,1.3404,1.3398,1.3404,1.3403,1.3401,1.3405,1.3404,1.3397,1.3394,1.3027,1.2745,1.2754,1.2604,1.2498,1.2498,1.2499,1.2501,1.2501,1.2501,1.2501,1.2501,1.2501,1.2501,1.2501,1.2501,1.2501,1.2501,1.2501,1.2501,1.2501,1.2501,1.2501,1.2501,1.2501,1.2501,2.4155,2.428,2.4395,2.4559,0.0,0.0,2.4599,2.4599,2.4599,2.4599,2.4599,2.4662,2.4863,2.5016,2.5149,2.5314,2.5718,2.6066,2.6205,2.6232,2.6272,2.6383,2.6396,2.6463,2.6627,2.663,2.676,2.7064,2.7091,2.7145,2.7285,2.7299,2.7299,2.7299,2.7449,2.7532,2.7532,2.7737,2.7737,2.7532,2.7532,2.7449,2.7299,2.7299,2.7299,2.7299,2.7299,2.7222,2.7104,2.7268,2.4675,2.0512,1.9579,1.7534,1.5086,1.5086,1.6389,1.7883,1.6017,1.6389,1.7219,1.4342,1.3401,1.3401,1.3401,1.3403,1.3403,1.3403,1.3403,1.3403,1.3403,1.3403,1.3373,1.3253,1.3319,1.3401,1.3399,1.3196,1.3102,1.335,1.3394,1.3397,1.3406,1.3186,1.302,1.3017,1.2731,1.2503,1.2504,1.2503,1.2499,1.2498,1.2501,1.2501,1.2501,1.2501,1.2501,1.2501,1.2501,1.2501,1.2501,1.2501,1.2501,1.2501,1.2501,1.2501,1.2501,1.2501,1.2501,1.2501,1.2501,1.2501,2.424,2.4417,2.4599,2.4599,2.4599,0.0,2.4599,2.4599,2.4599,2.4599,2.4599,2.4599,2.4599,2.4841,2.5046,2.5046,2.5241,2.5531,2.5894,2.5934,2.6028,2.6276,2.6303,2.6316,2.6343,2.6366,2.6476,2.6737,2.6754,2.6894,2.7181,2.7192,2.7192,2.7192,2.7232,2.7235,2.7235,2.7285,2.7285,2.7235,2.7235,2.7232,2.7192,2.7192,2.7192,2.7192,2.7192,2.7024,2.6744,2.6479,2.4214,2.0681,1.8715,1.7652,1.7223,1.7223,1.847,1.9927,1.8453,1.8263,1.8242,1.5684,1.4189,1.3401,1.3408,1.34,1.3403,1.3403,1.3348,1.3304,1.3304,1.3321,1.3264,1.303,1.3156,1.3342,1.3347,1.2905,1.2662,1.3202,1.3299,1.3293,1.3299,1.2865,1.2506,1.2499,1.2502,1.2494,1.2502,1.2501,1.2501,1.2501,1.2501,1.2501,1.2501,1.2501,1.2501,1.2501,1.2501,1.2501,1.2501,1.2501,1.2501,1.2501,1.2501,1.2501,1.2501,1.2501,1.2501,1.2501,1.2501,1.2501,2.4519,2.4559,2.4599,2.4599,2.4599,0.0,2.4599,2.4599,2.4599,2.4599,2.4599,2.4599,2.4599,2.4653,2.4698,2.4698,2.4742,2.4969,2.5531,2.5598,2.5625,2.5669,2.5678,2.5772,2.6041,2.6078,2.6189,2.6463,2.6476,2.6503,2.657,2.658,2.658,2.658,2.6777,2.6897,2.6897,2.7168,2.7168,2.6897,2.6897,2.6787,2.658,2.658,2.658,2.658,2.658,2.6543,2.6337,2.4557,2.3346,2.2565,2.2141,2.0882,1.9306,1.9306,2.0312,2.1456,1.9986,2.1772,2.4609,2.4053,1.912,1.3396,1.3401,1.3397,1.3403,1.3403,1.3044,1.2679,1.2679,1.2794,1.2899,1.2852,1.2876,1.2953,1.3051,1.2773,1.2525,1.2656,1.2677,1.2685,1.2684,1.2578,1.2502,1.2501,1.2493,1.2496,1.2498,1.2501,1.2501,1.2501,1.2501,1.2501,1.2501,1.2501,1.2501,1.2501,1.2501,1.2501,1.2501,1.2501,1.2501,1.2501,1.2501,1.2501,1.2501,1.2501,1.2501,1.2501,1.2501,1.2501,2.4599,2.4599,2.4599,2.4599,2.4599,0.0,0.0,2.4502,2.4404,2.4404,2.4284,2.4209,2.4209,2.4209,2.4209,2.4209,2.4311,2.4467,2.4632,2.5033,2.5344,2.5482,2.5508,2.5571,2.5728,2.5751,2.5808,2.5945,2.6112,2.6202,2.6202,2.6326,2.6396,2.6396,2.6533,2.659,2.659,2.678,2.678,2.659,2.659,2.6533,2.6396,2.6396,2.6396,2.6396,2.6396,2.6396,2.6307,2.5201,2.4751,2.4532,2.2347,2.13,2.1007,2.1007,2.2383,2.4142,2.3393,2.4576,2.6407,2.6404,2.3444,1.9066,1.4715,1.3189,1.2953,1.2948,1.2855,1.2734,1.2667,1.2722,1.2785,1.2761,1.2827,1.2876,1.2768,1.2617,1.2502,1.2495,1.2496,1.2502,1.2496,1.2493,1.2502,1.2505,1.2501,1.2501,1.2501,1.2501,1.2501,1.2501,1.2501,1.2501,1.2501,1.2501,1.2501,1.2501,1.2501,1.2501,1.2501,1.2501,1.2501,1.2501,1.2501,1.2501,1.2501,1.2501,1.2501,1.2501,1.2501,1.2505,2.4599,2.4599,2.4599,2.4599,2.4599,2.4595,0.0,0.0,0.0,2.4128,2.3946,2.3794,2.3794,2.3794,2.3794,2.3794,2.3977,2.4044,2.3835,2.441,2.4953,2.5214,2.5295,2.5352,2.5424,2.5468,2.5508,2.5508,2.5751,2.5894,2.5894,2.6165,2.6316,2.6316,2.6369,2.6396,2.6396,2.6396,2.6396,2.6396,2.6396,2.6396,2.6396,2.6396,2.6396,2.6396,2.6396,2.6396,2.6396,2.6396,2.6396,2.606,2.2529,2.1883,2.292,2.292,2.4393,2.6396,2.6396,2.6396,2.6393,2.6404,2.5263,2.2558,1.5398,1.3977,1.4665,1.3893,1.3675,1.3653,1.3537,1.3127,1.2724,1.2669,1.2789,1.2833,1.2557,1.2501,1.2501,1.2501,1.2501,1.2501,1.2501,1.2501,1.2501,1.2501,1.2501,1.2501,1.2501,1.2501,1.2501,1.2501,1.2501,1.2501,1.2501,1.2501,1.2501,1.2501,1.2501,1.2501,1.2501,1.2501,1.2501,1.2501,1.2501,1.2497,1.2499,1.2499,1.2499,1.2499,1.2498,1.2439,2.4599,2.4599,2.4599,2.4599,2.4599,2.4542,2.4306,0.0,2.4128,2.3892,0.0,2.3794,2.3794,0.0,0.0,2.3794,2.3821,2.3835,2.3794,2.3888,2.4053,2.4315,2.4564,2.4818,2.5122,2.5358,2.5508,2.5508,2.5545,2.5558,2.5558,2.5868,2.6051,2.6051,2.6272,2.6396,2.6396,2.6396,2.6396,2.6396,2.6396,2.6396,2.6396,2.6396,2.6396,2.6396,2.6396,2.6396,2.6396,2.6396,2.6396,2.6347,2.5858,2.5769,2.5905,2.5905,2.6116,2.6396,2.6396,2.6396,2.6396,2.6393,2.1168,1.4593,1.3056,1.758,2.2481,1.8917,1.7041,1.61,1.608,1.432,1.2529,1.2519,1.2538,1.2551,1.2508,1.2501,1.2501,1.2501,1.2501,1.2501,1.2501,1.2501,1.2501,1.2501,1.2501,1.2501,1.2501,1.2501,1.2501,1.2501,1.2501,1.2501,1.2501,1.2501,1.2501,1.2501,1.2501,1.2501,1.2501,1.2501,1.2501,1.2501,1.2501,1.2498,1.2499,1.2499,1.2499,1.2499,1.2504,1.2207,2.4599,2.4599,2.4599,2.4599,2.4599,2.4528,2.4253,0.0,2.3883,2.3567,0.0,0.0,0.0,0.0,0.0,0.0,2.3411,2.3456,2.3308,2.358,2.3848,2.3959,2.4071,2.4191,2.432,2.4592,2.4756,2.4756,2.5064,2.5273,2.5273,2.5554,2.5701,2.5701,2.6015,2.6162,2.6162,2.6316,2.6396,2.6396,2.6396,2.6396,2.6396,2.6396,2.6396,2.6396,2.6396,2.6396,2.6396,2.6396,2.6396,2.6396,2.6396,2.6396,2.6396,2.6396,2.6396,2.6396,2.6396,2.6396,2.64,2.6407,2.3443,1.985,1.9597,2.0806,2.1921,2.0239,1.7904,1.6003,1.6404,1.4506,1.2501,1.2501,1.2501,1.2501,1.2501,1.2501,1.2501,1.2501,1.2501,1.2501,1.2501,1.2501,1.2501,1.2501,1.2501,1.2501,1.2501,1.2501,1.2501,1.2501,1.2501,1.2501,1.2501,1.2501,1.2501,1.2501,1.2501,1.2501,1.2501,1.2501,1.2501,1.2501,1.2497,1.2495,1.2497,1.2149,1.1977,1.1973,1.1973,1.1837,2.4599,2.4599,2.4599,2.4599,2.4599,2.4515,2.4168,2.3946,0.0,2.3265,2.3037,0.0,0.0,0.0,2.2893,2.2893,0.0,2.3113,2.2934,2.3281,2.358,2.3643,2.3745,2.3794,2.3794,2.3986,2.4097,2.4097,2.4565,2.4846,2.4846,2.5184,2.5398,2.5398,2.5697,2.5868,2.5868,2.6058,2.6196,2.6286,2.6286,2.6339,2.6396,2.6396,2.6396,2.6396,2.6396,2.6396,2.6396,2.6396,2.6396,2.6396,2.6396,2.6396,2.6401,2.6399,2.6396,2.6393,2.6395,2.6397,2.6353,2.6013,2.5306,2.4457,2.3725,2.2663,2.1582,2.103,1.8953,1.7008,1.7502,1.5068,1.2496,1.2494,1.2501,1.2501,1.2501,1.2501,1.2501,1.2501,1.2501,1.2501,1.2501,1.2501,1.2501,1.2501,1.2501,1.2501,1.2501,1.2501,1.2501,1.2501,1.2501,1.2501,1.2501,1.2501,1.2501,1.2501,1.2501,1.2501,1.2501,1.2501,1.2507,1.2505,1.2498,1.2421,1.2254,1.1814,1.1598,1.1596,1.1599,1.1602,2.4599,2.4599,2.4599,2.4599,2.4599,2.4462,2.3933,2.3817,2.3621,2.3049,2.2915,2.2893,2.2893,2.2893,2.2893,2.2893,2.2915,0.0,0.0,2.2929,2.3032,2.3283,2.3594,2.3794,2.3794,2.3817,2.3808,2.3808,2.4071,2.4235,2.4235,2.4792,2.5109,2.5109,2.5371,2.5522,2.5522,2.5522,2.5692,2.6011,2.6011,2.6148,2.6396,2.6396,2.6396,2.6396,2.6396,2.6396,2.6396,2.6396,2.6396,2.6396,2.6396,2.6406,2.6403,2.6401,2.6396,2.6409,2.6399,2.6403,2.6215,2.5045,2.462,2.4125,2.1519,2.2484,2.4066,2.2116,2.1013,2.0441,2.0463,1.6496,1.2498,1.25,1.2501,1.2501,1.2501,1.2501,1.2501,1.2501,1.2501,1.2501,1.2501,1.2501,1.2501,1.2501,1.2501,1.2501,1.2501,1.2501,1.2501,1.2501,1.2501,1.2501,1.2501,1.2501,1.2501,1.2501,1.2501,1.2501,1.2501,1.2501,1.2498,1.2504,1.2497,1.2214,1.1626,1.1608,1.1598,1.1599,1.1598,1.1601,0.0,0.0,2.4599,2.4599,0.0,2.4502,2.4142,2.3933,2.3687,2.326,2.3023,2.2893,2.2893,2.2893,2.2893,2.2893,2.2893,2.2893,0.0,2.2893,2.2925,2.3023,2.3148,2.3193,2.3193,2.3354,2.3465,2.3465,2.3763,2.4004,2.4195,2.4396,2.4596,2.4764,2.5077,2.5233,2.5233,2.5401,2.5558,2.5674,2.5674,2.5728,2.5802,2.5802,2.5802,2.5802,2.5802,2.5802,2.5802,2.5802,2.5802,2.5802,2.5802,2.5897,2.603,2.6298,2.6396,2.6287,2.5495,2.5209,2.5139,2.4724,2.4601,2.443,2.352,2.388,2.4453,2.3772,2.2134,2.1004,2.278,1.79,1.2497,1.2502,1.2492,1.2501,1.2501,1.2501,1.2501,1.2501,1.2501,1.2501,1.2501,1.2501,1.2501,1.2501,1.2501,1.2501,1.2501,1.2501,1.2501,1.2501,1.2501,1.2501,1.2501,1.2501,1.2501,1.2501,1.2501,1.2501,1.2501,1.2499,1.2498,1.2497,1.2113,1.1802,1.1594,1.1599,1.1604,1.1602,1.1604,1.1604,2.4599,2.4599,0.0,2.4599,2.4599,0.0,2.4253,2.399,2.3705,2.3376,2.3095,2.2893,2.2893,2.2893,2.2893,2.2893,2.2893,2.2893,0.0,2.2893,2.2893,2.2893,2.2893,2.2893,2.2893,2.3063,2.3166,2.3166,2.3456,2.371,2.3879,2.4079,2.428,2.4448,2.476,2.4917,2.4917,2.5085,2.5241,2.5358,2.5358,2.5411,2.5508,2.5508,2.5508,2.5508,2.5508,2.5508,2.5508,2.5508,2.5508,2.5508,2.5508,2.5541,2.5634,2.5959,2.594,2.5654,2.4877,2.4605,2.4605,2.4597,2.4602,2.4594,2.4603,2.4596,2.4639,2.4862,2.3512,2.2412,2.4147,2.0729,1.6077,1.3192,1.2501,1.2501,1.2501,1.2501,1.2501,1.2501,1.2501,1.2501,1.2501,1.2501,1.2501,1.2501,1.2501,1.2501,1.2501,1.2501,1.2501,1.2501,1.2501,1.2501,1.2501,1.2501,1.2501,1.2501,1.2502,1.2494,1.2494,1.25,1.2397,1.2175,1.1796,1.1602,1.1594,1.1597,1.1602,1.1602,1.1602,1.1602]}]]